GFSSGP_sfc_rhum_000.txt.gz
RH
38 20 19 22 26 27 24 26 28 26 23 16 16 18 17 15 16 22 39 40 43 40 41 63 82 77 76 78 73 70 68 64 60 57 50 50 52 52 55 61 61 55 51 56 60 59 60 64 65
24 16 25 26 21 24 19 26 31 26 18 16 16 18 18 16 15 22 29 40 44 39 40 46 83 78 80 77 75 71 67 64 60 58 53 51 58 51 54 54 57 59 61 60 61 63 59 63 64
21 16 20 24 30 23 25 28 22 17 16 18 18 14 14 15 16 21 34 41 44 41 42 49 86 80 78 77 77 74 70 67 63 58 61 62 65 57 57 54 56 59 58 61 61 61 62 65 64
23 19 18 20 18 19 26 23 17 20 18 19 17 17 14 18 20 29 37 40 40 40 43 70 88 82 82 78 78 74 72 67 66 64 61 62 66 65 61 64 62 59 62 62 62 61 62 64 65
22 22 27 30 30 20 15 16 17 22 20 19 20 19 17 23 32 33 40 42 39 41 44 50 85 81 81 78 75 73 72 68 66 63 63 64 65 71 64 69 66 61 61 63 63 64 64 63 63
28 25 30 33 30 25 22 19 20 20 19 20 19 18 18 24 29 36 44 41 41 44 50 46 78 87 85 80 79 76 74 72 69 63 63 64 70 72 71 69 67 64 64 63 56 66 68 68 68
36 32 32 33 30 28 23 17 19 21 20 20 18 20 16 18 32 39 42 41 47 47 51 48 48 67 90 86 84 82 79 75 73 68 64 69 76 75 73 70 67 69 69 67 66 65 68 69 69
33 31 35 32 28 32 23 18 24 23 21 18 16 18 18 23 28 38 43 45 48 53 52 51 50 50 52 54 85 84 83 80 78 78 80 82 82 80 72 77 73 74 72 72 68 68 65 67 72
33 38 38 34 34 27 21 27 24 24 24 19 18 17 18 26 32 38 41 46 50 54 54 53 50 51 51 52 58 82 85 83 83 78 85 76 46 49 54 73 82 80 76 74 72 71 69 76 81
39 41 36 28 26 27 26 29 30 30 24 21 17 16 16 18 21 28 30 32 40 44 50 52 53 52 54 55 54 53 50 51 48 49 48 42 44 46 60 75 87 84 82 82 78 76 76 78 47
41 41 30 31 29 28 31 31 29 32 32 22 21 17 17 18 19 20 21 29 32 34 40 50 55 54 55 56 52 49 50 49 48 51 50 47 46 46 48 51 53 52 73 52 53 52 47 47 47
44 37 31 32 33 34 34 30 33 31 31 23 22 21 20 18 17 16 19 26 32 38 38 42 48 55 57 54 55 50 50 51 49 50 51 49 48 51 50 49 51 52 49 50 51 49 49 50 48
46 34 35 33 34 35 35 37 34 33 26 22 22 22 20 18 17 17 29 33 34 38 38 40 43 51 56 60 55 54 51 50 48 52 51 50 52 53 52 52 52 52 52 51 51 51 49 49 49
40 38 36 32 35 35 39 34 35 27 22 21 21 21 20 23 26 28 32 34 34 33 35 34 39 43 48 54 57 53 51 49 51 51 53 55 55 56 57 56 54 53 52 51 52 51 52 52 51
39 47 40 37 37 37 35 37 32 24 18 20 20 20 29 34 33 34 36 33 34 31 35 35 37 37 45 51 54 52 52 52 52 52 53 56 56 57 58 58 57 54 53 54 54 54 54 54 52
53 50 52 35 37 36 34 39 26 20 20 20 21 25 32 35 34 35 36 35 34 34 37 40 41 42 45 48 52 48 48 49 50 50 50 53 53 56 58 58 58 56 56 55 55 55 56 55 55
59 59 52 41 36 36 36 34 21 20 21 20 19 26 30 32 33 35 35 35 35 35 39 42 43 44 48 50 50 50 51 49 50 50 52 58 57 59 58 56 51 47 50 49 51 50 53 59 56
64 54 43 45 34 34 33 34 25 21 22 21 22 27 30 32 36 36 35 35 36 37 41 45 48 48 48 50 51 52 54 52 46 42 40 39 35 38 39 36 35 35 37 36 36 38 37 39 41
37 42 46 37 33 36 37 35 27 25 24 23 24 27 30 32 35 36 36 33 34 35 39 45 51 51 47 50 50 48 45 40 38 37 34 32 31 31 34 33 32 33 34 35 34 36 38 36 34
43 45 46 33 35 35 36 38 31 25 24 23 24 28 31 34 33 37 36 35 34 35 35 40 48 52 53 53 46 42 41 40 38 39 36 33 31 31 30 33 33 35 35 36 37 39 42 37 35
48 48 40 40 42 39 37 36 30 24 24 26 24 28 30 32 34 35 37 38 37 39 41 41 44 44 41 39 39 40 42 40 39 37 35 34 30 28 30 31 30 30 32 34 35 35 39 40 35
55 41 44 50 63 55 36 43 31 23 26 29 31 32 33 36 35 37 37 39 41 46 47 43 41 42 41 39 39 39 38 40 38 35 33 30 29 25 24 25 26 27 27 31 31 27 34 38 39
47 46 48 53 58 52 44 41 28 28 27 30 32 32 35 36 37 40 42 45 45 48 49 45 42 41 40 39 36 35 37 36 34 30 28 27 25 24 22 22 25 24 25 28 29 30 33 34 33
47 47 51 47 49 59 39 39 29 24 22 25 31 34 37 38 39 41 44 43 47 51 49 46 42 42 40 39 37 38 37 31 30 28 23 20 18 20 21 22 23 24 26 27 28 29 36 36 30
48 59 96 89 76 55 37 40 27 23 23 24 31 34 35 38 40 43 44 44 46 50 51 44 41 41 38 37 34 33 33 29 26 22 19 18 16 20 22 23 22 22 24 24 26 28 34 32 32
62 50 49 61 55 43 42 41 24 23 24 22 24 31 35 39 38 41 43 45 48 50 47 43 41 40 36 33 30 26 26 23 19 20 18 16 17 18 21 22 21 21 21 22 22 24 26 26 28
82 79 39 45 46 41 35 33 26 27 28 28 27 33 39 40 40 42 44 45 46 46 44 43 42 40 35 30 25 22 19 20 19 18 18 18 18 17 19 20 21 21 21 21 22 20 22 23 25
60 47 64 50 58 54 39 38 28 25 26 30 29 34 38 40 41 42 43 46 44 43 43 41 38 36 32 26 21 19 17 16 17 17 18 19 18 19 20 20 20 20 19 19 20 21 21 22 24
53 70 61 43 42 41 38 33 23 25 25 28 27 30 37 42 40 42 42 46 45 42 42 38 38 35 29 23 19 18 17 16 15 16 17 18 18 19 20 19 19 18 18 18 19 20 20 23 26
44 47 45 51 54 41 39 31 24 25 27 28 28 30 36 37 40 41 45 48 43 40 39 37 36 33 27 21 17 17 18 17 16 16 17 17 18 18 20 20 19 17 18 19 19 20 21 24 26

GFSSGP_sfc_rhum_003.txt.gz
RH
37 18 17 20 24 21 21 19 22 25 23 16 15 17 18 15 16 25 32 30 30 32 39 60 81 78 75 75 72 69 66 62 58 52 50 48 51 51 57 56 57 56 53 58 59 61 58 62 64
26 17 19 21 20 22 17 16 21 23 18 15 15 16 17 16 13 22 28 32 30 30 38 46 83 77 77 75 72 68 66 63 57 54 52 54 54 53 57 50 54 57 60 61 61 60 58 60 65
22 16 21 25 22 23 24 20 22 17 16 17 18 14 14 16 15 19 27 32 31 31 34 55 84 77 78 75 74 70 66 64 60 56 56 63 62 59 57 53 55 59 58 59 60 59 60 64 63
21 18 18 26 24 15 19 19 16 17 17 16 16 18 13 18 19 25 28 30 29 30 34 76 84 79 78 75 76 72 68 64 63 60 61 61 64 67 65 65 64 60 61 62 62 62 62 60 60
21 21 27 29 27 22 11 12 16 18 19 18 18 20 18 20 23 25 29 29 28 30 35 52 84 77 77 75 76 73 70 65 62 60 61 61 67 69 68 69 68 63 61 62 60 62 65 65 64
30 23 29 28 25 22 19 14 14 16 17 17 18 19 20 19 22 29 32 30 29 33 40 47 81 84 82 79 77 75 73 70 66 61 60 62 72 73 71 70 68 62 64 65 64 61 62 68 69
35 31 32 25 23 24 21 14 14 17 18 17 16 19 16 19 23 30 32 29 34 35 41 41 49 64 90 85 83 80 77 75 70 66 61 65 75 72 71 70 67 68 68 70 67 65 64 63 66
32 31 36 29 27 26 19 18 15 19 19 15 15 18 18 18 21 28 33 34 35 40 41 40 42 47 52 54 84 84 81 80 74 73 78 83 77 76 69 73 73 72 71 70 70 69 68 68 69
31 37 37 30 28 24 19 22 19 20 21 18 15 15 15 16 18 25 32 37 39 43 43 42 41 43 43 43 60 81 84 83 84 79 82 77 49 46 51 70 77 78 76 74 73 73 73 77 81
39 39 34 23 21 23 20 23 24 25 22 20 17 14 14 14 15 17 21 24 34 39 42 42 43 44 45 44 47 50 46 51 49 46 46 42 39 40 51 69 80 82 82 82 78 76 78 80 58
39 40 27 24 22 23 24 25 22 27 29 22 20 17 15 16 16 15 16 17 24 30 35 41 45 44 46 47 46 43 44 44 42 43 43 43 44 44 46 47 49 52 75 60 57 56 56 49 50
40 32 29 26 25 28 30 25 26 26 26 21 21 20 19 19 15 15 15 16 22 29 32 37 41 48 47 46 49 43 44 44 42 43 44 45 45 48 47 48 51 52 51 53 54 52 51 51 49
42 32 27 27 25 28 28 30 30 29 23 20 19 19 20 19 16 14 16 23 24 29 33 35 38 44 49 52 47 46 44 45 42 47 47 47 50 51 51 51 51 52 52 54 53 53 50 49 48
41 34 31 28 28 28 32 30 28 26 22 20 18 16 17 17 18 20 22 24 28 29 33 33 35 38 43 48 50 48 46 44 46 48 50 51 53 55 56 56 54 55 53 54 54 56 54 51 49
42 45 36 32 29 29 29 36 32 24 21 16 14 14 17 22 24 24 28 28 28 28 30 31 32 33 40 47 50 48 48 48 49 50 49 51 52 54 56 56 57 63 58 53 52 48 48 48 46
52 58 62 37 32 29 33 44 25 19 16 17 17 18 23 27 26 28 30 29 29 28 32 37 37 35 39 44 48 45 46 47 49 48 48 51 52 56 56 58 56 45 44 43 42 41 42 43 43
78 73 65 45 30 31 34 37 23 19 17 18 16 16 22 27 28 30 29 29 29 31 34 39 39 39 42 46 46 46 46 46 49 49 50 44 41 42 40 36 34 30 35 34 35 34 35 38 38
75 70 52 54 33 33 35 35 26 19 19 20 16 18 23 26 30 30 30 30 32 34 37 41 42 43 44 45 46 48 45 38 34 33 32 30 29 30 32 31 30 30 34 35 36 36 37 38 38
54 60 48 42 31 32 36 32 25 22 21 22 19 21 24 27 30 31 30 30 32 36 40 42 43 44 45 48 48 44 43 40 37 34 30 29 27 27 31 32 31 33 34 34 32 33 37 38 35
63 56 44 42 32 33 31 31 25 24 24 22 19 21 25 29 29 32 31 30 30 33 38 41 46 47 43 42 43 42 40 37 36 36 31 28 26 26 26 29 29 29 32 31 32 33 36 34 33
56 62 53 45 35 33 34 40 35 28 22 21 19 21 24 27 30 31 31 32 33 36 40 41 41 41 41 41 40 40 38 37 34 33 32 30 24 21 22 24 24 26 30 33 33 32 38 41 36
81 56 37 41 43 48 35 37 25 24 23 23 21 24 26 28 28 31 32 34 37 41 42 38 38 37 35 34 34 34 34 36 34 32 30 27 25 21 19 21 24 24 25 30 33 26 35 39 40
79 54 39 45 46 55 51 45 29 22 24 25 22 26 28 29 32 33 35 38 40 43 45 39 36 35 34 32 31 33 34 33 31 28 26 22 21 20 21 20 24 24 26 28 31 34 34 37 33
63 56 55 47 45 56 37 39 28 25 22 20 23 27 30 31 33 34 37 40 44 47 45 44 37 36 35 35 33 34 34 30 30 27 23 20 18 20 21 21 23 24 26 28 30 32 36 37 34
71 79 81 71 65 47 30 36 28 20 19 18 25 28 30 32 34 37 39 40 44 47 45 39 37 37 34 33 32 32 32 29 27 23 21 18 17 20 22 22 22 22 26 26 28 30 33 31 33
81 67 46 57 52 39 34 41 26 20 18 18 23 27 30 33 33 37 38 40 44 45 41 38 37 36 32 31 29 27 26 24 21 20 19 17 17 18 19 21 20 20 20 21 23 27 28 28 31
83 72 38 38 34 36 36 28 22 22 23 20 23 28 32 33 35 36 38 40 43 43 40 40 37 35 31 28 25 22 20 21 21 18 17 18 17 15 18 20 20 20 20 20 21 22 24 25 28
69 41 53 41 50 46 35 30 29 25 24 24 23 28 31 33 34 36 37 39 40 40 40 38 36 34 30 25 22 20 18 17 16 17 17 18 17 17 19 19 18 19 18 18 20 23 23 24 25
83 67 46 33 35 38 40 33 21 22 21 24 23 25 30 34 35 36 36 39 40 40 40 37 36 32 28 24 20 19 17 16 15 15 16 16 17 17 18 18 18 18 18 18 19 21 22 22 26
58 59 40 42 48 36 36 32 19 20 23 23 22 25 28 33 34 34 36 42 41 40 38 36 36 31 28 22 18 18 18 17 16 15 16 15 16 17 18 18 18 18 18 19 20 21 22 22 25

GFSSGP_sfc_rhum_006.txt.gz
RH
50 28 24 39 49 43 41 26 28 34 31 22 20 22 24 23 25 50 47 38 38 51 64 74 82 80 77 75 73 69 65 61 59 52 50 49 51 48 57 58 56 53 54 60 60 59 60 61 67
47 33 34 42 43 43 32 21 29 26 22 21 21 22 24 25 26 41 48 38 36 47 61 65 85 80 78 77 74 70 67 62 58 54 59 54 53 53 54 54 53 59 59 60 61 60 60 62 64
40 23 40 48 41 34 35 28 26 20 20 23 23 20 21 28 30 38 43 38 36 42 52 72 85 82 79 76 73 70 67 65 60 55 55 62 61 62 56 55 53 61 60 60 60 60 59 60 61
34 35 32 41 40 30 26 21 20 20 20 21 21 26 26 31 35 38 38 36 39 43 75 86 85 83 82 78 76 72 69 66 64 60 60 60 65 67 67 61 66 65 63 62 61 61 63 64 62
33 40 46 44 37 30 23 16 20 23 22 23 22 26 31 32 32 36 38 34 39 45 74 82 85 83 82 80 78 74 71 66 63 60 60 60 70 70 68 68 67 65 64 62 61 56 61 65 68
46 40 48 45 32 24 26 21 20 20 18 23 27 25 36 34 39 44 38 41 37 47 58 77 84 82 84 81 79 76 74 70 69 62 58 60 70 72 72 71 70 66 64 66 64 63 62 64 67
51 51 49 41 33 26 28 19 21 18 24 23 23 28 31 31 37 39 43 39 45 47 53 64 77 82 88 86 84 81 79 77 74 69 64 71 73 71 71 72 69 68 67 68 72 69 67 65 65
45 46 47 42 40 36 24 24 22 22 25 21 21 28 31 31 33 38 47 46 49 52 52 58 64 69 81 84 85 84 82 81 79 78 79 83 82 79 76 78 77 72 72 70 68 69 70 71 70
43 60 54 45 39 33 23 27 22 24 28 24 22 22 22 20 28 37 44 52 54 52 55 54 56 62 63 66 79 85 83 84 83 82 82 84 84 69 72 76 77 76 74 74 73 73 74 80 83
52 64 52 32 29 28 24 26 26 29 30 28 24 20 19 19 22 28 33 44 54 56 56 56 56 58 59 50 80 79 74 84 81 75 80 82 66 69 60 73 74 76 81 83 77 77 80 84 82
51 62 41 31 26 25 27 30 26 32 36 31 28 27 27 29 28 23 23 25 38 48 54 54 59 59 61 61 69 69 69 71 66 60 61 60 58 67 74 78 78 89 86 89 79 88 87 87 76
53 43 39 37 30 30 34 30 32 31 32 29 28 27 27 27 28 22 23 26 34 42 49 53 56 62 63 66 69 66 64 66 66 62 58 65 71 72 71 73 74 76 76 78 76 77 67 65 64
50 43 35 32 32 30 30 36 36 33 30 27 26 26 28 27 27 23 23 32 38 42 45 50 55 64 66 67 68 67 65 64 64 66 63 68 73 73 74 75 75 68 67 67 67 65 63 59 57
48 44 44 37 31 30 33 35 35 33 28 28 27 27 22 22 27 31 28 36 41 43 46 46 48 57 63 70 69 68 66 62 66 65 66 66 74 78 78 72 70 71 69 66 66 64 59 58 59
49 67 48 45 36 32 32 40 39 32 28 29 28 20 25 27 31 37 39 39 39 42 40 40 42 49 61 65 68 68 66 64 66 63 65 62 66 75 69 70 69 65 68 62 60 57 60 62 59
74 69 86 50 38 36 37 50 36 29 29 29 21 25 30 33 36 37 40 42 42 43 47 50 40 47 56 65 67 63 60 66 68 68 62 63 64 68 50 58 52 51 52 52 52 53 54 56 55
79 83 83 68 42 37 39 46 37 30 27 26 24 23 31 36 38 40 42 43 42 45 51 54 52 50 58 64 62 60 63 54 44 41 45 43 42 44 50 50 49 47 55 55 53 53 59 53 50
80 91 67 73 52 41 41 42 37 32 27 26 26 24 32 36 40 41 40 45 46 51 56 59 60 62 64 64 64 50 46 47 51 48 44 40 40 41 49 49 47 48 52 54 47 46 45 52 55
59 60 73 53 47 45 44 40 38 32 32 32 30 30 34 40 41 42 44 49 53 58 58 62 64 63 66 73 58 57 61 55 52 46 38 37 36 39 43 48 44 44 48 45 39 44 47 51 49
65 75 80 54 45 47 42 41 36 33 30 30 30 29 38 43 44 44 44 48 53 60 63 66 64 58 57 59 59 58 56 56 53 50 43 35 31 32 29 38 40 38 47 43 44 46 55 53 51
63 75 79 69 46 52 44 48 40 31 27 30 29 28 36 40 44 46 48 52 56 62 61 57 59 58 55 54 50 54 59 56 54 53 49 38 29 29 31 34 36 38 44 49 47 48 50 62 53
68 57 64 78 68 77 45 68 43 35 36 34 33 34 38 41 42 44 46 53 60 64 61 56 54 55 54 53 56 53 54 56 54 50 44 39 30 29 29 32 36 38 44 44 46 38 49 55 59
62 54 68 82 84 84 53 62 45 35 40 34 31 36 39 41 43 46 52 54 58 63 62 56 51 49 48 46 48 53 53 52 48 43 36 31 32 31 30 32 35 37 44 42 42 43 46 54 54
52 65 77 92 90 95 76 56 51 38 32 31 31 38 38 41 45 49 54 57 64 66 62 57 52 52 50 49 48 50 49 47 44 38 37 33 35 37 32 30 33 34 38 40 43 40 43 47 48
69 80 97 99 99 83 46 55 53 30 26 26 29 37 39 44 48 53 59 64 65 65 61 54 52 50 47 47 45 44 42 38 35 34 33 29 31 35 32 32 31 34 34 36 36 40 42 44 44
82 86 99 97 98 61 39 56 44 26 24 26 28 35 39 44 49 53 57 62 66 61 56 52 49 47 44 41 39 37 35 37 33 29 30 28 29 29 28 30 29 28 29 31 32 39 42 34 45
91 98 79 99 39 57 55 43 32 30 29 31 34 38 42 44 48 52 56 61 63 59 55 53 48 45 40 37 33 30 29 29 29 26 27 29 26 19 26 28 27 28 28 28 29 34 34 35 38
88 69 99 87 61 71 58 49 45 38 36 32 37 41 43 44 47 49 53 59 59 57 57 51 46 42 38 34 30 26 24 23 23 24 23 24 24 25 26 26 26 27 27 27 28 34 34 31 31
98 98 93 80 59 59 66 51 34 34 33 33 36 37 41 43 46 49 52 56 57 56 56 51 46 40 36 31 28 26 24 23 22 23 23 23 24 24 25 25 26 26 27 26 28 30 28 29 29
81 77 77 59 67 56 58 51 28 32 32 32 32 34 38 42 45 48 53 56 58 58 53 51 46 40 35 28 26 26 25 24 23 23 23 23 24 24 25 26 27 27 28 29 30 30 30 29 32

GFSSGP_sfc_rhum_009.txt.gz
RH
66 50 45 37 38 49 49 36 35 33 31 30 27 28 30 30 32 52 52 64 77 86 83 80 83 81 78 78 72 70 66 63 56 53 52 52 50 52 58 58 53 54 58 58 59 58 59 61 65
77 51 38 44 41 46 42 34 33 27 28 27 25 26 29 34 44 53 53 50 68 77 81 80 85 82 79 77 74 70 67 62 58 54 58 48 51 49 48 52 58 60 59 58 60 58 57 60 62
53 47 42 50 53 37 37 35 30 22 21 27 27 27 31 42 45 51 52 46 66 71 72 77 86 83 80 77 74 72 70 64 61 58 56 62 61 63 56 53 60 62 62 60 60 60 60 58 58
42 43 40 46 45 38 33 21 24 24 21 23 28 32 39 40 45 48 44 43 56 75 72 87 86 85 83 78 73 71 70 68 64 62 61 61 66 68 70 62 67 66 66 63 61 61 62 64 65
46 53 56 59 47 38 28 24 24 27 26 26 27 33 41 43 46 46 43 43 73 90 84 84 86 85 82 78 75 73 69 67 64 63 62 62 72 70 70 66 68 68 67 65 63 58 59 63 66
57 54 67 65 50 35 30 25 22 24 25 24 29 31 46 52 48 51 42 47 74 83 82 82 87 86 85 82 79 76 72 68 67 61 62 61 69 71 73 72 70 68 65 65 67 66 66 63 65
66 70 70 61 50 44 29 22 19 23 31 30 28 32 43 49 44 45 48 46 64 74 86 88 87 88 88 87 85 82 79 77 72 69 65 73 73 71 70 75 72 69 67 67 71 71 68 68 67
62 65 70 64 52 49 34 26 23 22 27 28 27 31 40 38 40 48 47 47 57 70 76 92 94 91 95 94 89 86 84 84 82 79 79 81 81 79 77 80 78 71 72 73 70 69 70 72 73
64 81 76 66 52 42 33 29 27 26 30 32 28 28 25 32 42 52 57 59 60 60 72 80 87 86 90 88 86 87 85 85 84 82 82 85 89 81 80 84 80 78 73 72 72 73 75 82 85
74 87 71 49 43 40 34 32 28 31 38 38 32 26 27 31 44 50 54 62 63 66 64 68 75 78 80 65 88 94 86 93 93 88 89 89 89 78 71 80 80 74 77 81 77 78 83 87 94
73 76 59 47 39 36 34 35 32 39 42 37 35 31 34 27 28 25 30 52 58 62 65 64 68 70 73 78 87 91 89 92 91 88 86 87 69 72 72 82 83 82 86 89 84 85 91 89 84
81 60 55 51 45 43 42 34 37 37 37 33 34 33 34 31 31 26 26 27 49 61 61 63 64 70 71 74 81 81 80 84 81 76 71 74 80 79 78 81 83 79 76 75 73 72 67 67 67
73 58 50 46 45 41 38 40 38 40 35 32 30 31 33 34 32 29 29 35 46 54 62 63 68 71 73 76 75 76 74 72 73 72 69 77 81 72 77 81 79 73 71 70 69 65 65 67 68
59 58 52 46 45 41 40 40 43 39 36 35 33 34 35 31 28 34 33 41 50 50 57 61 62 71 73 79 78 76 68 63 72 66 66 66 79 84 78 72 69 64 58 56 61 59 61 63 64
61 72 60 60 48 51 46 46 44 38 36 37 36 35 28 35 35 40 46 44 48 50 47 52 60 68 73 74 76 69 72 65 67 66 66 64 70 75 62 45 47 56 59 54 53 50 58 56 51
77 79 88 61 58 50 47 61 40 36 40 40 38 36 33 38 36 46 43 43 46 49 53 50 43 63 74 77 75 66 66 64 57 42 38 38 46 49 47 50 54 57 59 55 54 58 56 58 60
92 86 91 79 56 54 48 56 43 38 38 41 39 30 40 43 47 48 44 46 44 57 57 58 53 61 75 75 59 47 38 39 40 39 40 44 42 46 51 54 52 52 58 53 49 50 54 57 55
73 91 67 85 65 60 64 57 45 39 38 41 34 31 45 46 47 46 44 49 52 61 65 67 65 76 68 48 44 42 42 46 41 41 40 42 41 41 48 49 44 49 51 49 46 45 48 56 55
65 66 66 62 57 62 57 59 46 39 43 40 36 40 50 51 49 48 50 61 65 70 73 75 73 72 56 55 54 52 62 51 46 39 36 36 37 38 40 46 42 47 48 47 44 48 53 56 56
73 87 86 66 62 74 64 58 48 42 39 41 39 43 51 54 52 52 56 68 71 79 80 78 74 70 60 58 62 57 51 56 53 49 36 32 32 33 33 40 41 44 49 47 48 51 58 62 59
76 89 82 76 65 67 76 74 56 44 39 37 38 37 46 49 52 55 64 72 71 72 71 67 63 58 55 51 50 54 60 61 60 52 44 33 30 33 36 38 40 46 51 52 49 51 53 65 61
80 57 59 66 72 89 68 83 62 48 42 38 40 45 51 51 51 56 62 69 70 73 69 67 63 58 56 52 55 53 56 58 58 55 46 37 31 32 35 37 39 42 48 45 47 40 51 55 58
70 52 57 64 80 84 76 89 56 44 44 40 47 46 48 48 49 56 65 66 69 66 64 61 58 56 56 57 55 57 57 56 55 46 41 36 35 33 34 35 38 39 45 43 42 42 46 52 54
58 72 72 75 80 98 85 85 68 46 39 36 41 46 47 49 53 60 67 68 70 66 62 61 56 57 55 55 54 52 50 46 44 40 39 40 42 40 34 32 35 36 39 41 44 42 42 43 49
74 80 94 99 98 88 72 94 76 43 37 34 37 45 47 49 57 65 69 70 70 66 63 57 54 55 51 48 46 44 42 38 36 36 34 33 34 36 34 34 33 36 35 37 38 39 40 42 46
83 77 86 94 86 68 78 99 60 40 34 30 39 43 47 54 59 66 70 73 70 64 60 57 54 51 47 44 41 39 36 38 35 32 32 32 32 31 31 31 31 30 30 32 33 40 42 36 46
79 89 65 98 90 88 91 78 53 38 37 39 45 46 51 57 60 65 68 71 71 65 60 55 51 47 42 37 34 32 32 30 31 30 31 32 29 23 28 29 29 29 30 31 32 36 37 39 43
62 60 92 99 98 97 85 58 49 43 43 46 49 50 53 56 58 62 65 69 68 63 60 54 48 44 40 34 30 27 26 27 27 26 26 25 26 26 28 28 28 29 30 31 32 38 39 38 41
92 95 74 76 84 98 97 62 42 38 40 46 48 48 52 55 55 59 65 63 64 64 56 54 47 40 35 32 28 27 26 25 25 25 25 25 26 26 27 28 30 31 32 32 34 36 35 36 38
72 80 61 74 86 96 60 52 40 38 37 41 45 46 48 51 54 59 63 64 62 61 58 51 46 39 35 31 29 28 27 26 26 26 26 27 27 28 29 31 32 32 34 35 37 39 39 40 44

GFSSGP_sfc_rhum_012.txt.gz
RH
74 61 57 39 35 49 52 41 38 30 31 31 28 31 32 36 34 46 69 74 85 94 88 82 84 82 79 76 72 70 67 60 58 59 58 54 50 55 58 57 54 57 57 56 58 58 60 61 64
84 56 44 48 40 44 42 34 35 31 26 25 28 28 32 48 56 59 76 84 83 88 87 83 85 82 79 75 73 70 66 62 57 55 52 52 51 58 54 52 57 60 58 57 59 57 56 59 62
50 50 47 53 57 47 38 31 27 25 23 29 32 30 40 48 57 57 65 78 82 88 84 83 86 84 80 77 73 70 67 64 60 60 60 63 59 56 54 48 61 62 62 60 60 60 62 61 59
50 48 45 52 53 43 37 34 23 25 21 26 31 36 44 46 46 51 64 74 85 90 89 89 88 85 84 79 74 72 69 65 62 60 62 64 68 70 65 62 66 67 67 63 62 61 62 65 67
52 57 63 64 53 43 40 29 24 27 27 27 27 35 47 46 56 51 59 70 79 83 87 88 87 86 84 76 74 72 70 68 63 62 63 66 69 70 70 70 69 68 67 64 63 63 61 63 65
63 60 74 70 55 42 40 32 24 24 27 26 31 42 48 52 54 52 51 76 76 83 85 86 89 87 83 79 77 74 70 68 65 63 64 66 68 71 72 70 69 68 66 65 67 67 69 68 66
72 74 74 71 59 53 41 33 24 22 30 32 32 45 47 58 49 49 51 80 87 84 91 94 91 88 88 85 84 81 75 74 72 68 67 71 75 72 72 75 72 71 68 68 69 71 68 68 70
68 71 80 72 63 56 40 34 27 25 25 29 27 42 46 38 45 52 55 80 90 92 90 96 96 93 95 94 89 87 84 83 81 80 79 84 82 79 78 83 80 72 72 74 73 69 70 72 74
69 90 90 70 61 48 40 39 29 26 31 32 30 29 26 33 52 61 65 70 84 87 93 95 94 96 96 95 91 89 88 88 86 84 85 86 91 86 83 86 83 82 77 72 72 73 76 83 86
87 95 80 60 52 49 43 38 34 34 38 42 39 34 32 46 57 59 64 65 74 82 88 91 93 92 96 80 93 96 90 96 94 92 91 94 92 86 72 84 86 82 80 81 77 78 84 88 95
85 88 66 57 47 46 47 45 35 36 42 36 37 40 35 41 47 55 59 65 61 66 75 81 88 84 90 78 95 99 98 98 97 93 93 93 86 83 87 87 86 86 85 89 85 86 83 84 87
84 72 63 61 54 56 59 44 46 40 37 33 35 36 36 34 34 35 39 51 60 68 67 71 78 84 86 85 91 92 92 97 97 93 90 94 85 85 85 75 76 78 78 77 74 65 55 57 67
84 70 61 60 58 54 50 54 49 44 36 36 35 34 36 36 38 36 32 28 36 64 66 71 72 76 78 87 89 91 92 91 86 83 78 82 87 82 81 83 75 66 55 51 51 60 60 59 58
63 60 62 59 56 53 55 52 50 41 38 39 37 36 38 37 36 37 34 39 53 60 64 68 72 76 77 80 85 83 76 68 74 71 71 71 82 88 63 49 53 50 49 50 56 58 59 59 58
66 81 73 64 63 63 52 61 58 44 39 40 40 38 39 38 32 33 36 44 50 60 68 70 73 78 80 81 81 73 67 69 70 56 50 58 60 43 45 47 52 58 57 52 52 50 53 55 50
84 86 94 66 61 63 58 76 52 43 44 44 43 43 44 37 38 48 48 49 54 55 57 61 61 80 83 82 72 66 64 50 42 40 41 41 44 44 46 54 58 57 52 51 49 54 51 55 56
92 96 87 78 57 65 66 66 48 44 47 46 44 45 42 44 51 51 48 49 52 57 59 55 64 82 84 74 52 43 41 40 39 39 39 41 46 46 47 50 54 51 50 50 47 47 55 56 56
76 90 84 76 72 67 67 68 58 48 46 46 42 44 41 48 50 49 47 50 57 64 65 64 66 84 56 50 42 41 40 39 39 45 42 41 41 42 46 45 49 48 48 50 47 47 52 57 60
86 81 76 72 55 62 63 67 57 52 51 51 47 48 41 52 51 49 51 58 72 78 80 79 85 59 53 52 49 44 44 41 46 39 37 37 37 38 42 46 46 50 49 50 46 52 56 60 63
79 85 89 72 57 57 68 76 63 49 50 44 44 45 52 59 57 56 66 78 79 85 89 91 78 64 59 56 59 56 47 51 48 42 35 34 36 36 36 43 47 48 50 47 49 54 56 64 65
84 88 78 75 67 62 60 62 61 59 49 44 44 44 50 52 57 63 81 84 89 89 86 79 71 65 59 52 46 47 48 58 52 46 40 36 35 38 40 41 45 49 51 51 51 52 52 60 62
90 68 70 74 80 89 68 84 67 60 60 50 45 48 52 58 59 67 79 84 84 83 79 70 63 59 54 48 47 43 46 56 60 52 42 37 34 37 38 40 42 44 48 44 47 41 51 53 54
80 61 65 70 81 88 75 91 70 62 61 56 44 48 51 53 56 69 74 74 76 76 77 73 65 62 65 60 54 59 60 62 59 48 40 36 36 36 36 37 38 40 46 43 42 43 43 51 50
65 73 74 77 88 98 70 76 66 67 55 53 48 48 53 54 62 71 74 71 73 70 69 67 62 65 63 59 60 58 56 51 48 47 46 44 42 41 35 33 36 37 40 41 44 42 41 43 46
65 78 95 100 99 85 59 80 66 55 43 40 41 51 54 54 66 73 72 68 67 67 67 62 60 63 60 58 55 51 46 39 36 38 41 37 36 37 34 34 33 36 36 38 40 40 40 42 45
75 73 89 93 99 75 72 89 75 55 44 44 44 45 53 60 64 69 67 64 61 62 62 59 55 55 50 48 45 40 37 40 38 35 35 35 34 34 32 32 31 31 32 34 36 43 44 39 47
82 88 61 78 83 92 88 86 71 63 55 44 45 52 57 61 68 70 68 64 62 63 61 56 52 49 43 40 37 36 35 34 34 32 32 33 31 25 29 30 30 32 32 34 35 40 40 42 45
70 64 90 86 99 92 86 89 74 63 49 56 56 57 58 63 70 71 66 65 63 64 62 55 47 42 39 35 32 31 30 30 29 29 28 27 28 28 29 30 32 33 34 35 37 42 44 43 46
85 80 74 66 80 98 84 80 52 52 48 54 56 54 61 67 70 70 67 66 67 64 58 54 46 39 35 31 28 28 28 28 27 26 27 27 28 29 30 31 34 35 36 37 39 41 41 41 45
64 68 64 76 72 74 98 75 39 38 43 50 56 53 60 62 67 70 70 71 66 60 56 51 44 37 34 30 29 30 29 28 28 28 28 29 29 30 32 34 36 37 39 40 43 45 45 46 47

GFSSGP_sfc_rhum_015.txt.gz
RH
79 72 52 39 36 51 52 42 37 30 35 34 32 33 32 44 36 46 72 80 90 90 95 87 85 84 78 75 73 70 65 61 60 62 68 55 52 49 55 56 55 56 56 55 57 60 62 63 66
77 55 45 51 49 48 44 36 36 29 26 28 34 34 37 55 60 69 78 85 88 94 94 90 87 83 79 76 74 70 65 59 60 58 58 54 51 55 54 53 55 57 58 58 59 59 57 58 61
56 45 46 55 60 53 42 34 33 24 21 30 34 38 46 58 62 65 65 88 93 95 95 88 87 83 80 77 74 70 67 61 58 58 56 53 53 53 53 54 59 61 62 61 61 61 63 64 63
53 50 49 56 58 49 36 41 34 24 21 28 33 40 46 48 55 54 82 88 95 97 95 91 88 85 84 78 75 71 67 64 60 62 64 64 68 65 60 63 67 66 66 63 62 62 61 63 66
56 60 66 69 60 50 43 37 33 28 24 29 31 40 52 45 59 70 85 86 93 96 95 95 89 86 83 79 75 73 69 66 62 61 64 66 68 68 70 70 69 68 66 65 64 64 64 64 64
66 63 79 69 56 48 46 37 38 30 25 30 32 48 47 49 60 68 81 88 81 89 89 94 91 88 86 80 77 75 72 70 63 62 64 66 68 72 71 72 70 69 67 66 68 68 69 70 69
75 74 78 75 62 55 45 39 44 28 30 34 29 47 48 48 50 57 74 89 85 85 92 97 96 92 88 84 82 80 74 73 70 68 68 71 75 73 74 75 72 71 70 68 70 71 68 67 70
74 76 84 79 64 56 45 40 35 28 26 30 32 45 52 40 46 57 69 94 94 96 94 97 98 95 95 93 88 86 82 82 80 78 77 83 83 80 79 84 81 73 72 72 73 71 70 73 75
71 90 90 70 67 50 47 46 38 34 34 35 35 37 32 38 56 63 82 93 97 95 97 97 98 97 97 96 91 90 88 87 86 85 85 88 92 89 85 87 85 81 77 75 73 74 76 83 85
90 96 77 67 59 53 47 45 40 39 39 42 40 35 44 56 63 62 71 86 94 97 98 98 97 97 97 86 94 96 94 96 95 94 92 95 93 88 75 86 87 81 83 83 78 79 81 88 95
89 87 67 66 56 51 55 52 45 46 46 38 37 40 44 54 65 63 64 71 84 90 94 96 97 96 97 92 98 99 99 98 97 94 94 94 90 93 93 93 87 91 86 83 84 84 68 68 72
86 77 71 68 61 64 67 56 53 47 41 36 36 40 41 42 52 57 59 61 70 78 83 86 94 96 96 94 97 98 99 98 98 97 94 96 96 88 90 79 79 80 79 61 54 56 57 52 54
87 81 66 64 67 66 62 65 65 56 44 38 37 39 40 40 38 39 42 42 53 68 74 81 88 92 92 95 98 98 98 98 96 96 93 92 90 83 80 64 52 51 50 48 55 56 53 53 52
72 68 66 63 64 64 65 62 63 58 47 44 42 41 40 41 41 44 41 38 36 37 64 74 80 86 88 88 96 94 97 94 87 82 79 74 82 66 50 50 50 49 49 53 52 52 55 52 52
72 84 75 71 66 68 63 66 65 55 53 49 46 44 41 41 40 38 33 34 40 52 58 76 76 80 84 88 90 80 82 76 68 62 64 62 44 44 48 50 51 51 52 46 46 48 50 49 47
84 89 96 70 64 65 64 72 60 51 52 51 49 49 45 45 39 40 40 44 52 61 76 80 68 81 85 86 74 72 61 47 46 45 44 42 42 42 46 55 56 49 49 47 46 54 52 51 55
87 94 94 77 62 67 74 72 57 49 52 54 52 50 45 46 43 45 51 54 58 63 72 79 84 85 88 77 54 48 43 42 41 41 42 40 40 38 41 50 52 48 49 50 47 50 59 56 50
88 98 91 87 72 70 73 68 58 58 58 55 50 46 51 47 42 48 53 57 58 65 65 67 91 86 60 50 46 42 41 41 40 40 39 37 41 41 48 51 48 47 50 51 47 49 53 62 61
91 94 94 77 58 73 77 72 60 58 61 58 61 53 52 44 50 53 54 57 68 76 74 73 88 64 54 53 50 46 45 40 38 35 33 37 40 41 45 51 50 50 50 51 47 53 56 60 63
81 92 88 78 64 67 67 70 59 58 55 58 54 53 51 51 56 54 57 72 79 83 85 93 74 64 59 55 58 51 40 40 37 41 38 39 39 39 40 48 50 47 47 47 48 54 54 58 65
86 93 83 81 64 62 66 60 41 39 46 51 52 48 45 48 54 61 70 83 90 92 95 87 74 68 60 51 45 42 38 39 38 42 42 40 40 42 42 44 47 48 50 51 50 52 50 55 54
83 73 75 77 85 94 72 66 48 55 48 47 53 52 51 55 55 65 84 89 93 94 93 78 68 62 52 46 41 36 41 42 51 48 42 40 38 39 41 42 42 45 48 45 46 43 51 54 52
73 64 72 78 91 94 80 93 74 54 54 55 65 55 53 56 56 66 80 83 91 91 85 76 67 60 59 48 41 45 49 58 57 45 39 37 39 37 38 38 39 41 47 44 42 44 43 51 51
67 77 82 79 87 96 72 81 56 44 59 62 58 57 54 58 59 74 88 85 88 87 81 72 66 70 62 58 58 50 54 50 44 46 44 43 42 42 36 35 38 38 41 42 45 42 41 43 46
64 86 98 98 98 86 63 74 60 49 48 48 51 54 56 57 72 83 85 83 81 81 78 71 66 70 65 62 59 57 52 44 43 44 47 41 37 38 35 35 34 36 36 38 40 41 42 43 46
79 77 91 91 95 87 54 81 58 51 37 33 35 51 60 60 67 76 80 78 76 74 72 68 67 66 62 59 55 49 43 45 43 41 40 36 35 35 33 32 32 31 33 36 38 45 46 42 50
99 98 71 77 66 96 86 79 74 67 68 63 57 57 64 64 69 75 77 72 71 69 67 64 62 58 54 48 43 41 39 38 36 34 34 36 34 27 30 31 31 33 35 37 39 43 44 46 48
73 66 94 98 97 90 75 89 70 71 55 51 57 52 60 63 72 76 71 68 67 66 64 59 52 49 44 39 36 35 34 33 33 32 30 30 29 29 30 32 34 36 38 39 41 46 48 47 50
87 85 74 73 86 94 89 56 71 60 50 58 60 61 63 68 74 75 68 66 67 64 58 52 44 39 37 34 33 32 32 30 28 28 29 29 29 30 31 34 37 38 40 41 45 46 44 47 50
64 71 74 94 88 72 87 72 53 59 49 53 61 63 69 76 75 70 69 70 64 61 55 49 42 36 33 31 30 31 31 29 29 29 30 30 30 33 35 37 39 40 43 46 47 48 49 50 53

GFSSGP_sfc_rhum_018.txt.gz
RH
75 67 48 39 43 53 61 46 55 35 40 36 35 30 32 43 40 45 73 85 88 86 91 87 84 82 77 74 72 69 64 64 62 65 69 59 55 51 54 57 55 54 56 56 59 61 63 65 66
76 54 45 52 52 52 46 44 40 32 28 26 32 37 40 45 62 70 79 82 90 90 96 94 86 84 79 75 74 69 64 60 60 66 62 52 52 52 51 52 54 57 59 58 59 59 58 58 59
56 42 45 55 63 58 44 39 36 32 25 30 34 40 47 58 62 66 74 87 96 98 96 94 88 84 79 77 74 71 64 60 60 57 58 55 53 59 55 54 59 61 62 61 60 62 64 65 65
55 51 52 57 60 52 38 39 41 33 26 30 36 40 45 50 61 61 84 95 97 99 96 92 89 86 83 78 75 71 67 62 58 63 63 62 59 56 55 59 66 66 66 63 62 62 61 61 64
58 63 66 72 64 54 47 42 40 39 34 29 32 38 48 49 63 85 94 93 96 99 97 96 89 85 81 79 76 72 68 65 61 63 64 65 65 66 65 68 69 68 66 64 64 65 66 66 65
69 65 78 72 58 54 47 43 43 36 32 26 38 50 46 50 65 88 92 95 93 97 97 96 90 88 85 81 78 74 70 67 63 62 64 64 68 73 70 73 71 69 66 66 67 68 68 69 69
76 76 78 77 63 58 47 43 46 41 31 34 37 45 46 50 58 75 90 92 90 94 96 98 97 93 90 86 82 80 74 74 68 67 67 71 75 74 74 73 71 70 68 68 70 71 70 69 71
79 74 85 80 67 60 45 43 39 30 29 31 37 46 59 43 58 65 78 92 92 95 96 98 98 97 96 94 87 85 82 81 79 77 78 81 84 81 77 85 81 73 72 72 74 72 72 75 77
75 91 93 79 70 59 50 50 41 36 38 39 38 44 35 46 65 75 89 96 97 95 97 98 99 98 97 96 92 89 86 85 85 83 84 88 93 90 87 87 86 79 76 76 75 77 79 84 88
90 97 80 68 62 57 51 53 48 44 47 46 40 37 47 61 71 69 81 92 98 98 98 99 99 99 98 90 96 96 94 96 95 94 92 94 92 90 78 86 86 79 82 78 78 78 73 72 81
90 90 74 71 65 61 61 58 50 55 57 44 40 40 40 65 69 69 72 84 92 94 97 98 99 98 98 96 99 99 99 99 98 94 94 94 92 95 94 95 90 93 88 83 63 52 51 57 60
89 81 80 74 67 71 76 66 68 55 48 40 45 41 42 43 64 67 68 70 78 91 95 95 98 99 98 98 99 99 99 99 99 97 94 96 98 93 94 93 86 68 52 50 51 59 51 50 49
88 85 72 67 65 70 68 72 74 70 55 48 47 46 43 43 43 49 60 60 70 74 84 93 97 98 98 98 98 99 99 98 97 97 95 96 95 88 79 52 50 49 46 47 52 52 46 47 45
78 76 73 66 65 68 70 66 70 59 59 56 51 48 46 46 43 46 43 41 45 53 65 82 93 94 96 95 97 98 98 97 97 90 86 77 83 63 53 49 48 46 43 41 49 49 47 47 46
80 88 81 76 71 68 66 71 73 53 58 58 58 54 48 45 45 44 41 40 39 40 41 82 86 91 93 91 93 92 89 84 90 77 76 64 49 48 51 48 45 44 46 42 47 48 46 44 41
81 81 93 72 72 66 66 72 59 49 54 59 56 60 55 46 43 45 42 41 40 48 65 86 73 89 90 91 92 82 78 65 61 53 47 43 44 45 46 46 44 43 47 46 49 56 50 47 50
78 91 84 74 63 69 80 82 67 61 63 67 66 64 57 51 46 47 45 46 52 58 72 89 89 91 92 88 74 56 62 52 52 45 44 40 39 40 42 42 48 48 48 49 46 50 60 54 49
87 91 84 79 71 72 78 78 65 57 57 59 64 64 60 56 48 43 45 54 58 68 79 92 95 94 72 57 63 47 47 46 48 41 38 35 37 39 44 48 47 47 48 48 45 47 52 65 62
83 95 95 83 68 75 73 70 61 58 63 63 59 56 62 58 48 47 52 59 63 76 78 95 94 72 60 58 67 52 50 43 39 36 34 34 36 44 49 52 48 49 48 47 45 50 52 57 64
74 81 82 72 68 73 71 69 54 52 56 56 67 61 64 59 55 51 57 63 70 76 80 96 82 67 63 59 62 58 40 39 38 39 36 38 40 43 44 48 48 44 47 46 48 50 49 52 63
89 91 88 85 69 65 69 62 40 32 34 38 40 41 46 57 58 54 60 66 82 86 90 93 78 70 62 53 52 42 34 35 37 37 40 44 42 43 45 45 46 46 50 52 51 50 48 52 51
91 69 75 83 92 92 71 73 49 47 43 33 34 41 52 58 58 55 60 79 88 91 94 86 74 65 55 49 54 39 37 34 38 38 44 44 41 43 42 42 43 45 49 45 45 42 51 51 52
75 68 80 85 96 96 86 94 72 59 55 50 58 64 54 56 53 57 62 64 90 96 96 86 74 63 57 50 44 40 38 40 38 38 41 40 41 40 40 39 40 43 49 45 42 43 43 52 50
68 77 81 85 86 97 74 85 56 46 39 42 46 48 57 60 60 58 69 91 95 97 92 80 69 65 58 45 41 42 39 34 37 43 42 45 45 44 38 37 39 40 42 42 45 42 41 44 47
75 99 98 98 98 88 67 79 58 44 43 43 43 53 57 65 66 81 92 92 95 95 88 77 70 69 53 50 48 41 35 31 35 40 43 41 40 41 37 34 34 37 39 41 42 42 43 45 47
84 81 94 94 95 89 67 85 68 48 38 35 32 45 58 67 72 82 84 86 92 92 83 74 71 68 56 52 55 50 42 43 43 47 43 39 38 38 34 34 33 34 36 38 40 48 48 45 52
98 98 72 86 80 96 84 75 53 58 62 62 53 45 54 68 79 81 87 87 89 87 80 74 70 67 62 56 50 47 44 42 43 39 37 39 36 30 32 33 34 36 38 39 42 47 47 50 52
84 79 98 98 97 93 83 68 64 53 59 59 54 70 64 70 78 86 89 87 84 80 77 71 63 59 53 48 42 40 38 36 35 34 35 32 31 32 33 35 36 38 40 42 45 49 50 50 53
94 96 97 91 95 92 89 61 62 66 65 59 61 52 59 72 77 86 85 79 74 70 66 60 52 44 43 38 35 34 34 32 30 30 32 31 32 33 35 37 39 40 43 45 47 48 46 51 54
62 72 74 83 88 90 90 57 54 70 66 60 75 68 80 76 84 83 79 74 69 64 58 53 46 40 37 34 32 32 31 30 30 31 32 32 34 36 38 40 41 43 46 48 48 48 51 54 58

GFSSGP_sfc_rhum_021.txt.gz
RH
64 54 38 39 39 40 42 36 31 29 28 25 24 24 26 27 31 35 62 65 66 63 70 66 83 82 78 73 72 69 67 65 62 65 68 62 56 50 52 57 55 55 56 56 61 62 64 67 67
60 41 42 45 41 43 38 31 31 27 24 22 26 30 27 32 44 48 56 65 70 66 69 64 86 84 79 75 73 69 65 63 62 71 67 57 53 49 51 55 56 58 59 58 58 59 58 59 59
43 35 40 44 48 44 39 30 27 29 26 22 26 30 30 38 46 45 53 67 73 69 74 71 87 84 80 76 74 69 64 62 62 66 61 55 54 54 52 54 58 62 61 61 60 62 64 65 66
46 43 42 43 46 43 33 24 30 31 25 22 25 29 33 36 44 46 64 75 76 80 78 81 88 85 83 80 75 71 64 61 60 59 60 56 56 58 57 60 65 66 64 62 62 63 61 62 64
49 49 49 54 48 41 36 33 32 32 28 23 24 26 33 39 53 62 74 80 79 86 80 74 88 86 84 79 76 72 68 62 61 64 62 61 64 63 66 70 69 68 65 64 64 66 67 68 69
56 50 55 55 48 43 37 34 32 30 26 22 26 33 32 38 52 75 78 78 80 84 82 79 88 87 85 82 78 74 69 66 62 65 63 62 68 74 68 70 70 69 66 65 66 68 69 68 68
63 60 59 56 49 46 38 33 32 31 29 23 26 31 29 34 49 74 76 77 79 82 84 81 76 81 89 86 83 80 74 72 69 68 67 71 74 76 74 74 71 70 67 69 70 72 71 71 73
64 58 69 62 50 45 36 37 31 27 23 23 27 29 28 32 52 70 73 76 78 82 81 82 83 79 77 73 87 86 83 82 77 76 77 80 81 78 80 83 80 73 72 73 74 74 77 79 83
63 76 76 62 60 46 40 39 34 33 30 33 29 28 31 47 58 69 77 80 79 80 83 83 83 83 82 79 77 85 86 84 83 77 82 80 69 68 67 82 84 78 76 77 76 78 78 76 69
74 84 74 60 53 48 43 44 41 38 39 38 33 29 33 50 58 61 66 70 81 78 79 81 88 86 84 78 77 77 75 72 72 70 70 68 68 61 62 76 84 77 80 79 73 60 56 51 40
81 79 67 62 55 57 60 55 43 44 50 42 36 34 34 38 53 58 58 57 66 75 79 84 90 89 84 78 80 80 79 78 77 76 73 72 68 65 63 64 64 66 76 50 46 42 36 38 36
78 73 75 68 62 64 67 61 64 54 48 38 37 40 38 37 35 52 55 55 62 77 81 82 84 90 88 80 79 79 78 80 79 76 72 70 69 65 64 65 59 52 49 45 45 34 31 30 30
81 75 67 63 62 62 63 66 62 64 53 47 46 47 45 41 37 35 44 51 54 62 70 77 83 84 86 86 82 80 78 79 77 76 73 70 69 66 62 46 48 46 40 38 34 29 25 25 25
66 69 68 65 62 59 62 58 64 51 50 52 52 49 43 42 38 36 36 33 40 48 55 67 79 81 82 82 82 77 76 76 76 74 74 77 76 62 53 48 46 40 37 37 30 26 25 24 23
73 80 70 69 66 64 60 63 69 50 47 46 44 46 44 40 39 39 35 34 31 33 34 52 70 80 81 80 79 75 76 75 74 75 76 74 58 50 50 46 43 39 35 29 30 28 25 24 22
76 76 76 62 63 63 58 59 48 41 49 52 48 45 48 42 38 34 37 36 33 34 36 37 57 79 80 78 77 71 74 81 83 74 59 50 48 48 44 43 41 36 32 30 29 32 30 26 26
82 85 90 66 57 59 70 74 56 54 53 54 53 52 53 49 44 40 39 38 35 35 38 51 66 78 79 77 73 76 71 66 70 54 48 45 44 41 39 40 37 30 31 31 27 30 34 28 28
84 89 79 71 60 66 69 67 55 48 50 48 45 50 52 50 45 38 37 38 37 42 48 57 71 80 79 71 73 68 55 56 52 51 41 39 39 38 35 35 32 29 31 29 29 27 33 33 33
75 82 86 75 62 68 62 60 52 45 47 49 46 44 44 49 44 42 41 38 43 50 59 70 81 84 68 66 71 63 58 49 43 39 36 36 36 36 34 34 32 32 31 30 26 31 30 33 34
75 82 78 64 61 65 64 65 50 48 46 42 40 41 45 44 48 45 43 45 48 50 61 83 82 71 65 64 65 63 57 41 40 42 37 35 39 34 33 33 33 32 32 32 31 31 31 32 38
77 85 77 71 67 62 67 62 38 31 36 38 37 36 35 40 41 44 45 47 54 59 68 84 74 67 63 61 52 51 45 39 40 38 40 40 35 33 33 33 32 34 35 35 36 35 35 32 36
87 71 72 76 80 79 64 67 38 33 31 30 29 29 32 38 36 39 45 49 54 61 76 82 70 64 58 55 54 55 49 43 36 39 41 39 32 33 32 33 32 34 34 34 33 31 35 33 35
77 64 70 75 88 85 73 88 55 48 47 40 40 37 33 34 40 44 47 48 52 72 80 78 67 60 56 56 58 66 46 39 38 37 36 34 32 32 32 31 34 33 34 33 32 33 33 35 30
71 80 76 82 85 97 70 75 53 41 36 34 32 31 42 45 43 47 48 51 68 82 83 78 68 60 55 56 56 48 42 36 37 37 36 32 32 33 32 32 32 32 32 33 34 35 36 34 34
72 99 96 96 98 83 60 77 54 40 37 36 35 33 33 42 48 56 62 71 80 87 85 75 68 63 54 52 44 41 35 33 32 33 34 32 30 31 30 29 27 30 34 35 35 35 35 35 35
86 85 89 90 86 72 67 83 54 44 35 34 34 33 35 46 53 58 63 71 76 86 81 71 67 62 52 48 45 38 33 33 33 34 31 28 28 29 28 28 28 28 30 32 32 36 36 36 37
97 96 70 86 71 92 65 61 50 44 46 50 50 48 52 42 50 61 70 73 79 84 78 70 66 59 53 51 44 38 36 36 37 33 30 29 28 26 27 27 29 30 32 32 33 31 33 35 38
89 73 96 98 96 87 73 75 62 48 42 56 56 56 56 54 53 67 75 79 81 80 75 68 61 56 52 48 42 39 36 33 32 30 29 28 26 26 28 29 30 31 32 33 33 33 36 36 38
92 98 98 91 90 86 72 48 40 35 46 62 60 63 71 64 57 68 79 83 84 76 71 66 56 50 46 42 37 34 32 30 27 26 26 25 25 27 28 30 30 32 32 32 31 32 35 39 42
66 70 73 96 80 85 86 63 48 59 64 61 64 69 80 80 74 83 84 79 76 70 64 57 48 43 40 35 31 30 28 27 25 25 25 25 27 29 30 30 32 32 33 32 30 35 40 43 46

GFSSGP_sfc_rhum_024.txt.gz
RH
42 28 23 23 27 26 26 19 19 22 22 19 17 19 20 19 24 27 44 43 42 44 47 59 84 82 78 73 71 70 68 64 63 64 68 65 54 52 60 56 55 58 57 59 63 63 65 66 68
32 24 24 23 27 29 22 19 20 21 19 17 17 20 21 21 26 35 39 46 41 43 47 48 85 83 77 74 72 69 67 63 66 71 64 57 51 49 53 56 58 60 58 58 59 61 60 59 59
31 23 24 26 26 28 24 20 16 21 18 16 20 22 21 26 33 30 36 44 42 44 46 51 86 83 77 76 72 69 65 62 69 72 61 57 53 52 53 56 60 63 61 60 61 63 64 65 66
27 25 24 28 28 24 24 18 22 21 18 17 18 22 22 29 31 33 39 47 43 43 45 76 87 84 82 78 73 69 64 63 67 64 59 57 55 56 55 58 65 66 63 63 64 64 64 65 64
28 26 28 32 26 21 21 21 20 22 21 18 16 20 22 29 33 37 45 47 43 45 46 58 88 85 84 79 75 70 65 62 62 62 60 62 62 61 62 67 69 69 65 64 65 67 66 68 69
33 27 30 29 24 24 22 19 21 20 19 18 17 18 20 28 36 42 45 44 43 48 51 51 84 87 85 81 78 73 68 63 65 64 62 65 68 74 68 70 70 69 66 66 67 69 70 69 68
33 31 26 25 24 23 24 19 22 19 19 19 18 20 20 26 39 45 44 43 47 46 50 50 62 75 89 86 82 79 73 71 70 69 66 70 72 80 74 74 71 69 67 70 72 73 72 73 79
34 30 28 30 25 27 22 23 21 21 20 18 18 20 21 25 42 44 45 46 47 50 50 50 52 58 60 65 87 84 82 80 76 75 76 82 79 78 82 81 78 74 73 74 75 78 80 79 72
45 36 34 32 30 25 27 26 23 24 24 23 20 21 24 30 43 47 49 50 49 51 52 52 48 52 56 56 68 84 87 84 81 74 84 79 48 50 54 82 81 76 77 76 78 74 71 66 66
43 42 33 26 26 29 26 30 28 28 25 23 24 22 24 33 39 46 45 44 48 49 50 50 50 52 57 56 58 57 54 55 49 48 49 44 44 43 46 68 79 76 77 74 63 55 47 52 33
44 45 30 40 36 36 36 38 33 30 30 25 24 23 26 27 30 36 37 35 41 42 46 50 56 55 58 59 57 52 51 49 49 50 49 46 44 46 46 48 50 54 69 43 41 36 31 32 30
52 41 41 39 42 47 44 37 40 34 28 21 28 28 30 28 27 26 32 33 36 43 48 52 60 66 60 56 56 49 48 50 50 50 46 43 45 48 46 46 49 45 38 41 38 29 27 24 22
50 39 44 42 48 44 40 43 39 35 29 28 29 32 32 28 28 26 24 27 33 39 43 51 57 63 63 61 55 52 49 52 50 51 47 46 47 49 51 44 40 40 38 32 28 25 20 18 17
46 51 47 46 43 41 46 39 36 34 28 27 28 28 25 26 25 25 25 25 23 30 34 41 53 61 60 61 56 53 50 51 52 49 50 49 50 55 49 44 40 36 32 29 22 18 18 16 16
53 58 45 42 40 42 41 46 42 32 29 28 26 24 26 25 22 26 25 24 22 21 23 31 42 49 53 57 57 53 50 52 53 49 50 53 60 50 46 42 38 32 28 21 20 19 18 18 16
54 55 54 41 46 43 46 40 28 26 29 32 29 26 25 23 23 19 20 22 23 24 24 24 30 42 50 53 56 52 49 53 51 49 54 64 51 46 43 41 36 28 25 21 21 22 22 20 19
54 49 54 46 37 40 47 44 36 39 38 36 31 30 30 30 29 26 20 21 23 23 23 25 29 31 42 49 53 52 50 54 57 64 60 54 46 42 39 36 30 22 23 23 20 22 21 20 21
47 58 47 46 39 44 45 44 36 34 33 33 31 30 30 31 30 28 26 24 23 23 23 25 27 34 42 49 55 56 56 58 56 54 52 46 40 36 36 29 22 22 24 22 22 21 22 23 22
51 54 53 44 43 48 44 40 34 30 31 32 29 27 26 26 24 26 27 26 27 27 27 28 33 40 47 55 68 67 68 66 54 47 44 39 36 34 32 28 23 24 24 23 20 22 24 25 23
58 63 60 46 41 48 44 44 36 32 31 28 26 23 21 20 21 21 25 26 26 27 28 31 37 45 51 55 58 60 69 72 54 41 39 33 29 32 28 26 25 25 25 25 23 24 25 25 25
57 63 60 61 49 45 48 44 28 21 21 21 23 23 22 21 20 19 20 24 26 28 32 36 44 52 55 54 58 58 51 53 47 39 42 39 34 26 29 26 25 26 26 28 27 27 26 26 27
62 44 50 57 63 66 47 53 31 24 24 22 20 20 20 20 20 21 20 22 24 30 38 42 52 56 56 59 55 54 56 59 49 34 39 45 40 31 24 25 24 26 26 27 26 23 25 24 28
60 50 52 56 64 68 56 83 34 30 31 26 21 19 18 19 20 21 23 24 23 32 44 50 56 57 58 55 54 56 57 48 39 38 39 38 34 29 24 24 25 25 24 26 25 26 25 25 21
57 59 61 62 75 93 55 68 39 27 23 22 20 18 18 17 21 22 23 25 26 35 51 57 59 58 56 55 54 58 56 50 38 38 37 36 33 26 25 24 25 24 26 27 27 28 29 27 26
66 87 80 87 96 64 34 49 41 25 24 22 20 18 20 20 20 24 27 31 36 40 55 58 58 59 56 56 56 56 51 40 40 37 34 28 26 26 26 24 22 24 28 28 27 28 29 28 27
72 70 71 68 52 40 40 61 32 21 22 20 23 24 32 33 32 26 27 35 39 47 54 55 56 56 55 56 56 50 44 42 37 31 27 24 25 24 24 22 22 22 23 24 25 27 28 29 28
80 94 57 81 55 71 44 32 25 21 23 24 24 34 38 38 41 36 29 33 38 47 52 54 54 54 54 52 45 39 39 37 41 32 27 27 24 22 22 22 22 23 24 24 25 22 24 26 28
68 56 90 95 85 68 39 33 33 26 24 26 30 34 38 41 41 40 33 35 40 46 52 52 50 52 50 45 37 39 40 40 32 29 28 27 21 21 22 22 22 23 23 24 25 25 26 26 27
85 95 97 72 75 65 48 31 19 23 21 24 33 38 45 47 44 46 38 43 48 51 56 55 52 50 47 41 39 41 41 34 27 27 25 22 21 21 22 21 22 22 23 23 22 24 26 29 32
42 58 65 94 84 85 84 61 22 26 33 40 35 38 44 51 52 54 53 55 58 61 59 56 51 48 45 40 36 37 32 29 25 25 21 20 20 20 21 21 21 22 23 22 21 24 28 32 35

GFSSGP_sfc_rhum_030.txt.gz
RH
59 34 29 40 54 47 44 32 24 26 25 17 19 22 23 23 36 66 52 42 56 68 73 76 83 80 76 72 70 70 68 67 66 73 74 69 64 62 61 60 59 57 62 65 65 64 65 65 64
52 34 36 45 52 50 37 24 23 20 20 20 19 20 21 27 40 47 53 42 48 62 70 75 84 82 76 72 72 70 66 65 70 69 62 58 57 59 61 62 59 59 60 64 65 65 65 66 66
49 32 45 49 46 44 36 23 21 17 18 22 21 18 20 36 34 43 46 40 48 61 61 76 85 82 77 74 73 69 69 70 72 70 64 57 57 61 62 66 62 63 63 63 64 65 66 66 67
39 40 35 40 38 31 27 20 19 20 20 21 20 24 26 32 36 42 42 39 46 54 63 87 86 83 81 77 72 70 67 73 70 70 67 61 57 57 62 69 66 66 67 67 69 69 70 71 70
39 44 45 41 34 27 21 17 20 25 20 22 22 24 38 38 39 41 42 38 46 70 75 81 84 84 82 76 73 68 65 75 66 63 61 59 59 60 60 71 70 67 68 68 70 70 71 71 70
52 42 48 44 34 23 19 16 20 22 20 19 24 23 44 37 42 44 41 43 45 72 70 77 86 86 84 79 76 72 68 72 70 68 67 69 68 66 67 73 71 68 69 70 72 73 72 72 74
50 48 45 36 31 24 18 15 23 23 22 20 19 27 38 43 45 43 43 40 45 58 70 75 80 85 87 84 81 76 73 73 74 73 74 74 82 77 73 74 72 69 72 74 76 76 74 78 74
43 47 48 37 31 28 19 17 19 22 22 19 19 27 42 51 44 43 42 44 46 52 63 69 76 82 84 87 86 83 79 80 79 78 85 79 86 85 82 83 79 75 76 78 81 80 76 71 63
39 58 52 43 33 28 18 19 20 22 23 21 23 24 31 40 43 47 51 52 50 52 54 66 75 76 75 79 84 86 84 82 82 83 87 84 77 84 84 85 86 83 79 79 74 72 70 68 70
53 65 53 32 24 26 20 21 24 27 25 26 23 26 30 33 48 52 54 57 54 57 54 56 72 72 66 64 85 84 78 84 80 76 87 80 68 74 71 85 86 84 82 75 64 55 60 67 59
48 55 35 28 22 31 34 32 25 30 34 28 23 25 28 33 40 47 48 50 53 53 54 52 56 58 66 64 76 71 71 72 63 62 73 68 64 72 75 86 86 93 82 68 61 56 49 42 41
46 37 35 34 29 34 40 33 35 31 32 26 26 25 32 30 33 38 41 43 46 51 54 54 54 57 67 66 69 66 65 65 60 57 58 61 69 70 69 73 78 77 77 55 55 50 40 36 27
43 38 31 31 32 36 36 43 43 39 30 26 26 26 30 33 33 30 30 32 41 47 50 54 56 61 63 63 63 69 56 58 61 59 58 59 62 65 64 66 57 59 54 55 52 43 35 28 26
36 37 37 34 34 36 39 42 42 36 30 30 28 30 29 30 32 32 30 30 31 36 48 50 54 58 61 67 66 61 54 53 57 64 63 52 60 63 69 62 58 52 49 43 38 30 30 32 29
44 56 48 43 41 42 40 47 45 35 31 29 28 27 27 27 28 28 28 30 30 29 40 47 50 58 62 63 62 57 60 54 69 57 57 54 62 67 66 61 56 50 43 37 33 32 34 35 30
57 56 71 40 39 38 43 58 38 30 33 34 31 27 25 25 25 23 22 25 26 30 32 39 43 53 59 58 61 59 58 60 82 65 55 57 66 64 61 59 53 43 35 37 38 38 40 38 38
53 71 58 47 38 38 44 57 38 31 34 39 35 29 26 25 24 23 21 21 25 28 30 34 45 50 54 59 58 59 59 55 62 63 54 59 62 62 61 57 49 39 42 41 35 39 39 40 41
64 59 55 50 41 42 46 47 37 32 30 33 38 36 35 31 28 24 23 22 24 24 29 32 37 45 52 55 55 57 59 62 64 62 61 62 62 60 56 49 41 41 44 41 40 38 40 41 41
51 48 48 41 33 41 43 40 35 30 30 31 30 31 31 29 27 27 28 29 31 29 28 30 37 37 38 53 57 61 76 74 77 78 66 59 53 51 48 48 40 41 44 43 36 39 42 45 44
49 56 55 44 35 40 44 44 37 34 31 28 28 28 27 27 26 25 25 31 31 33 32 27 34 34 34 37 53 63 89 93 89 78 67 61 51 46 41 42 42 43 43 39 39 42 46 46 44
56 60 59 54 44 41 44 47 39 30 28 27 27 25 25 25 25 24 24 24 29 30 30 33 33 35 35 42 62 83 83 81 75 70 69 66 62 44 41 41 41 43 50 52 48 44 43 51 46
65 44 47 50 61 74 50 79 45 32 28 25 26 26 28 27 25 24 23 24 24 23 30 34 39 35 45 56 70 81 85 86 83 74 69 69 48 43 43 41 39 47 48 48 46 42 43 44 48
58 50 53 57 68 70 67 85 57 31 32 28 25 24 26 25 25 25 27 26 26 28 41 36 37 42 48 49 74 83 83 80 68 55 49 47 51 44 38 36 37 39 46 40 40 41 40 40 42
52 57 57 63 70 91 70 63 54 31 27 27 23 26 24 23 26 29 30 28 32 33 36 50 47 46 60 60 73 77 80 70 69 60 46 52 66 60 39 37 39 38 40 44 46 43 40 40 40
62 73 96 98 98 90 39 60 42 24 22 24 24 26 25 25 27 34 43 47 38 34 41 43 57 54 67 71 74 72 70 66 65 58 51 50 55 49 40 40 40 45 47 46 45 46 42 42 45
68 67 93 85 89 73 43 65 40 25 22 21 22 24 24 24 29 45 51 51 50 42 43 42 60 61 72 74 79 68 71 61 58 54 47 49 57 56 39 35 36 42 40 41 43 47 46 43 47
73 87 64 81 64 89 57 37 26 23 22 21 22 22 26 27 34 48 49 50 46 46 44 44 64 64 73 78 70 68 58 57 55 59 54 57 50 41 36 35 33 33 37 37 38 42 40 37 43
55 56 91 94 99 83 53 42 41 32 29 25 25 27 28 31 45 48 50 52 48 43 48 50 61 67 72 72 70 56 56 54 52 52 48 42 35 31 31 33 33 36 35 34 36 37 35 35 42
71 79 74 72 85 93 78 55 38 37 32 33 29 33 42 46 46 48 52 56 54 51 50 60 64 68 66 65 58 51 49 46 40 42 34 35 36 30 31 34 32 35 34 32 34 33 34 36 40
54 67 65 91 83 85 92 69 30 35 30 29 30 28 37 40 42 46 52 60 64 63 60 64 66 61 65 52 47 51 52 40 40 38 33 35 42 28 31 28 28 32 31 29 29 30 30 37 41

GFSSGP_sfc_rhum_033.txt.gz
RH
67 58 54 45 53 61 61 47 40 23 25 30 26 24 28 31 39 60 65 74 81 87 80 78 82 81 77 73 71 71 69 72 74 73 72 69 65 63 60 59 58 65 67 66 66 67 67 66 65
73 53 46 52 63 69 59 38 35 23 26 24 22 22 25 55 53 59 68 76 76 81 80 80 83 82 75 72 72 70 68 68 76 74 67 64 62 61 59 58 59 62 66 66 66 66 68 67 66
67 53 51 59 64 63 56 35 28 25 22 23 25 25 28 51 54 58 58 71 75 82 79 80 84 81 76 74 72 68 68 75 73 70 65 61 61 64 64 61 62 63 64 64 64 66 66 67 68
58 51 48 53 55 46 38 30 25 26 22 21 26 28 41 48 48 52 51 68 79 77 84 87 84 82 80 79 74 73 73 74 71 70 67 65 64 66 69 65 67 68 69 69 69 70 71 72 70
60 61 63 63 47 39 33 29 22 28 26 26 28 31 52 51 53 50 51 66 73 77 86 85 85 84 82 79 77 74 76 74 71 67 62 61 61 64 72 69 68 69 70 71 71 73 72 73 72
63 58 72 66 55 37 30 24 23 26 27 25 28 31 56 51 55 51 49 74 73 83 83 82 86 85 83 79 77 74 77 74 71 70 66 65 66 65 72 72 69 70 72 73 74 74 73 75 75
66 66 67 63 48 39 30 23 27 24 25 24 24 32 68 68 55 50 51 77 76 78 82 83 85 85 85 82 79 76 79 76 73 76 75 75 78 78 74 74 70 72 74 76 77 76 77 76 72
55 64 70 60 47 43 27 24 23 25 26 24 24 37 70 60 53 50 52 77 78 81 81 94 95 88 87 86 84 81 80 82 81 83 82 82 87 86 81 83 78 75 78 80 80 78 75 70 61
50 72 74 60 52 42 28 29 23 25 25 26 27 38 45 50 51 56 62 62 76 82 84 87 95 95 95 94 84 85 84 85 84 88 84 90 94 88 86 87 86 84 81 80 77 76 72 68 69
61 75 68 46 41 38 31 39 29 28 28 33 28 37 39 50 56 57 63 62 69 80 81 82 88 88 90 78 94 95 86 92 93 93 91 84 90 92 82 90 89 86 85 79 69 63 67 69 64
58 76 55 48 37 36 42 40 36 35 40 29 29 34 40 46 56 59 62 61 64 64 75 80 83 82 82 82 91 94 95 94 91 89 92 89 77 91 91 97 96 96 86 81 69 59 53 42 41
63 50 46 43 39 39 45 43 47 46 39 35 33 31 31 38 51 58 59 60 62 61 60 78 78 78 74 81 82 83 84 84 80 78 83 84 84 83 89 93 96 95 86 71 64 61 44 32 28
56 49 40 39 40 40 39 47 49 48 41 36 34 34 36 34 39 42 44 48 62 59 57 59 71 72 76 80 74 76 76 76 68 65 69 73 74 75 80 85 88 78 70 62 60 45 33 29 28
43 46 49 45 46 44 43 45 50 48 38 37 33 33 37 34 34 37 37 35 44 54 56 56 63 68 73 77 73 73 69 70 69 63 62 63 66 72 79 69 66 62 54 47 38 32 33 34 32
51 63 57 54 50 49 43 54 53 42 41 41 40 36 30 34 32 34 34 36 35 38 53 57 60 66 70 73 70 66 68 62 65 59 60 58 64 75 65 63 62 55 48 38 34 36 36 38 33
63 67 86 57 47 47 48 61 47 42 45 45 39 36 34 30 31 31 30 30 32 35 52 54 51 66 68 70 78 66 64 62 83 60 57 58 72 64 62 61 59 49 46 43 41 42 43 43 41
72 88 79 64 43 47 53 65 44 40 42 43 44 41 34 32 29 30 29 27 26 33 35 55 53 62 67 69 71 65 69 63 87 66 59 61 64 59 58 59 54 43 45 44 37 42 42 42 41
80 81 73 68 46 49 54 59 49 42 40 40 41 43 44 36 31 26 27 28 25 23 34 40 54 58 60 61 66 84 90 64 64 64 58 70 63 62 61 57 45 46 47 44 42 40 46 44 43
58 64 64 54 41 48 49 50 43 38 40 37 33 35 35 36 34 34 33 32 29 31 32 38 51 57 62 66 71 78 79 72 70 70 66 67 63 58 54 51 45 49 43 41 39 46 43 46 46
70 68 68 54 44 47 50 48 40 37 36 34 33 37 37 33 35 32 31 34 37 35 37 37 41 54 58 60 62 89 94 93 86 78 68 65 59 54 51 46 47 46 46 42 40 42 50 48 47
67 74 70 67 54 53 56 59 48 39 36 33 31 30 29 30 28 32 34 32 34 38 39 37 38 45 48 58 81 98 96 96 95 90 73 65 63 56 46 43 45 44 46 48 46 48 47 52 47
75 54 56 60 71 83 60 90 70 42 35 32 38 37 32 29 29 31 31 32 32 34 41 38 38 43 44 50 80 84 85 92 94 86 90 77 58 46 45 46 41 45 54 51 49 44 49 50 49
66 56 59 65 76 81 78 87 71 55 40 36 32 29 35 32 30 32 32 28 27 30 32 43 38 40 48 43 71 82 87 93 90 86 80 78 75 52 48 48 44 42 46 48 44 39 41 46 47
56 61 66 73 83 98 76 78 70 48 33 31 31 27 29 29 32 31 33 38 39 39 39 45 50 45 49 51 81 75 92 86 83 83 78 72 75 61 50 46 42 42 40 39 43 40 37 40 42
65 77 97 96 95 91 61 82 67 34 28 29 28 26 29 30 29 44 49 52 57 57 51 44 50 54 56 69 83 86 83 78 78 74 70 68 64 54 48 46 44 45 43 46 44 44 44 44 47
80 73 92 90 98 88 57 75 53 33 27 27 22 24 24 25 37 49 54 57 57 56 56 51 47 58 67 86 88 84 78 81 79 69 66 63 56 48 46 46 47 48 41 44 47 51 52 48 52
80 92 70 86 85 95 72 50 34 26 27 28 30 28 30 28 44 56 59 59 59 61 60 55 49 66 82 90 83 83 74 80 79 73 69 67 61 50 46 47 46 45 43 41 43 47 42 44 50
62 63 88 95 99 93 73 60 44 37 36 32 32 42 52 52 58 58 61 58 59 64 65 58 53 62 87 90 83 75 78 73 68 63 63 57 46 40 42 44 45 45 37 40 41 44 41 41 48
76 73 70 78 93 97 98 68 40 39 43 40 36 37 42 50 52 52 57 60 62 68 73 71 70 81 93 90 74 69 65 66 63 61 59 48 41 40 42 43 48 41 33 34 40 42 39 39 42
67 78 77 95 80 94 96 72 30 32 39 37 36 40 51 36 40 50 56 65 67 69 82 83 76 89 92 67 64 59 58 53 52 49 44 39 40 39 43 39 34 32 32 34 35 34 35 40 43

GFSSGP_sfc_rhum_036.txt.gz
RH
68 63 60 46 51 64 67 56 51 37 26 29 27 24 29 43 40 52 76 86 88 90 83 80 82 80 78 77 78 80 79 80 77 73 70 68 64 61 58 60 66 64 68 69 72 72 70 68 66
76 51 47 56 63 70 61 52 38 35 26 27 25 25 31 61 60 87 90 86 83 84 83 81 83 81 76 73 71 72 74 74 75 74 71 66 64 60 59 60 64 66 67 68 69 69 68 67 64
64 54 51 57 69 68 60 45 36 25 25 25 28 26 41 56 62 75 86 83 83 86 82 82 85 80 74 73 72 70 71 76 77 72 68 65 62 60 59 61 63 67 66 65 65 66 66 67 68
60 56 56 61 66 53 47 40 34 28 22 26 29 31 51 57 60 64 82 82 89 90 88 87 85 80 79 77 73 69 74 74 70 71 68 64 65 63 62 64 65 67 67 67 68 69 70 70 68
64 63 67 70 58 48 41 36 33 29 26 26 29 36 60 58 61 78 83 82 90 93 91 86 84 81 79 75 77 77 78 70 66 64 64 66 67 70 65 68 69 70 71 70 72 73 74 74 73
70 66 82 64 58 45 37 33 32 28 26 26 31 52 65 64 60 76 80 85 80 91 89 85 85 84 83 78 80 82 81 75 70 70 67 65 66 72 71 68 70 71 72 73 74 74 74 75 75
75 71 79 72 60 51 38 32 31 27 28 24 24 50 73 72 58 62 82 79 83 85 87 87 86 85 85 82 80 82 82 77 74 73 73 74 75 75 76 71 70 72 74 76 75 74 77 75 71
59 68 78 64 53 51 36 30 24 28 27 25 27 69 75 61 56 71 87 89 89 87 87 92 92 88 87 86 84 85 81 79 79 82 83 83 84 84 82 81 78 75 77 79 78 77 74 67 60
55 76 83 67 55 47 38 36 30 24 28 30 33 54 53 55 58 70 95 95 92 88 93 96 97 96 96 93 86 86 88 87 88 89 86 93 96 90 89 89 84 84 81 81 78 76 70 67 64
66 82 71 53 49 50 38 45 39 31 31 35 46 46 58 58 64 66 91 96 96 96 96 96 97 96 96 80 93 94 88 94 95 94 89 96 96 95 85 91 89 88 86 83 75 72 68 66 67
66 80 56 53 49 47 45 44 45 44 37 37 41 52 56 65 64 64 70 83 94 93 90 92 96 95 92 85 96 98 98 98 97 95 93 91 93 97 98 98 97 97 91 88 72 64 57 48 42
70 56 51 50 46 49 47 44 53 48 40 43 45 40 37 45 48 66 62 69 78 89 87 88 90 92 91 87 91 92 92 95 97 95 94 96 95 98 98 99 98 98 90 79 71 66 48 31 31
72 59 48 45 47 46 42 48 50 50 43 41 40 37 36 36 43 54 63 64 71 75 83 86 87 88 87 92 86 88 88 88 86 87 88 86 90 94 92 96 98 97 91 70 67 51 33 30 29
55 52 51 50 50 51 47 48 49 51 44 42 40 41 38 36 36 43 42 47 62 64 66 82 85 84 81 86 84 82 81 82 79 76 77 80 78 85 88 91 95 88 75 66 49 35 35 35 33
56 61 60 54 54 54 49 51 57 44 41 44 44 44 40 38 35 36 34 38 40 55 58 69 80 80 81 81 80 79 77 76 78 70 68 73 72 80 83 85 83 69 55 39 36 38 39 38 35
63 69 79 55 51 48 49 57 50 45 52 48 48 48 45 39 34 33 33 34 36 41 52 59 63 74 78 77 81 75 74 74 82 69 65 66 66 74 75 75 71 60 50 43 44 44 44 44 41
76 86 81 67 52 52 58 69 46 37 46 50 49 46 43 42 37 37 32 30 28 35 40 64 62 73 76 73 78 71 72 71 85 71 64 63 69 70 68 67 66 52 50 46 41 44 42 42 42
83 86 80 73 55 53 60 67 53 49 50 49 47 43 42 44 39 34 34 32 29 27 36 51 63 69 75 79 84 89 93 80 84 71 64 69 69 66 66 66 54 48 50 46 42 42 47 45 43
65 71 71 61 46 50 51 54 47 40 43 42 37 38 39 37 33 39 37 36 36 36 34 44 59 64 77 85 88 94 91 82 89 70 65 71 69 65 65 59 47 50 43 45 39 46 41 46 48
73 71 70 58 50 52 55 54 44 40 38 36 34 32 33 33 31 36 38 38 38 36 35 38 48 59 69 79 75 88 89 90 87 81 72 72 73 74 66 53 47 45 46 43 44 47 51 49 47
61 74 74 69 58 58 58 43 43 41 38 36 32 31 32 32 31 31 38 37 38 39 40 41 42 56 64 71 87 99 97 98 98 95 81 77 75 74 72 55 48 45 44 45 46 48 48 52 48
78 59 59 64 71 85 63 85 68 50 44 37 37 44 41 36 33 34 31 34 34 36 39 42 44 45 60 77 89 88 84 92 90 88 93 94 82 80 64 53 56 46 48 46 49 48 54 50 48
69 58 61 68 79 84 82 89 67 57 47 36 35 33 30 36 39 37 38 35 34 35 37 37 41 48 49 58 72 85 74 81 98 98 94 89 92 80 67 56 53 43 48 42 41 46 50 49 46
56 61 70 81 85 96 79 82 66 51 40 37 32 29 29 27 32 38 36 38 42 46 43 43 43 47 52 57 68 81 81 96 97 96 94 89 86 85 69 58 57 47 44 45 45 44 40 41 42
62 74 92 92 97 89 69 88 73 49 37 32 32 29 29 30 33 38 48 56 58 65 60 56 50 48 51 59 75 80 93 91 91 91 88 85 78 76 71 67 62 54 48 48 48 44 41 39 40
76 70 87 78 96 91 67 85 50 42 38 30 30 32 31 31 32 44 58 59 56 62 61 62 59 56 54 60 84 83 92 88 87 85 84 80 77 70 71 71 66 56 48 48 49 51 48 44 48
82 90 70 87 87 96 78 62 36 33 34 34 34 51 56 53 44 53 61 61 59 59 63 66 63 61 57 63 93 95 91 91 89 86 81 80 76 72 67 65 62 51 45 45 44 48 48 42 49
68 66 91 95 99 87 77 74 50 39 43 39 40 43 44 48 49 53 56 60 56 60 69 76 75 68 60 85 95 95 91 89 85 80 78 73 70 60 63 58 50 47 46 47 47 47 42 42 49
79 80 81 84 90 96 97 73 45 43 46 45 44 43 48 56 57 54 50 60 61 66 73 82 84 80 84 97 95 93 94 88 80 79 77 74 65 53 48 45 44 44 43 42 50 54 46 40 44
72 78 78 93 78 96 95 80 41 44 49 44 38 42 45 51 54 52 51 58 66 63 72 87 87 86 94 94 89 88 86 82 84 80 73 64 51 47 45 43 44 51 62 72 76 60 36 40 44

GFSSGP_sfc_rhum_039.txt.gz
RH
71 65 60 47 52 64 68 55 64 44 36 31 31 28 30 37 40 47 82 91 91 93 86 83 83 80 80 80 82 83 82 79 75 75 71 66 63 58 60 67 67 70 75 77 76 73 69 70 66
76 54 48 60 62 70 58 54 43 36 34 28 30 30 46 63 66 95 94 93 87 88 86 84 84 82 80 80 81 81 80 79 76 72 69 67 63 59 60 64 59 68 70 70 70 70 68 65 62
63 52 51 59 75 66 54 48 38 31 29 31 31 33 42 57 68 89 88 89 86 88 85 84 84 81 78 78 77 77 77 77 75 74 70 66 60 59 60 64 68 66 68 68 68 68 68 67 68
59 60 56 65 69 56 49 45 41 34 27 26 31 50 61 67 66 75 91 87 91 94 90 87 85 82 79 78 74 72 74 75 75 73 68 65 61 61 61 64 67 68 67 66 66 66 67 70 68
65 65 74 76 60 55 49 40 39 35 34 28 27 40 65 66 75 93 93 88 94 97 94 88 85 80 78 75 74 75 76 77 71 68 67 65 65 63 65 67 68 68 68 68 70 71 72 73 72
74 67 82 71 56 50 44 39 36 34 31 27 34 58 66 74 95 94 91 94 90 96 92 88 85 82 81 76 76 80 79 74 70 70 66 67 69 66 66 69 71 72 71 72 73 73 74 74 74
76 78 82 70 54 51 44 39 38 35 32 27 29 68 72 76 86 92 94 94 92 93 94 93 89 87 85 82 83 83 80 76 73 74 74 74 77 77 70 70 71 72 72 74 74 74 75 74 67
68 68 79 71 59 48 42 33 30 30 29 26 39 60 76 67 76 93 92 96 96 95 94 96 96 94 94 92 88 88 83 81 77 78 80 82 83 86 80 79 77 74 76 77 76 76 73 65 57
60 81 88 64 56 50 43 43 37 32 30 31 35 60 54 62 90 96 98 98 96 93 96 95 98 97 96 94 88 89 88 86 85 88 88 89 93 92 90 88 84 83 81 80 79 76 68 67 70
68 85 73 58 53 55 45 49 47 40 37 33 46 58 68 68 92 97 97 92 88 92 89 84 97 97 96 82 93 95 92 95 95 94 92 96 96 96 89 91 88 88 87 85 79 74 67 65 49
70 76 57 56 53 53 52 48 48 51 45 41 41 48 54 78 81 94 96 92 85 84 87 84 92 96 95 87 97 99 99 98 98 95 94 97 96 98 98 98 98 98 95 94 78 70 61 47 39
73 60 57 54 49 52 55 46 55 50 45 47 48 42 37 58 64 75 94 96 97 96 89 85 91 97 95 88 92 92 94 98 99 98 94 98 99 98 98 99 98 98 97 91 72 65 44 35 33
71 63 53 49 48 53 48 51 53 54 43 48 42 39 39 39 40 55 71 77 94 96 94 94 95 95 93 94 90 90 91 94 94 97 96 94 98 98 99 98 99 98 94 81 74 53 34 31 32
62 57 55 51 50 52 51 51 51 53 48 46 44 42 42 40 38 42 53 67 84 90 91 90 93 92 91 92 92 88 86 87 92 92 92 92 91 98 97 98 98 98 93 74 65 42 36 36 34
60 66 65 58 57 55 54 55 62 47 43 45 42 48 45 42 39 38 36 42 54 73 78 88 90 89 92 90 92 87 90 82 84 83 88 88 87 95 95 96 98 97 85 65 41 39 40 39 35
68 71 81 58 53 51 50 59 46 48 53 51 50 48 48 46 41 38 35 37 39 44 70 77 79 85 89 88 90 90 90 81 84 77 75 81 82 88 95 94 96 82 58 46 44 45 44 43 40
78 90 84 64 53 54 60 73 50 43 45 49 46 41 47 44 43 42 36 36 36 40 41 71 77 84 87 87 90 88 89 83 91 78 73 75 77 83 86 88 89 66 52 48 46 47 43 42 42
86 80 82 77 59 60 67 72 55 51 54 56 55 50 46 44 40 39 41 38 34 36 40 46 68 74 84 88 91 93 96 90 96 81 73 72 72 79 80 83 75 57 53 50 46 44 47 44 43
69 76 81 70 53 56 56 57 48 41 46 47 45 41 40 37 33 37 40 40 40 39 41 44 70 68 79 92 96 97 94 92 95 86 76 75 74 80 76 74 64 54 47 43 41 44 41 45 48
76 82 86 63 55 57 59 58 46 41 39 37 36 36 34 33 36 35 37 40 42 39 38 41 51 72 73 84 83 87 90 91 88 89 82 80 82 85 80 68 59 50 52 45 44 46 51 49 50
80 72 78 72 61 62 63 54 46 39 39 39 36 34 33 33 32 29 32 38 38 40 41 39 42 58 73 77 84 99 97 98 98 97 89 82 83 81 76 72 56 48 45 44 42 48 47 51 50
73 62 64 65 73 85 64 85 68 47 46 44 41 38 42 40 37 35 34 39 42 40 41 42 43 47 63 81 86 91 90 94 93 87 90 92 88 86 80 71 60 56 50 47 52 48 54 49 48
69 60 64 68 80 83 82 90 65 51 43 37 34 34 35 31 32 38 40 39 39 39 41 42 43 50 52 75 84 91 86 84 91 93 95 95 95 88 87 78 71 64 70 70 60 53 48 52 47
58 60 69 86 82 93 79 80 61 45 43 38 36 32 34 32 33 34 38 40 41 47 44 43 40 40 48 57 83 94 92 96 98 99 97 97 95 92 85 76 75 74 71 72 62 46 44 45 46
63 73 88 81 97 82 78 86 60 49 43 40 41 38 44 47 43 38 52 62 60 61 59 57 54 51 53 58 67 87 91 96 93 95 94 96 96 91 86 78 79 76 72 64 63 59 56 49 45
75 71 83 66 91 90 76 88 51 46 44 36 50 57 54 55 58 59 65 67 67 64 63 64 62 57 56 59 66 76 88 95 92 93 94 92 90 87 82 77 76 75 65 62 65 66 70 56 47
82 90 73 88 87 97 77 60 35 39 40 42 44 43 46 48 54 54 53 57 61 60 59 67 73 68 66 65 67 89 91 94 96 95 94 90 87 84 79 78 76 71 67 59 53 56 59 52 56
70 66 89 95 75 80 68 73 49 42 41 43 45 47 46 46 51 56 58 55 55 58 61 69 77 80 77 76 78 88 94 94 94 95 95 93 87 79 82 78 73 66 55 49 51 54 51 51 58
80 86 85 84 87 89 93 59 52 46 51 48 46 49 56 63 65 63 65 64 58 59 67 71 83 86 87 86 89 97 98 97 96 95 92 85 79 75 73 69 66 52 46 44 48 54 61 67 67
72 76 82 87 81 98 89 80 49 55 50 47 50 56 59 61 65 77 73 66 65 58 69 82 92 92 92 92 97 98 97 94 94 94 89 80 80 78 69 57 45 45 52 57 64 73 79 78 76

GFSSGP_sfc_rhum_042.txt.gz
RH
73 62 56 47 52 66 72 54 66 48 42 34 34 33 32 37 42 48 87 94 94 90 84 85 85 84 81 77 82 84 81 79 76 73 68 65 61 59 62 67 72 74 70 73 77 71 71 69 64
76 55 50 61 60 66 57 61 46 42 36 32 32 35 47 58 76 95 96 94 89 91 91 91 86 81 76 80 83 84 79 78 76 75 71 66 62 59 64 68 69 75 75 74 73 71 68 63 60
63 50 52 61 75 64 52 47 44 36 34 35 30 35 46 59 75 89 89 94 91 94 90 88 85 82 82 82 82 81 81 79 75 72 70 66 60 60 63 59 65 71 71 71 72 71 68 66 68
61 58 58 68 71 62 44 57 44 38 32 29 33 38 57 70 75 85 96 92 95 97 94 89 85 85 84 82 81 80 80 79 76 73 70 64 60 61 64 66 66 70 69 68 67 67 69 70 69
63 64 75 79 66 60 57 45 44 41 36 34 31 32 53 72 85 97 95 89 89 98 96 92 85 82 80 77 78 79 75 75 76 73 68 62 62 62 65 68 69 69 68 68 68 69 71 73 73
75 66 81 75 63 49 49 44 41 39 38 32 35 61 61 88 97 92 88 86 79 96 96 92 86 83 81 79 78 79 78 79 75 72 67 66 64 66 67 69 70 70 70 71 72 74 74 75 75
76 80 80 71 53 50 45 41 42 40 40 32 36 61 64 79 96 87 86 87 89 97 97 96 93 89 86 82 81 80 83 80 76 75 73 74 75 71 69 70 72 72 72 74 74 75 76 72 63
75 71 82 73 59 54 42 38 34 32 32 30 35 49 58 77 98 94 96 96 96 98 97 98 97 95 94 93 86 88 83 82 79 80 80 82 86 82 76 80 78 74 75 77 77 77 71 61 60
67 84 87 63 58 50 45 46 41 38 37 33 35 52 56 85 97 96 97 97 94 94 97 98 98 97 96 94 93 91 88 84 83 86 87 89 94 93 88 88 84 83 81 79 78 76 67 67 69
70 89 76 55 49 47 51 51 51 46 46 41 44 61 78 97 94 93 92 94 92 88 90 94 97 98 97 88 94 96 93 93 94 94 93 95 94 96 92 91 88 86 86 86 81 74 68 61 46
74 78 59 57 50 50 55 57 50 54 50 41 47 45 54 88 95 89 85 83 85 82 84 91 80 98 97 93 97 99 99 98 98 95 95 95 96 98 98 98 98 98 95 97 89 73 58 45 39
78 63 56 53 51 54 58 52 57 52 45 43 50 50 42 56 81 95 91 85 82 85 81 75 80 90 97 95 97 98 99 98 99 98 95 98 100 99 99 99 98 99 98 94 77 64 44 37 32
75 66 57 53 52 56 53 55 54 55 47 47 46 44 44 43 40 46 73 93 86 81 83 78 82 84 94 97 97 98 98 98 91 98 96 98 99 99 99 98 99 99 98 92 75 54 35 34 33
64 59 58 54 52 54 56 56 56 54 53 50 50 46 46 45 41 42 43 74 97 90 82 80 81 85 86 95 96 92 94 97 98 98 97 96 98 98 98 99 99 99 97 85 74 46 36 36 34
60 70 67 61 57 56 57 60 65 49 46 48 48 52 45 44 43 41 38 42 75 92 93 93 90 84 87 94 95 91 92 88 93 94 97 95 95 98 97 98 99 98 97 75 55 40 40 40 36
72 72 85 62 59 55 51 64 50 46 55 53 54 56 53 45 42 41 39 39 40 69 90 93 86 88 87 89 93 95 95 92 90 91 92 94 93 94 98 98 98 98 91 64 47 46 45 44 40
84 92 87 67 57 58 61 78 55 52 56 55 54 53 50 48 46 46 44 41 40 41 51 83 89 91 94 91 93 95 95 91 92 90 83 88 92 91 94 97 97 92 75 57 46 49 45 44 43
86 85 84 78 59 70 72 76 55 47 55 59 57 56 56 53 47 42 43 43 40 41 41 48 80 90 92 93 93 96 97 95 95 92 80 83 84 89 92 96 96 81 65 56 50 46 48 46 44
73 78 81 76 58 61 63 64 52 44 48 48 46 43 39 36 33 41 40 41 43 43 42 43 46 74 89 94 95 95 95 95 97 95 86 84 80 86 88 88 89 77 63 48 43 47 44 48 50
77 84 87 72 58 61 62 61 50 43 43 42 40 40 38 36 34 36 38 41 43 39 42 44 44 49 76 91 91 91 92 93 93 94 91 85 83 86 86 85 86 75 66 52 44 46 51 49 54
84 84 85 81 64 65 67 63 50 42 41 39 37 40 41 41 38 34 37 38 42 45 44 41 44 50 62 79 92 99 98 99 99 98 95 92 86 88 88 84 81 72 69 57 44 43 46 51 52
86 60 64 66 75 87 68 84 64 51 44 42 41 38 42 38 35 36 35 40 42 40 43 43 44 47 62 88 90 94 89 93 95 92 92 94 89 90 87 86 82 74 72 64 57 64 76 63 52
84 60 64 70 80 81 80 85 57 49 39 37 37 41 44 42 40 38 43 43 44 44 46 45 45 48 52 57 86 95 93 90 95 94 95 96 94 91 90 88 86 78 74 74 71 71 62 65 56
60 61 70 83 80 92 78 73 46 42 51 44 46 49 56 55 52 51 58 63 66 67 65 60 49 45 51 58 85 95 94 93 97 98 98 99 98 96 93 89 82 81 75 77 78 73 65 59 55
63 76 91 78 88 80 82 83 54 52 49 49 51 54 56 57 58 56 58 60 63 64 65 63 64 62 58 56 68 90 94 94 95 94 95 98 98 98 97 94 88 82 78 78 78 74 73 70 64
76 68 82 62 81 80 76 88 50 46 48 46 53 50 50 51 57 59 58 60 60 60 62 62 66 71 66 63 63 70 88 97 96 94 95 96 95 92 90 90 87 84 82 82 80 77 74 68 71
80 89 74 89 88 92 76 62 34 43 46 48 47 47 51 52 58 62 64 64 63 63 61 63 64 71 77 78 76 74 80 91 96 96 94 95 94 96 94 91 90 90 85 76 72 73 64 58 64
71 68 86 93 79 70 56 69 44 48 51 51 48 51 53 60 71 77 76 73 67 66 62 64 72 78 85 89 90 84 89 90 91 96 98 97 96 94 94 92 90 86 79 73 66 60 53 54 59
80 88 86 83 88 82 78 43 52 47 54 54 53 51 61 70 72 78 80 77 78 74 70 72 85 92 90 92 95 95 95 96 98 98 98 96 93 93 91 85 80 73 69 61 57 52 54 62 66
75 80 77 85 82 96 95 73 52 49 51 53 54 57 68 70 83 81 89 91 90 91 93 88 80 81 85 89 96 98 98 97 97 97 95 89 90 84 78 72 64 55 52 54 58 61 68 73 78

GFSSGP_sfc_rhum_045.txt.gz
RH
62 46 45 44 42 47 49 40 39 36 30 23 24 24 25 26 35 37 79 75 70 68 64 68 84 85 85 86 85 86 84 81 76 72 68 65 62 62 64 68 74 63 65 73 76 70 70 66 60
59 43 48 51 46 46 40 40 39 34 27 28 27 25 32 31 53 82 80 78 69 71 65 66 87 86 82 84 85 84 80 78 76 73 67 65 60 61 68 69 78 79 79 78 73 70 65 61 64
50 39 47 52 52 47 38 35 35 28 29 25 22 24 28 36 55 69 70 79 71 73 68 73 87 84 78 79 86 83 81 78 76 73 68 65 60 62 67 67 74 74 75 74 72 69 66 67 69
51 46 45 52 58 50 33 31 35 32 26 24 24 23 35 49 52 62 75 77 76 76 70 81 86 80 80 84 85 83 82 77 76 72 70 64 60 63 60 65 71 72 72 70 69 69 68 70 70
51 50 56 62 57 48 43 37 33 32 30 24 24 23 32 50 77 83 81 80 77 78 72 68 82 82 85 85 84 83 82 78 76 74 70 62 61 63 67 66 71 70 69 68 66 69 71 72 73
59 51 61 59 55 44 39 35 31 29 27 24 24 30 35 70 82 85 78 77 73 78 75 68 83 86 85 83 82 83 80 79 78 73 68 63 64 65 68 70 70 69 69 70 72 73 74 75 72
64 61 60 58 49 45 38 33 30 29 27 24 23 28 34 57 84 80 78 76 76 78 76 71 66 76 87 84 83 82 82 83 81 77 74 73 74 71 69 70 71 70 71 73 75 75 75 69 63
63 55 66 59 49 44 33 34 28 29 24 22 27 29 30 57 82 81 82 80 85 82 76 77 74 72 71 68 86 85 86 85 82 81 80 83 81 80 77 80 78 74 76 77 77 77 67 62 66
56 67 69 56 50 41 36 34 32 30 30 26 27 36 52 66 83 89 90 90 88 87 83 82 80 76 74 71 73 87 88 85 83 82 86 84 66 64 66 80 83 81 81 79 79 73 66 68 80
61 73 66 49 44 42 39 38 38 35 39 32 34 36 78 84 88 87 86 85 86 87 88 85 82 79 78 72 72 76 75 64 62 64 65 66 70 70 69 77 87 84 84 86 81 71 65 51 36
65 64 56 51 43 42 46 45 40 40 39 35 34 38 59 82 88 83 80 80 82 77 81 79 83 81 80 73 75 77 83 78 65 67 68 69 72 75 74 71 71 74 86 73 71 59 46 34 31
67 60 52 48 50 49 51 43 43 43 39 33 40 38 34 73 79 86 82 79 81 78 78 76 79 78 83 76 74 72 84 81 74 75 70 73 76 78 79 74 76 78 75 71 66 49 37 32 27
64 59 53 49 49 49 47 48 44 46 41 39 40 41 37 33 38 58 73 78 81 76 74 76 73 72 84 88 80 74 73 78 77 74 75 71 75 76 76 77 76 78 77 68 59 42 31 27 24
60 55 53 51 49 47 51 50 49 44 42 42 43 40 39 38 34 32 35 58 80 73 73 73 74 76 79 87 82 74 71 73 77 75 75 73 71 75 80 79 78 78 76 68 54 39 29 27 25
61 66 58 55 52 51 50 53 59 44 41 41 39 41 41 40 36 34 31 31 49 74 72 72 75 77 82 84 86 77 80 71 76 77 74 74 74 76 79 78 80 76 75 66 54 34 28 29 25
67 62 73 54 56 51 45 55 43 41 46 45 43 41 46 41 37 35 34 34 31 46 76 76 74 78 81 83 90 88 85 81 75 78 76 76 73 75 79 80 79 75 75 64 51 38 33 30 28
72 83 78 62 57 54 50 62 47 44 46 45 43 42 43 41 38 35 35 36 34 32 38 70 80 79 79 81 87 91 86 87 82 76 72 76 76 74 75 78 77 76 76 62 48 39 33 33 32
81 80 76 64 52 60 64 68 55 44 43 47 44 43 42 44 39 35 36 36 34 35 34 38 65 78 80 83 88 93 95 88 83 80 71 74 74 76 76 76 77 77 77 67 48 40 36 33 33
65 71 71 64 52 54 60 60 51 44 44 44 40 37 35 33 31 35 36 35 36 36 37 36 38 58 78 85 91 95 95 93 94 88 81 74 75 78 80 76 75 78 76 68 51 39 38 38 34
68 75 75 64 53 53 57 57 47 42 43 42 40 39 38 36 33 34 33 34 34 35 35 37 38 38 55 74 74 78 82 87 87 89 86 77 75 77 80 78 78 76 74 67 53 42 41 40 38
76 79 78 72 57 54 61 56 47 38 36 33 34 35 36 34 31 30 35 37 37 36 39 38 39 41 43 62 78 84 89 94 92 94 90 85 78 76 79 78 76 77 72 66 57 47 46 45 43
92 60 63 61 68 73 60 68 51 44 35 36 42 45 43 42 39 42 46 49 47 47 50 45 43 42 44 52 74 83 78 84 82 80 86 88 84 80 80 78 76 78 77 71 63 54 55 54 49
76 58 61 65 71 70 66 67 43 38 36 38 42 45 48 48 47 48 51 55 53 59 62 57 45 42 46 46 64 81 84 74 78 84 87 87 90 83 84 80 79 77 78 78 75 64 54 54 53
58 59 66 72 70 85 63 62 36 36 39 41 41 43 47 47 51 52 54 55 54 58 61 60 56 52 46 47 51 77 87 85 88 91 93 91 93 90 86 84 81 78 77 76 75 71 67 61 58
60 80 88 77 89 78 71 72 47 41 42 40 42 43 45 47 53 56 59 59 58 61 61 56 54 53 56 54 50 52 74 87 87 88 89 89 93 95 91 88 87 83 80 77 77 77 75 69 66
67 66 80 65 63 61 70 77 43 41 40 42 44 43 48 51 54 60 62 63 62 62 60 58 56 56 56 60 61 56 57 66 83 89 84 86 88 86 85 88 86 82 79 78 79 81 78 73 68
75 83 62 83 76 78 56 53 34 37 41 42 46 51 51 53 60 66 67 66 66 65 64 62 59 57 61 70 72 70 66 66 68 75 87 85 84 85 82 86 89 85 80 78 78 81 79 71 68
68 64 83 88 80 62 42 49 31 37 44 47 45 49 51 63 70 72 69 70 68 71 72 68 66 71 72 72 77 80 82 79 76 73 79 85 86 85 86 85 85 85 82 80 79 78 71 71 66
75 80 79 72 76 60 45 30 41 41 46 49 46 49 60 73 69 74 70 72 71 74 75 73 70 70 71 73 76 82 85 87 88 90 88 88 86 85 86 84 82 79 78 74 73 69 62 64 62
69 76 69 81 77 88 84 51 41 39 44 48 46 50 72 69 72 72 74 77 71 71 68 71 72 72 72 72 77 83 84 84 88 88 87 85 84 83 81 78 77 72 69 64 62 61 62 64 71

GFSSGP_sfc_rhum_048.txt.gz
RH
50 30 24 26 29 26 26 23 22 25 23 17 18 18 18 18 22 28 54 50 42 45 47 62 85 85 86 87 86 86 82 79 76 71 68 66 66 65 65 74 69 66 65 76 73 69 68 63 65
39 28 26 27 29 30 21 20 23 21 20 18 18 18 23 23 32 48 51 55 44 47 48 53 88 87 87 87 84 83 80 78 76 71 68 62 60 62 67 78 76 73 76 76 72 68 62 64 68
34 26 28 30 30 29 23 20 17 20 19 17 17 18 19 26 35 40 48 52 45 47 44 55 88 88 87 87 86 83 80 78 76 73 67 64 59 68 70 76 78 79 76 72 70 66 65 67 70
30 27 27 33 34 27 21 21 21 20 19 18 17 18 22 35 37 42 49 48 46 45 44 78 88 82 82 85 87 83 80 78 74 71 68 63 60 66 64 75 75 75 75 73 70 67 70 71 71
31 29 36 40 32 26 24 20 22 22 20 16 16 17 19 40 50 49 51 49 47 46 44 57 87 83 80 84 86 85 81 78 73 70 69 62 62 63 60 70 73 72 70 67 68 69 70 72 73
37 31 40 42 33 26 24 22 22 21 18 15 17 17 21 44 50 58 54 49 47 49 48 49 76 80 82 83 85 86 82 79 75 74 67 63 64 66 67 68 70 70 68 67 69 71 73 74 72
40 40 40 34 32 29 27 21 23 19 18 15 15 18 22 36 56 70 66 51 51 50 48 46 53 71 86 86 87 86 84 82 81 78 71 72 73 71 69 70 70 69 70 72 74 75 75 69 63
36 37 38 35 34 33 23 24 19 19 16 16 17 18 20 39 60 73 71 69 69 54 49 46 46 50 53 57 87 87 86 86 84 82 82 82 81 80 76 80 76 72 74 76 77 75 65 64 72
43 38 40 40 38 30 23 23 21 21 17 18 18 23 41 44 70 78 81 80 80 59 52 50 47 48 48 45 58 84 90 89 86 80 86 81 46 54 63 74 82 81 80 79 79 69 66 77 80
34 38 31 27 30 30 26 21 22 24 23 21 22 27 51 60 78 78 80 77 80 76 65 53 51 49 48 46 47 44 52 63 54 49 52 46 45 44 46 66 86 83 82 84 78 70 64 57 36
35 34 28 37 30 29 27 26 25 23 27 19 20 27 44 67 76 76 73 69 73 72 73 70 56 50 49 48 46 42 48 48 46 43 43 44 47 53 54 49 55 55 78 54 66 58 37 33 29
44 32 32 37 40 39 33 26 28 25 21 23 26 28 27 52 61 70 70 69 68 69 69 68 67 55 51 47 48 43 46 51 49 46 42 46 49 52 52 49 47 49 51 51 55 46 39 35 29
42 41 35 34 40 40 36 34 28 30 26 26 27 30 26 26 38 51 57 59 63 66 68 68 70 61 56 56 49 47 46 51 49 51 47 44 48 50 50 52 49 46 47 48 50 47 36 30 26
39 40 37 34 39 39 41 37 37 29 25 26 26 25 22 24 24 26 38 47 51 53 59 65 67 64 55 75 59 53 49 46 51 52 52 50 46 49 52 52 54 51 49 48 47 45 35 30 25
46 47 38 42 37 35 36 39 41 27 22 24 21 20 24 24 24 25 23 24 26 34 42 51 58 59 62 70 79 61 57 55 50 51 49 52 50 49 50 51 53 55 52 48 49 43 34 29 24
49 43 51 33 39 40 37 31 30 28 27 28 23 20 22 24 23 21 21 22 22 22 26 34 45 54 58 69 79 81 66 59 55 53 50 51 51 51 51 53 53 53 54 51 51 45 38 32 28
45 38 40 41 40 34 39 30 27 26 29 28 25 24 24 25 24 22 21 21 21 20 21 23 36 45 51 60 72 84 82 68 58 59 58 55 54 54 53 52 52 54 57 55 52 48 41 36 32
48 41 44 38 43 47 45 35 34 32 34 31 27 24 23 23 24 20 22 23 22 23 22 22 24 34 42 51 73 88 92 83 62 58 58 60 57 57 58 53 52 53 60 59 54 48 42 37 34
39 41 37 40 42 44 41 41 36 33 31 31 28 24 24 23 21 22 23 22 22 23 24 25 26 27 32 43 81 93 92 91 90 73 63 59 59 59 62 57 53 54 58 61 57 50 46 41 33
44 42 40 52 45 43 43 44 35 32 33 32 29 26 25 24 21 22 25 26 23 21 21 23 25 27 27 34 47 63 72 77 75 84 81 71 63 64 63 63 56 56 59 61 62 55 50 44 35
53 47 53 48 48 44 44 38 37 32 28 30 30 27 26 28 28 30 32 34 34 32 31 27 27 28 30 30 36 50 59 68 72 80 76 74 73 66 67 69 63 64 60 62 64 60 55 52 40
60 55 54 55 54 46 45 33 37 28 34 33 32 35 35 36 35 36 36 38 37 42 45 41 36 31 30 33 33 39 55 65 62 59 64 71 75 77 69 71 70 68 72 64 64 59 57 55 51
62 50 52 53 54 57 49 49 31 27 33 34 33 37 40 42 42 42 43 44 42 46 49 44 38 36 34 32 34 36 46 53 52 53 60 62 69 80 80 73 76 72 72 74 67 65 59 58 50
46 50 54 56 56 83 53 47 26 27 27 33 33 37 41 42 44 44 46 46 43 45 46 46 41 37 38 41 35 38 42 50 55 62 67 68 72 78 84 81 79 77 73 73 71 72 67 64 61
70 69 92 93 94 66 54 50 26 29 29 30 38 39 41 43 45 48 49 49 47 49 49 45 42 41 38 39 42 39 39 43 53 58 64 70 73 83 87 84 82 79 76 74 75 74 74 72 72
94 92 73 65 49 41 53 49 28 29 27 29 34 39 41 46 47 50 52 51 48 50 49 49 47 44 41 42 44 43 44 42 39 49 60 63 64 65 68 79 84 82 79 76 74 78 78 76 80
77 95 48 62 54 58 33 35 28 31 33 32 39 42 44 50 51 52 51 50 49 51 54 57 52 49 50 50 48 48 48 51 50 48 45 49 54 62 64 68 82 84 84 82 80 82 81 80 80
53 47 73 83 76 57 30 28 24 38 35 34 38 41 43 50 50 51 50 52 49 53 53 54 51 52 51 52 52 53 57 59 59 58 57 52 50 53 63 72 75 85 86 84 83 85 82 82 81
60 59 57 49 55 42 23 18 23 26 30 35 32 38 46 52 53 50 48 50 52 51 51 52 52 51 52 53 52 55 58 62 61 67 70 70 70 69 72 71 77 85 85 82 84 83 82 81 76
52 52 43 60 69 64 61 29 29 26 30 32 32 40 46 54 54 48 46 48 53 51 51 52 52 52 54 52 52 56 62 64 65 66 69 73 78 77 78 79 80 80 80 79 80 76 72 70 70

GFSSGP_sfc_rhum_051.txt.gz
RH
50 32 20 23 29 24 25 19 14 18 17 14 15 15 14 16 19 34 43 40 35 41 49 60 82 86 87 86 86 85 83 80 76 72 69 68 67 65 66 71 66 64 68 74 69 68 64 66 67
34 25 23 25 30 30 23 16 19 16 16 16 16 16 16 17 24 42 42 43 35 39 47 50 88 88 87 86 85 83 80 77 73 71 66 62 61 66 78 73 68 67 76 74 70 65 64 68 69
42 25 28 28 28 28 23 16 14 17 16 15 16 14 16 22 30 34 40 39 36 39 42 60 89 89 87 87 86 82 79 78 74 71 67 62 63 70 78 80 80 80 74 70 67 64 67 69 70
37 27 26 33 30 23 18 16 13 16 16 15 15 16 18 29 31 35 40 36 38 37 39 79 90 88 88 87 86 82 80 77 73 71 69 61 66 69 76 78 79 78 76 71 68 67 70 71 72
32 30 36 37 31 20 16 16 16 16 17 15 14 16 20 38 38 38 40 36 38 36 45 58 88 85 86 86 84 84 80 76 73 69 68 61 65 64 76 75 74 73 71 69 68 69 71 72 74
41 32 42 39 30 22 17 16 16 17 15 14 14 15 25 37 41 43 40 38 36 37 42 52 80 84 81 83 84 85 82 78 75 74 66 62 65 65 66 72 72 71 68 67 68 70 72 74 71
44 40 42 33 27 25 19 16 18 17 15 15 12 16 23 37 50 48 41 38 39 39 40 45 51 66 83 82 83 86 85 83 80 77 70 70 73 74 71 72 71 69 69 70 72 74 74 68 64
38 37 41 33 28 27 19 18 16 17 16 12 12 17 21 34 52 57 55 44 42 43 39 40 45 57 63 61 85 88 88 88 84 80 81 81 80 79 75 79 75 71 73 75 76 75 66 65 69
35 45 44 36 30 25 18 21 18 15 15 14 12 16 34 34 56 68 74 74 62 45 42 38 39 44 44 44 64 85 91 91 86 82 86 81 49 56 66 74 81 81 80 78 78 69 67 79 82
41 46 37 26 24 27 21 21 17 20 17 15 16 22 39 38 59 68 73 73 76 53 44 41 40 40 42 39 49 48 49 66 66 57 59 45 40 42 44 69 85 81 82 84 76 70 70 78 45
36 32 27 22 28 28 24 22 15 19 18 15 17 18 32 45 58 58 63 60 68 67 58 47 44 42 41 40 40 39 40 59 55 45 45 40 40 46 45 52 58 60 78 60 70 64 44 36 32
38 27 20 24 30 34 27 19 19 20 17 15 16 22 22 35 45 51 53 53 50 61 65 66 50 46 43 40 40 36 40 43 41 42 38 40 43 47 46 43 46 50 50 50 58 54 42 37 33
38 27 25 28 37 34 24 22 20 21 19 21 22 24 22 21 27 38 44 49 49 54 59 64 64 55 48 46 40 39 39 43 43 43 40 38 44 45 46 44 44 44 43 44 51 47 41 38 33
35 31 31 28 36 36 36 27 27 24 20 21 22 22 19 19 20 23 35 42 43 45 49 55 64 66 53 49 47 44 42 42 46 45 46 41 41 45 47 46 46 45 43 43 43 45 43 36 31
38 36 34 30 31 35 34 35 34 26 21 22 20 20 19 18 17 20 22 26 31 34 38 45 52 57 58 49 59 50 48 45 45 48 46 46 45 45 46 48 48 48 45 44 44 44 41 37 31
42 41 49 32 34 32 34 36 24 23 23 22 18 17 16 16 16 15 18 20 21 22 24 30 39 48 51 50 59 67 52 49 49 46 46 47 47 47 47 49 49 46 48 50 47 48 46 40 35
49 42 40 31 26 33 39 28 20 21 23 22 18 17 17 16 17 15 14 16 18 20 21 22 24 32 43 45 55 77 80 69 54 50 49 47 48 47 48 48 48 45 51 59 52 50 46 45 41
44 39 28 27 36 32 34 34 22 24 25 23 20 18 18 18 18 16 15 16 17 17 18 19 20 20 26 35 43 74 89 83 72 56 52 53 50 51 53 51 49 46 52 58 55 53 50 46 44
28 31 26 26 36 38 34 30 26 24 25 25 23 20 17 17 16 17 21 20 20 21 22 21 22 22 22 30 38 71 87 91 84 72 56 54 56 56 57 56 53 51 52 56 56 55 55 53 45
37 32 32 36 36 37 28 35 29 27 26 24 23 23 22 21 20 19 22 24 23 20 19 20 22 23 23 25 29 41 62 69 79 84 78 64 57 58 58 60 60 55 57 57 58 59 60 54 48
37 37 30 36 43 38 40 38 33 30 28 27 25 23 20 21 22 26 28 30 32 34 36 29 25 26 26 28 28 33 44 59 66 76 80 73 71 66 63 64 63 62 59 62 62 63 64 62 52
42 36 37 48 47 35 36 22 35 31 32 29 29 28 28 30 30 32 32 35 36 42 45 38 35 32 28 29 31 34 37 49 55 56 56 61 62 69 72 73 70 68 67 63 64 63 70 64 61
49 46 48 50 48 51 44 42 30 27 34 31 30 34 35 36 37 36 40 42 38 45 48 44 38 33 34 32 31 34 35 36 41 47 51 52 56 64 73 73 75 77 76 76 68 68 70 64 59
46 50 51 52 53 78 46 37 32 28 26 29 30 32 35 36 38 39 41 41 40 44 47 46 40 36 34 35 36 35 40 37 38 46 52 52 55 63 68 78 80 81 83 80 79 73 78 70 71
50 61 85 89 96 62 44 48 26 22 21 25 30 33 36 38 39 42 44 45 43 46 46 43 41 40 37 37 37 37 40 38 39 41 45 52 56 64 71 80 83 84 83 83 82 85 83 79 77
65 61 67 65 64 51 44 47 25 22 22 28 32 35 38 41 42 44 45 46 44 45 46 48 46 44 40 41 42 40 39 41 39 37 37 44 50 52 54 75 82 84 84 85 86 89 86 82 81
96 96 43 50 37 44 33 27 29 26 25 28 35 39 41 43 45 45 44 44 45 45 49 51 48 46 46 46 45 45 44 48 50 48 44 42 41 46 50 58 73 84 86 88 90 92 92 90 86
67 55 84 83 80 52 34 26 24 32 31 32 35 35 39 45 46 45 44 45 46 45 48 48 46 46 46 46 45 46 48 50 52 51 54 55 52 49 48 53 64 80 88 92 95 96 95 94 93
56 58 52 50 52 48 27 21 22 29 30 31 28 34 42 48 48 45 43 42 47 45 48 47 47 46 47 46 45 48 53 55 54 54 56 60 64 66 68 64 65 68 88 86 92 94 95 96 95
44 43 41 61 66 55 54 32 20 24 25 29 28 37 42 50 49 44 43 45 45 47 49 48 48 47 47 47 46 50 53 55 56 57 57 60 66 69 73 77 78 79 82 82 89 89 90 88 85

GFSSGP_sfc_rhum_054.txt.gz
RH
56 37 39 42 58 48 44 30 21 27 25 21 18 21 25 22 47 77 57 49 53 59 67 79 85 85 87 88 86 87 84 80 77 74 71 70 69 64 70 68 68 67 74 71 68 66 67 68 70
48 38 42 48 54 51 39 26 25 23 22 20 21 22 22 43 47 57 59 47 48 57 63 67 87 89 89 88 85 84 80 76 73 71 68 64 63 74 73 70 68 74 75 72 67 66 69 69 71
46 38 53 51 50 46 38 23 21 21 21 21 22 22 22 44 41 53 53 44 47 57 56 78 90 90 89 88 86 84 82 76 73 70 66 63 69 78 77 77 78 79 74 68 66 68 69 71 72
46 49 44 50 44 34 27 22 18 21 22 19 21 25 38 46 47 50 47 43 47 52 77 92 91 90 90 87 85 83 81 76 73 71 66 65 73 77 78 80 79 80 77 70 68 69 72 74 73
47 50 55 51 44 31 22 20 23 21 22 20 21 26 53 52 47 47 47 44 47 69 75 86 91 90 89 84 83 84 82 76 73 72 65 64 70 78 77 77 77 75 73 70 70 71 73 75 73
83 49 68 59 42 31 24 20 24 22 20 20 22 29 58 50 52 51 45 48 44 68 66 76 88 90 88 83 82 83 82 79 75 72 65 65 67 74 76 75 74 71 70 70 69 72 74 75 71
90 79 71 53 41 31 26 20 22 23 24 21 19 26 59 66 60 52 49 47 46 52 64 69 73 82 87 84 84 82 85 81 78 77 72 74 77 76 72 74 73 71 70 72 74 74 75 69 68
63 87 75 51 43 38 23 21 19 21 21 17 17 36 70 72 65 66 65 56 52 52 56 62 66 71 76 77 84 86 88 86 84 80 81 81 80 81 79 81 78 75 75 77 78 76 68 67 69
47 85 91 64 46 37 23 24 22 20 21 20 18 43 44 62 68 80 84 81 73 54 53 54 60 68 74 74 82 89 90 90 87 85 87 85 78 80 82 82 81 82 82 82 79 71 71 81 83
50 68 65 42 34 34 27 25 25 24 25 24 20 37 43 61 76 85 87 89 86 73 56 52 55 61 60 51 85 84 81 93 74 75 85 74 68 70 62 84 85 84 86 86 78 73 76 81 81
50 58 44 34 32 34 31 26 26 26 30 22 22 27 49 56 67 73 78 79 84 77 69 55 55 55 57 55 73 63 67 79 80 69 72 70 56 70 75 93 89 93 90 91 86 82 72 67 65
48 42 34 34 37 38 35 28 28 24 29 24 30 28 35 52 59 63 69 69 76 79 80 73 71 58 57 57 60 57 57 71 78 70 62 61 66 66 66 74 79 83 83 85 89 84 68 61 47
46 36 30 31 40 40 30 33 28 27 27 26 27 28 31 29 40 53 56 60 63 73 69 73 77 73 62 58 59 58 56 62 63 63 57 56 66 69 63 66 63 69 72 72 80 81 68 57 50
40 36 32 33 41 40 35 31 28 27 27 28 30 33 29 27 27 33 53 57 62 63 69 71 75 78 72 65 62 59 58 59 63 63 64 55 62 66 70 68 65 65 66 68 71 74 66 58 54
38 44 40 37 40 42 39 41 37 29 29 29 29 30 27 26 24 24 28 37 48 53 56 66 70 73 78 73 70 67 66 60 66 67 61 60 58 65 65 70 72 71 64 61 64 64 66 59 50
49 51 53 39 38 38 42 54 35 29 33 34 30 27 26 25 24 23 23 28 32 34 33 50 55 67 72 71 70 80 76 66 68 65 66 62 60 61 67 71 72 71 70 69 70 72 73 64 56
56 67 58 45 34 38 41 50 32 26 31 34 30 26 23 23 21 22 23 22 26 30 30 32 32 50 64 65 70 83 83 88 82 68 68 66 60 60 61 70 72 67 73 75 73 75 73 68 62
67 62 51 46 34 38 49 48 32 28 31 31 29 27 27 26 24 23 22 34 27 29 29 31 32 33 32 49 65 88 97 87 91 83 74 68 67 68 66 67 69 66 73 80 81 76 76 68 66
42 47 47 34 36 39 41 41 36 30 33 36 34 30 27 25 22 25 28 27 28 27 29 31 32 33 35 40 52 96 98 97 96 79 81 79 75 72 82 72 67 68 65 70 72 79 78 77 69
46 45 42 36 40 42 40 41 34 31 32 31 34 32 30 30 28 27 33 35 35 33 36 36 32 34 35 39 40 56 94 92 91 89 79 84 83 75 79 83 77 77 77 78 74 72 78 80 72
46 49 38 44 46 44 48 48 39 35 35 33 34 36 31 28 28 34 39 42 46 53 55 46 43 40 38 40 44 48 52 89 94 94 90 80 81 87 84 77 77 92 89 87 79 83 80 80 84
48 37 39 48 57 58 44 42 36 40 39 35 38 35 37 42 41 40 43 49 54 60 62 57 51 45 40 41 45 48 53 59 76 86 88 88 86 87 84 87 85 74 76 82 84 87 91 92 79
47 47 53 57 61 66 55 68 50 39 42 40 39 43 47 48 47 48 53 53 53 59 63 62 57 50 46 48 47 51 52 53 54 55 67 79 84 86 88 85 84 87 83 88 83 89 88 84 84
50 58 60 62 66 94 62 53 52 43 38 39 41 44 46 48 50 51 53 55 54 61 63 64 58 52 50 51 51 52 52 56 57 59 65 74 76 82 88 90 83 79 90 90 92 88 93 90 84
59 76 97 97 98 90 52 60 50 32 30 35 39 43 45 50 53 57 61 61 59 61 62 59 61 59 53 53 55 56 60 62 61 58 62 64 74 83 85 90 93 89 87 90 92 95 93 96 94
77 76 95 81 94 77 49 75 44 30 31 34 36 41 46 50 57 58 60 60 61 60 65 66 63 62 60 61 62 62 63 69 68 68 68 65 64 67 68 77 93 93 91 94 93 94 95 94 96
92 98 54 75 46 76 57 44 38 32 40 39 41 45 50 55 58 60 66 59 62 61 64 65 63 61 61 62 63 64 66 70 74 72 74 78 74 65 70 73 82 93 94 94 96 97 96 96 97
83 65 88 96 89 72 47 43 45 42 38 39 49 51 52 55 57 59 57 57 61 62 64 63 60 61 61 61 62 64 72 73 74 76 79 80 82 80 82 84 85 88 93 95 97 98 98 99 98
90 96 79 76 78 90 62 42 35 36 34 43 41 44 50 58 61 58 56 54 56 62 64 63 62 60 62 61 62 69 72 72 72 72 72 79 82 85 78 81 91 92 94 94 97 98 98 98 98
54 56 55 97 88 80 84 56 26 33 38 38 35 45 51 58 60 56 55 57 61 62 64 62 62 64 64 64 66 69 73 75 77 76 75 72 74 72 68 70 74 77 82 81 87 92 91 94 92

GFSSGP_sfc_rhum_057.txt.gz
RH
68 59 55 51 57 63 62 45 30 27 26 29 26 23 27 44 61 74 66 70 76 85 85 85 88 89 88 88 87 86 84 82 78 75 73 71 65 69 68 68 68 72 73 67 67 68 69 70 67
74 57 54 55 65 68 56 41 27 31 26 26 22 25 38 66 65 63 67 68 70 80 82 82 87 89 90 88 86 85 81 75 73 72 69 64 72 73 70 69 71 76 72 68 69 69 69 70 68
59 50 65 62 69 67 54 34 29 26 22 25 29 25 45 60 61 65 63 61 66 74 73 83 88 90 90 87 87 84 79 74 72 69 66 68 77 72 70 74 79 76 71 69 69 69 70 72 70
53 56 56 68 66 48 44 33 29 26 23 22 26 56 58 57 62 61 56 64 69 72 87 92 92 91 90 89 87 84 78 75 72 68 66 74 78 77 79 78 80 79 77 70 69 72 74 74 72
55 54 79 74 59 48 40 23 25 27 26 27 24 54 74 64 58 56 54 60 82 86 88 91 92 91 89 84 82 83 82 75 73 68 66 75 78 78 80 79 78 76 74 71 71 73 75 75 72
84 74 84 83 62 44 40 24 22 27 24 23 31 64 80 72 59 60 57 76 76 86 86 86 93 92 85 82 80 83 82 79 74 69 65 72 79 78 78 77 75 73 71 70 71 74 76 74 71
75 88 83 78 68 49 39 26 24 25 29 27 23 74 89 80 74 64 59 77 76 78 84 92 92 91 88 83 81 82 83 80 80 76 73 77 80 80 76 76 74 72 71 71 74 75 75 70 70
84 78 77 73 68 59 36 23 22 22 27 21 24 69 87 84 78 80 84 72 74 78 80 86 90 87 90 80 85 87 85 85 84 81 82 83 84 83 81 83 80 76 75 77 78 77 70 68 72
66 90 88 82 73 58 36 44 27 24 23 22 41 57 78 77 79 84 86 84 78 73 75 74 81 87 87 80 79 89 88 88 86 85 86 86 90 88 86 86 83 84 83 82 80 74 72 80 82
88 88 69 52 56 58 44 41 40 28 28 28 61 74 75 82 88 90 89 90 89 75 73 70 73 79 84 69 92 95 90 96 90 87 89 88 88 88 78 87 87 86 87 88 81 75 80 84 89
60 78 59 51 47 59 45 37 36 31 37 29 45 67 78 87 92 90 90 89 88 87 77 69 70 72 76 74 91 97 98 98 89 87 86 87 74 85 89 97 95 96 93 97 89 87 87 88 82
59 50 50 48 49 66 40 30 30 31 34 37 30 58 64 74 76 88 88 88 86 86 86 80 77 70 69 79 79 80 82 93 90 83 80 84 82 83 88 93 96 97 95 97 96 95 80 70 67
63 46 41 39 41 45 37 35 32 33 35 32 30 31 43 59 72 70 76 78 84 85 80 79 82 85 69 69 70 72 70 79 86 84 76 72 78 73 78 86 86 92 93 95 98 96 85 74 64
50 47 41 38 44 44 40 38 33 33 31 32 29 32 35 34 32 60 69 69 82 84 77 75 80 83 84 75 65 67 65 68 79 79 71 64 69 66 72 75 76 81 84 81 84 87 87 78 62
46 57 52 50 50 48 39 42 41 34 33 37 40 37 31 31 30 30 39 70 70 74 74 77 78 77 82 85 78 70 68 66 72 69 66 60 66 74 73 75 79 69 74 77 83 88 84 71 62
54 57 77 46 48 46 39 54 43 35 50 36 40 39 35 31 27 27 25 31 37 51 72 77 66 77 82 85 84 80 78 81 74 73 72 64 64 68 74 78 80 78 71 69 75 80 82 72 65
71 79 70 50 44 47 47 55 38 35 39 40 40 37 34 30 28 28 26 27 29 35 37 64 74 81 84 87 83 87 85 85 89 81 68 65 63 66 70 76 79 76 82 80 71 80 79 78 70
83 71 61 55 45 45 52 51 40 35 38 41 41 35 32 29 26 26 31 34 32 33 34 35 35 49 78 76 82 92 94 90 92 92 90 81 73 71 74 72 74 76 81 86 89 82 85 78 70
56 59 62 51 40 45 50 51 43 39 38 38 38 36 34 30 27 31 32 35 32 36 36 38 35 37 39 42 73 98 94 96 97 94 84 87 91 85 84 74 72 78 74 69 84 86 84 82 75
54 61 59 46 41 45 47 52 45 41 37 35 37 40 38 35 32 40 40 45 52 58 57 50 46 42 40 45 48 69 97 98 93 94 93 89 92 94 92 92 89 87 84 86 90 85 92 88 83
55 56 55 53 52 50 50 51 43 38 37 36 36 37 36 31 34 47 49 54 58 62 65 61 56 50 46 43 46 50 57 80 98 97 97 94 91 91 92 94 92 91 95 89 90 90 90 90 95
61 45 48 55 61 68 44 60 42 42 43 38 41 38 38 48 48 50 52 53 60 64 64 62 59 56 48 47 47 50 54 60 72 82 95 96 93 92 91 93 94 96 96 94 93 94 95 96 94
58 52 59 62 64 67 63 75 53 47 48 44 43 46 52 56 56 58 57 53 59 62 66 65 60 55 55 57 55 56 56 61 63 61 62 72 94 95 93 92 94 97 98 96 96 96 94 92 87
58 63 68 73 77 94 69 67 56 53 42 46 49 53 51 52 58 60 58 56 62 64 65 64 63 60 57 59 60 62 66 61 62 63 65 68 76 87 93 95 94 95 94 94 94 96 97 96 94
67 73 97 97 97 93 59 71 54 41 40 40 50 52 53 54 62 64 64 63 62 66 69 64 66 64 64 65 66 68 70 74 76 77 76 73 73 79 81 86 92 96 94 94 95 96 96 98 97
74 70 89 88 97 90 54 77 56 36 35 40 42 48 54 58 66 64 64 64 65 68 69 69 68 69 66 66 67 70 76 80 81 82 85 88 89 88 89 91 91 93 94 94 96 97 97 95 98
89 94 61 79 72 87 70 51 37 47 49 46 50 55 56 60 66 65 64 68 68 71 70 68 66 66 66 66 69 77 81 82 84 87 88 91 91 78 92 94 94 92 96 96 96 98 97 98 97
81 70 87 95 92 77 68 54 51 52 53 48 52 55 57 66 65 66 64 65 69 69 70 67 66 67 66 66 72 76 79 78 79 77 77 79 80 87 88 92 94 96 95 96 97 98 97 99 98
86 96 85 81 89 92 71 53 35 37 45 50 55 53 60 64 67 64 62 61 67 72 70 69 67 67 69 70 74 79 80 81 81 80 80 80 78 76 77 84 88 90 91 92 96 96 95 99 98
70 77 71 95 88 80 86 61 34 37 41 46 50 51 60 65 64 62 60 65 72 73 69 70 71 71 73 73 77 80 82 84 86 84 82 82 83 78 76 74 74 73 74 78 81 86 89 93 94

GFSSGP_sfc_rhum_060.txt.gz
RH
70 65 63 52 57 66 71 53 36 31 32 30 29 46 59 62 63 55 80 81 87 93 88 88 88 88 88 87 86 86 84 84 81 76 74 68 65 68 68 69 73 72 68 68 67 67 69 67 65
72 52 56 61 67 72 62 48 37 30 26 26 26 32 60 79 69 88 92 84 84 88 88 89 90 90 89 87 85 84 80 77 76 74 69 67 74 70 69 70 76 72 69 69 68 69 70 68 66
62 49 64 64 74 68 58 41 32 29 28 28 28 41 60 74 69 75 82 78 83 89 86 87 91 91 89 86 86 82 76 73 72 70 67 76 73 71 69 76 78 72 71 70 68 70 70 68 66
52 56 60 75 72 55 50 44 29 28 29 24 45 69 71 71 67 73 72 77 86 91 94 86 91 91 89 89 86 81 75 72 70 68 73 78 77 70 78 81 79 78 76 70 70 72 73 72 70
58 63 81 82 69 58 47 36 31 29 30 27 36 81 82 68 68 70 74 71 82 95 94 86 90 90 90 89 86 83 76 74 70 67 77 79 75 80 79 78 78 76 73 71 72 74 75 73 70
82 72 91 89 70 56 49 39 27 28 30 36 73 79 86 82 66 76 73 77 80 90 90 89 93 89 89 86 86 84 81 75 71 67 76 76 78 78 78 78 76 74 72 72 72 74 75 72 69
71 82 90 89 73 62 47 39 29 27 29 28 57 86 89 86 88 77 81 85 85 87 94 97 95 89 84 83 82 84 84 81 78 74 78 82 83 82 79 77 75 73 72 72 74 76 75 72 69
79 68 82 82 70 66 46 48 33 25 28 24 56 91 93 87 87 87 90 88 90 91 96 98 97 93 87 78 85 87 87 86 82 80 84 85 89 86 83 84 81 76 75 76 77 77 73 70 70
79 90 77 71 67 60 62 60 44 27 30 50 60 77 75 84 82 85 91 95 95 91 93 96 96 95 93 90 85 89 89 89 87 86 87 91 94 92 89 89 85 83 82 81 79 76 73 79 81
85 79 70 51 50 74 73 63 57 32 38 71 95 88 83 82 88 90 92 95 94 95 89 85 89 92 93 75 94 95 89 94 92 91 92 95 94 95 87 90 89 87 88 87 83 77 80 85 92
89 79 62 51 49 80 79 74 58 48 34 54 90 94 91 90 91 90 90 90 91 90 87 82 85 88 92 86 98 99 99 98 96 93 92 92 88 95 96 97 96 97 95 98 94 92 95 90 87
75 59 56 54 52 84 80 67 64 44 34 34 72 87 91 90 90 90 89 88 89 89 86 80 81 88 92 93 95 98 99 99 98 94 90 94 93 93 96 98 98 98 98 98 98 98 91 83 83
66 55 51 60 68 77 74 79 72 42 34 41 57 67 85 90 90 89 85 86 85 85 86 88 87 82 82 94 91 94 95 98 96 94 88 87 90 88 94 96 98 98 98 98 99 98 94 86 73
62 54 54 56 51 60 79 78 64 32 30 40 33 39 44 67 78 84 88 85 89 85 82 81 86 88 78 85 87 81 84 87 97 92 85 81 78 79 83 89 89 92 94 96 97 97 97 92 79
54 67 58 52 49 45 49 64 58 29 33 37 42 44 32 30 31 70 76 82 87 85 79 77 77 83 89 80 78 78 72 77 86 88 84 79 75 76 74 78 82 81 84 90 93 96 96 96 78
58 71 83 55 50 44 37 54 40 34 37 37 44 45 42 35 32 31 33 69 76 86 83 78 70 79 85 89 90 82 78 75 75 78 77 74 70 75 76 75 78 75 82 81 91 88 96 94 87
75 90 81 60 48 49 44 57 41 35 41 40 44 42 39 37 32 30 31 33 36 53 66 89 83 81 84 88 89 91 87 90 91 82 78 70 66 67 72 75 76 82 76 77 80 88 89 94 84
84 76 68 59 53 52 53 57 40 43 43 41 42 43 38 32 30 31 34 38 36 38 39 42 50 69 90 92 93 95 96 95 92 93 92 82 76 74 83 86 82 82 87 91 90 80 92 87 79
63 64 69 59 46 51 57 58 47 44 51 44 45 41 35 32 36 36 40 42 48 54 50 44 40 42 46 67 90 97 97 96 97 96 90 92 92 90 92 91 89 93 88 80 89 92 88 88 90
62 66 69 56 46 48 53 56 52 47 47 40 37 40 39 37 41 45 51 59 60 65 65 61 56 50 44 49 53 69 96 98 97 96 95 94 94 96 95 96 94 91 93 93 92 94 94 95 95
72 68 64 57 55 52 55 61 54 48 46 39 38 38 38 33 41 54 62 63 66 69 71 64 63 60 53 47 48 53 56 70 96 98 98 96 94 94 96 96 96 96 96 93 93 95 95 88 97
83 51 48 54 63 71 49 75 46 49 45 44 45 42 39 42 51 56 60 64 66 69 71 66 63 59 56 58 56 51 54 56 65 75 85 80 92 95 94 95 96 96 97 97 94 94 94 96 93
62 53 58 63 66 65 64 69 58 54 50 46 46 43 43 57 60 61 61 61 67 69 71 70 65 62 61 61 63 64 63 64 64 64 63 64 67 78 94 96 96 98 98 97 97 97 98 97 94
62 66 72 78 76 93 71 64 66 57 49 45 48 51 59 62 65 66 65 67 68 71 72 72 67 68 68 70 72 73 76 76 75 79 78 80 78 87 89 90 97 97 97 97 97 97 97 97 97
67 74 97 96 98 92 69 74 54 48 43 44 46 58 59 63 68 70 69 69 70 75 75 67 70 70 68 70 75 81 87 88 88 89 92 92 93 94 96 95 95 96 96 96 96 96 96 97 98
80 75 90 89 96 84 62 85 57 46 40 41 43 51 57 64 74 72 70 71 72 72 74 72 72 71 69 71 80 84 87 90 90 94 96 96 96 96 94 95 95 95 96 97 97 98 97 96 98
86 96 71 79 81 91 73 60 40 53 54 55 56 57 62 66 73 73 72 74 75 76 74 70 70 68 68 72 80 83 84 85 87 84 84 89 92 77 93 94 95 96 95 95 98 99 98 98 98
85 74 86 94 89 80 73 71 55 59 56 54 60 59 63 68 72 73 76 77 76 77 74 72 68 69 71 75 80 82 84 83 84 83 84 81 78 78 86 91 93 94 91 94 96 98 97 96 98
94 92 89 81 88 92 83 62 42 47 46 52 56 59 61 72 72 70 68 71 77 78 75 74 72 72 76 78 82 85 86 85 85 85 86 86 82 79 78 79 82 83 86 90 94 95 96 96 95
78 84 74 91 88 87 87 62 39 37 46 48 52 51 58 68 69 67 65 73 79 76 76 77 77 77 79 79 83 86 88 90 93 94 90 87 88 82 80 80 80 82 85 89 92 95 93 93 93

GFSSGP_sfc_rhum_063.txt.gz
RH
70 65 62 51 58 70 74 55 49 32 34 32 31 49 41 75 56 52 86 89 93 95 91 89 88 88 88 86 86 88 86 84 81 77 74 69 69 68 70 73 71 69 68 66 66 68 67 65 67
72 55 54 62 69 77 64 54 42 33 31 33 43 53 73 82 78 97 94 92 88 92 92 92 90 90 88 86 85 84 79 77 76 74 68 69 69 69 69 75 73 70 69 68 67 70 68 67 71
61 54 58 66 78 71 59 46 41 30 31 32 41 61 76 83 85 88 91 88 88 93 93 91 92 90 88 85 83 79 77 75 75 71 69 75 71 70 70 78 74 72 70 68 68 70 68 68 70
54 54 62 80 77 61 53 51 44 32 28 28 62 76 80 79 75 82 87 90 95 98 96 95 92 91 90 88 84 77 74 73 71 69 76 78 72 70 77 79 77 78 73 69 70 70 70 69 70
58 62 81 85 76 63 55 46 41 34 29 37 61 86 87 79 83 86 90 89 95 97 95 86 92 91 90 87 84 80 74 71 70 72 79 79 73 77 82 79 77 75 72 70 72 72 72 72 69
79 65 90 89 75 62 59 50 46 34 30 78 82 86 89 88 89 89 84 88 88 94 94 80 91 91 90 88 86 83 76 72 69 76 80 76 75 79 78 77 76 74 71 71 73 73 72 70 68
76 82 87 86 80 68 59 54 47 35 30 43 73 93 91 92 88 88 88 90 89 93 96 96 95 92 92 91 88 85 81 79 76 79 82 84 86 85 80 77 75 73 72 71 73 74 72 70 68
75 68 88 78 69 67 66 58 52 38 31 38 77 92 91 91 91 95 96 98 97 98 98 99 98 88 78 80 90 89 87 85 81 81 87 90 90 88 82 84 82 77 74 74 76 75 73 71 70
77 85 72 67 67 61 70 66 56 51 39 63 83 86 85 92 95 97 99 99 99 97 99 99 98 95 92 89 84 91 91 89 86 86 91 94 96 93 91 91 85 83 82 79 78 78 74 79 81
90 85 69 52 54 71 72 69 68 58 54 77 97 94 89 90 95 98 98 96 99 99 98 98 97 96 95 80 93 95 92 96 94 92 93 96 95 95 90 93 90 86 87 87 82 81 80 86 93
88 75 63 50 51 76 75 67 62 66 52 45 86 97 93 93 97 97 97 96 95 95 96 95 96 96 95 92 98 99 99 98 97 93 94 95 93 97 97 98 97 97 96 98 95 93 95 92 89
86 67 55 58 77 82 77 67 69 66 55 53 44 93 92 94 95 95 96 96 95 94 94 92 92 95 96 97 98 99 99 98 98 97 94 97 98 97 97 98 98 98 98 98 99 98 96 93 89
73 64 56 79 75 74 70 73 78 72 57 52 47 89 91 92 91 92 91 91 93 93 91 89 90 94 96 96 98 99 99 99 98 97 95 94 96 96 97 97 98 98 98 99 99 99 97 95 84
70 56 64 79 76 74 77 72 74 66 57 40 81 88 89 88 87 90 92 90 92 91 91 88 88 88 90 96 96 97 98 98 99 98 94 91 89 90 94 97 97 98 98 98 98 98 98 97 94
71 73 74 77 69 69 71 88 87 61 54 43 40 54 51 69 81 85 87 88 90 90 84 88 87 90 85 87 93 92 90 90 98 97 96 89 86 86 82 90 97 92 97 96 98 98 98 98 94
77 78 86 68 58 56 78 86 75 65 57 44 41 40 40 38 36 56 79 87 86 89 87 84 73 88 92 82 86 86 83 86 90 96 96 91 85 83 82 84 86 86 93 93 97 97 98 98 98
83 95 84 68 52 59 72 61 57 57 56 46 40 44 40 39 38 37 35 45 53 86 90 89 86 87 89 93 93 90 85 84 83 89 88 86 83 82 80 79 79 85 84 86 88 94 94 97 96
88 86 75 68 56 52 63 51 41 41 40 39 36 44 46 40 34 33 33 43 43 46 49 70 80 82 91 93 95 96 97 96 96 96 89 84 78 80 86 87 84 89 89 91 94 84 96 91 90
71 73 72 61 52 54 55 54 47 41 43 44 46 48 47 40 42 42 43 47 54 57 50 47 42 44 56 93 96 97 97 96 97 97 93 93 94 88 89 88 90 93 93 89 94 94 92 95 93
67 76 76 60 52 52 57 58 49 44 49 46 42 46 47 40 48 50 55 62 63 68 68 64 60 55 48 52 58 81 96 97 98 97 96 94 95 96 96 96 95 95 96 95 94 95 95 96 97
78 76 71 65 55 54 55 61 53 47 54 48 44 42 45 40 46 57 62 66 68 71 72 67 65 62 57 52 52 56 58 70 89 94 97 96 95 96 97 97 98 97 97 97 95 95 95 93 98
84 62 55 58 62 79 53 82 52 53 52 50 49 48 44 40 51 58 64 69 71 74 71 68 65 63 61 63 60 54 55 55 61 70 73 62 66 82 93 96 97 98 98 99 97 96 95 96 96
71 57 60 64 69 70 67 74 58 54 57 48 44 50 46 43 56 63 64 66 72 72 73 73 68 68 70 69 69 69 66 66 67 67 66 67 72 87 88 92 98 99 99 98 98 98 98 97 97
62 68 72 79 78 93 70 69 69 54 48 45 42 50 45 60 68 68 69 73 73 78 79 75 72 72 73 76 80 83 82 81 82 86 89 89 88 94 93 92 95 96 99 99 99 98 98 99 99
70 80 98 97 98 94 72 71 54 44 46 44 42 50 56 70 76 77 78 75 76 79 78 73 74 74 74 82 87 91 92 92 92 95 96 95 96 97 96 95 96 97 98 98 98 98 98 99 99
75 74 92 89 96 87 76 84 60 48 47 43 44 50 68 76 81 79 76 76 78 78 78 77 74 73 74 83 85 87 91 93 92 93 96 96 97 96 95 95 95 96 96 94 98 99 99 98 98
85 96 70 82 83 92 76 63 45 43 44 49 55 63 70 72 80 80 79 79 81 82 78 76 74 74 76 83 86 89 88 88 88 87 85 85 86 73 91 93 94 93 92 96 93 96 95 97 98
88 79 87 93 86 85 76 76 53 49 49 55 64 66 68 72 80 80 80 81 83 81 79 77 74 75 80 85 85 87 90 88 88 87 90 86 83 79 80 84 85 87 88 93 95 97 97 93 94
96 94 87 81 86 84 88 64 50 41 44 56 61 62 68 78 79 82 84 83 83 82 78 78 77 79 84 86 89 92 92 92 92 92 91 91 85 82 82 80 83 86 91 93 96 95 96 96 92
81 82 87 93 89 91 89 71 41 47 44 54 60 58 64 72 77 76 74 82 87 83 80 81 81 82 84 85 88 92 92 94 96 97 96 93 91 86 86 85 86 88 89 94 95 95 95 95 96

GFSSGP_sfc_rhum_066.txt.gz
RH
71 65 60 48 56 71 68 50 55 38 32 31 36 40 44 75 58 56 91 95 95 91 93 89 88 87 88 87 85 86 85 84 80 76 74 71 69 70 73 71 70 69 67 66 68 68 66 67 68
74 57 52 61 68 75 61 57 46 40 30 64 52 64 77 86 88 98 97 93 89 93 95 93 89 90 87 86 84 85 82 79 77 73 68 67 69 69 74 73 71 71 67 67 70 69 68 72 72
66 51 53 64 82 74 54 52 50 41 33 34 70 73 81 87 94 94 92 92 93 96 96 94 91 89 87 86 84 80 79 78 75 70 73 72 70 68 76 74 72 72 69 69 70 69 68 72 70
64 51 58 74 79 62 56 58 52 45 31 31 69 80 83 84 87 86 95 94 96 97 97 95 91 91 89 86 83 78 76 74 72 70 77 72 71 69 75 76 76 74 70 69 70 69 69 70 71
66 55 72 85 77 69 66 53 53 48 37 37 70 88 89 86 92 97 96 87 83 98 97 95 92 91 89 86 83 78 73 72 71 76 78 74 71 75 81 78 77 74 70 71 71 71 72 72 70
81 66 86 87 74 65 62 61 61 47 38 76 84 90 92 91 97 96 94 92 92 97 97 94 93 92 89 85 84 81 74 71 72 79 80 80 78 83 80 77 76 73 71 71 72 73 72 71 70
88 85 80 81 69 67 58 62 61 58 43 35 82 92 95 95 94 95 96 96 96 96 96 92 92 95 93 89 87 84 80 77 78 82 82 83 86 86 81 77 76 73 71 71 73 74 74 72 71
89 78 85 80 72 65 68 61 60 63 56 38 73 89 96 91 96 98 98 98 98 98 97 96 96 96 96 95 91 88 86 83 81 87 89 91 91 90 85 85 82 78 75 74 75 76 74 73 74
86 92 78 80 65 62 70 67 64 58 55 60 94 93 91 96 98 96 96 96 96 94 93 98 98 95 92 94 92 92 89 87 85 89 94 95 96 94 92 92 88 86 82 77 77 77 76 79 82
91 90 76 56 60 67 73 72 71 61 58 66 57 81 98 93 98 92 91 88 89 91 96 99 98 96 94 82 96 96 93 95 93 92 94 97 96 96 92 94 90 87 87 87 81 82 82 86 93
96 81 68 55 68 70 73 74 66 65 58 62 68 54 88 91 98 92 89 86 88 97 98 99 98 96 95 94 98 99 99 98 97 93 95 96 95 97 98 98 97 97 96 98 95 96 96 92 92
96 74 62 67 73 72 71 68 73 78 63 60 55 57 84 96 94 96 96 97 98 97 96 97 97 97 96 98 98 98 99 98 98 97 94 97 98 98 98 99 97 98 98 98 98 99 97 94 92
89 76 65 67 72 76 66 77 71 72 64 58 53 67 93 97 98 97 96 96 96 96 95 95 95 96 97 97 98 99 98 98 97 97 96 97 97 97 97 97 98 98 98 99 99 99 98 96 94
71 67 63 82 75 79 73 80 68 47 62 59 54 61 92 95 95 94 95 96 96 94 94 93 94 94 96 97 97 98 99 98 98 98 97 95 96 94 96 96 97 98 98 98 98 98 99 98 96
69 84 91 90 83 84 70 78 82 54 58 62 62 44 54 76 88 92 93 94 93 93 91 92 90 92 95 96 97 98 98 96 99 99 97 95 94 94 88 95 97 97 97 96 97 98 98 99 97
82 83 94 86 89 82 73 84 75 63 80 71 64 48 41 38 40 74 85 91 92 91 91 92 79 90 93 94 95 97 95 97 98 98 98 96 93 92 92 91 94 94 97 98 98 98 98 98 99
84 95 89 92 74 86 72 83 56 72 82 74 62 57 43 41 36 35 34 69 89 91 92 92 89 92 94 94 93 95 93 93 93 96 98 96 95 91 91 89 86 91 96 97 95 96 97 97 97
92 94 89 92 71 80 75 64 68 72 75 76 58 53 46 43 42 34 34 45 45 48 69 85 93 92 93 96 96 97 97 96 93 90 91 92 92 94 94 95 92 91 94 96 96 93 97 96 94
77 81 84 77 63 74 80 69 56 65 77 73 64 50 52 44 45 45 46 49 55 53 50 50 56 48 77 98 98 98 98 97 98 98 94 94 94 90 94 92 90 91 95 91 94 95 95 96 96
72 83 84 70 62 64 63 65 51 52 63 61 51 45 41 48 43 49 51 68 59 65 65 62 59 53 50 59 67 90 96 97 98 97 96 96 96 96 97 96 96 96 97 96 96 96 97 97 97
78 82 83 76 65 59 63 66 64 56 49 44 40 42 45 48 44 52 65 69 73 71 69 65 64 63 62 55 54 56 58 66 82 93 96 91 86 95 98 98 98 98 98 98 97 97 97 97 98
84 67 60 65 74 88 59 89 67 54 52 50 44 40 47 46 48 55 64 76 78 79 74 67 64 63 63 66 61 54 55 55 63 70 71 66 70 79 88 92 97 99 99 99 98 98 97 97 98
72 62 62 66 75 76 73 80 69 51 52 45 40 40 48 46 46 56 66 70 78 78 78 75 72 73 75 73 70 71 69 71 73 76 81 84 90 93 92 93 94 94 93 95 99 99 99 98 98
64 68 75 82 81 95 73 75 75 59 45 42 41 40 42 44 46 64 73 79 81 84 80 79 75 77 79 82 87 86 85 85 86 90 94 96 96 96 94 92 95 96 98 96 96 99 99 99 99
68 79 97 96 97 94 80 78 57 48 45 40 36 37 47 50 65 75 84 83 84 85 80 77 75 77 85 89 92 93 93 94 95 97 97 96 97 97 96 95 96 98 96 89 98 99 99 99 99
80 75 92 90 96 89 82 89 62 49 44 46 42 44 49 69 81 81 86 83 84 82 82 80 77 78 86 87 89 91 91 90 89 88 91 92 94 96 95 95 95 94 93 94 94 99 99 98 99
87 91 69 82 87 92 82 68 45 44 45 46 46 62 68 80 88 85 85 84 86 85 83 80 77 79 86 88 90 91 90 89 89 88 87 86 84 70 85 88 90 90 91 94 92 92 96 96 97
86 80 88 93 87 88 78 77 59 46 43 42 54 67 75 79 85 87 86 85 87 86 84 81 77 80 88 89 88 90 93 91 91 90 93 89 85 83 83 85 88 90 92 95 96 97 97 92 94
95 95 89 83 84 83 87 69 54 45 38 42 50 66 73 81 85 87 88 87 88 86 84 82 82 85 89 89 92 93 94 95 95 95 95 94 89 88 87 87 89 91 94 95 96 96 96 90 91
86 90 86 96 91 94 91 76 53 45 45 46 58 64 69 75 83 87 89 90 92 88 87 85 86 87 89 91 93 95 95 96 97 98 97 95 96 95 95 93 93 94 94 95 96 96 95 96 96

GFSSGP_sfc_rhum_069.txt.gz
RH
69 56 52 48 45 49 45 38 40 33 25 26 25 27 35 49 38 34 77 79 69 76 72 73 88 88 87 87 85 86 86 83 78 75 72 70 71 73 72 71 70 66 66 68 69 68 69 70 71
68 49 50 53 50 47 43 43 38 34 28 44 34 54 54 61 75 90 83 82 71 76 71 70 90 89 89 87 85 85 84 79 76 73 70 69 69 73 73 72 72 67 68 70 70 70 72 73 73
56 45 48 53 59 48 39 42 43 39 36 30 50 59 62 69 82 79 73 79 73 75 72 74 90 90 89 87 86 82 79 77 74 70 71 70 68 74 75 73 72 69 70 72 70 70 74 72 72
58 49 51 52 61 51 40 44 44 42 26 25 51 65 68 69 74 71 77 77 79 78 71 83 91 90 90 87 85 80 78 76 72 77 75 72 69 75 76 76 75 72 72 71 70 70 72 73 73
56 53 63 69 59 54 47 45 48 38 33 28 52 66 75 74 77 83 81 76 77 83 75 75 90 90 88 86 84 80 74 72 74 78 77 73 71 76 79 78 76 72 73 72 70 72 73 72 72
84 66 70 68 62 53 50 48 44 45 37 47 62 74 78 82 84 83 80 73 73 84 79 74 91 91 88 86 84 80 74 72 79 82 79 76 76 84 79 76 76 74 72 73 73 72 72 71 71
77 87 74 67 56 55 49 51 48 50 43 28 68 72 83 87 87 87 79 77 82 80 78 77 76 82 90 88 86 83 78 78 83 83 82 86 88 86 79 77 76 74 72 75 76 75 74 72 71
84 77 82 67 57 51 58 51 53 51 42 40 63 65 78 81 89 91 88 87 82 82 77 78 78 74 72 70 89 87 84 82 86 88 89 91 92 88 85 85 82 76 74 74 77 77 75 74 74
80 92 85 72 60 58 62 56 56 52 47 63 63 87 85 88 91 93 95 92 87 84 81 78 78 77 74 72 76 85 87 84 87 90 94 89 74 75 76 86 88 85 80 76 77 78 77 79 81
88 86 73 55 54 68 67 63 61 49 47 50 43 43 76 93 92 88 88 86 84 83 86 80 79 78 79 74 73 73 71 65 60 68 76 75 75 74 76 85 90 86 87 86 79 80 81 79 60
81 81 61 50 64 65 66 67 60 54 53 58 55 52 56 91 92 86 84 79 80 78 86 86 82 78 76 75 78 78 75 72 66 67 71 75 77 76 74 75 72 75 86 73 75 75 71 71 63
82 70 55 67 67 64 64 63 60 59 51 54 52 53 54 89 90 86 84 83 83 86 87 84 81 82 78 75 77 77 76 76 72 70 69 71 72 76 76 75 74 75 74 77 77 73 74 73 68
83 72 58 70 73 65 63 72 61 64 57 52 48 47 78 77 85 84 82 80 84 88 83 84 84 82 80 81 80 79 78 76 73 74 71 70 70 69 70 71 71 72 74 76 76 75 72 72 69
75 71 70 73 73 72 67 70 56 61 53 49 50 51 42 80 85 87 89 89 90 81 80 78 83 81 79 80 80 77 77 76 77 76 74 73 70 69 69 65 66 66 70 69 70 69 70 70 70
65 77 85 80 78 77 70 70 70 54 58 55 53 52 46 36 60 81 82 88 86 83 76 78 77 77 78 78 79 77 77 77 79 77 75 75 74 73 70 67 65 65 66 68 70 70 72 74 71
83 84 88 83 80 92 87 80 56 58 59 58 58 53 51 42 33 38 70 80 82 82 78 76 72 75 75 75 76 78 76 75 75 76 77 78 76 74 73 71 68 62 67 69 70 69 72 72 71
82 91 88 95 74 88 86 76 56 63 60 65 59 54 50 43 36 32 29 48 76 76 76 78 77 74 76 76 74 78 80 75 73 74 74 76 76 75 74 72 70 67 69 69 69 69 71 68 67
91 90 90 84 88 83 83 71 69 70 65 59 59 54 51 47 41 34 31 30 34 51 68 78 77 76 77 78 80 80 85 82 74 71 71 73 71 75 80 78 74 71 72 72 72 71 69 69 67
73 78 80 77 74 81 80 65 71 66 68 61 57 55 50 47 40 33 34 35 39 41 47 61 76 72 80 85 86 89 85 85 87 83 74 71 73 74 79 80 78 81 83 76 74 72 74 73 79
69 82 74 60 69 66 78 72 59 62 65 58 44 51 49 45 38 36 37 40 44 46 48 47 49 44 54 73 78 83 86 86 84 86 83 83 83 83 84 83 83 81 84 81 79 80 81 84 86
74 78 75 68 69 56 67 70 65 55 58 58 54 50 45 43 37 36 41 46 54 52 55 53 53 50 50 46 47 50 51 57 66 77 82 55 59 71 86 91 94 93 92 92 87 87 88 90 87
76 65 64 69 74 84 61 80 66 55 58 56 49 44 43 41 40 40 46 53 59 62 66 60 59 57 57 56 50 45 45 46 54 56 59 60 72 75 76 78 80 85 90 96 95 93 93 92 95
69 63 63 67 69 67 62 74 63 58 58 55 49 42 40 38 39 39 47 58 64 70 68 66 65 65 65 63 60 58 58 59 61 64 70 71 77 77 77 77 80 80 84 85 86 93 97 96 93
64 65 70 75 69 89 69 68 65 54 48 46 43 42 40 37 39 40 57 67 70 72 72 71 66 68 70 72 73 70 69 68 69 74 74 76 78 78 78 78 80 83 87 88 89 88 92 97 96
62 74 92 91 93 87 69 73 55 45 41 38 36 35 35 37 42 48 65 72 73 74 73 69 67 72 74 74 76 77 79 80 82 82 80 78 77 79 79 80 80 81 81 83 82 91 95 98 98
68 67 86 89 92 82 71 81 54 44 42 41 40 40 41 42 44 52 63 72 73 73 71 67 67 75 74 74 75 75 74 72 72 72 72 70 70 72 72 75 75 75 76 80 82 91 94 96 98
83 84 62 79 76 78 67 60 45 40 36 36 39 43 49 51 63 64 73 70 72 70 70 66 66 73 73 73 72 73 71 72 73 73 70 69 68 62 68 70 74 76 78 81 82 84 89 89 91
77 66 81 89 85 78 64 62 48 40 37 35 34 44 52 66 76 76 74 73 72 70 71 67 65 69 73 72 72 74 74 74 74 74 75 74 70 70 71 73 74 76 78 80 82 85 85 86 88
89 88 87 75 76 76 70 55 47 45 35 40 40 46 58 71 74 74 75 75 74 72 71 68 68 72 73 74 75 76 78 79 78 78 79 76 75 74 74 75 76 77 78 78 79 82 82 81 82
83 83 79 90 88 87 78 67 42 37 40 45 47 55 62 70 75 76 76 77 78 73 71 70 71 72 73 76 77 80 81 82 84 84 83 80 81 80 78 77 77 79 80 79 80 81 81 81 83

GFSSGP_sfc_rhum_072.txt.gz
RH
55 40 36 35 29 25 23 24 27 24 18 20 18 16 26 25 20 31 53 48 41 45 51 64 87 87 87 86 84 84 84 81 76 74 72 71 74 72 72 71 66 66 68 69 69 70 71 72 72
46 36 32 36 27 26 23 23 25 27 23 28 29 30 29 33 46 63 54 54 44 46 54 53 90 89 88 85 84 84 81 78 76 73 70 70 74 73 73 72 66 68 68 71 72 73 74 74 73
45 33 30 30 26 24 21 27 28 29 26 28 32 40 37 45 56 49 45 49 44 47 47 59 90 89 88 85 85 86 79 76 72 70 70 70 73 76 75 72 69 71 73 71 73 75 74 74 74
40 33 30 28 27 26 26 33 34 27 21 23 28 40 49 54 51 46 50 45 45 46 44 78 90 90 90 89 85 80 78 75 72 76 72 70 73 77 77 74 72 72 72 70 72 73 74 74 77
39 34 35 33 32 30 31 34 36 28 24 22 36 43 53 57 54 55 50 45 47 44 47 60 91 91 88 87 84 80 76 74 77 78 73 72 74 80 78 76 74 74 72 71 72 73 73 74 76
54 36 38 35 32 37 35 35 32 30 24 34 43 45 54 67 72 71 48 47 45 46 53 58 91 90 88 86 83 79 74 73 78 81 76 74 80 81 78 76 74 73 73 72 72 72 72 72 73
58 47 37 37 38 43 38 38 33 31 24 35 49 46 62 78 76 73 51 46 51 47 50 62 62 75 91 88 85 82 79 81 82 85 82 84 88 83 78 76 75 72 74 74 74 73 72 72 71
56 45 45 44 45 43 47 42 43 32 32 38 54 46 60 66 84 81 70 69 55 54 53 58 56 55 56 57 88 84 82 85 88 88 89 90 89 86 86 84 80 75 74 76 76 75 73 73 71
69 67 59 45 43 42 48 44 44 38 36 37 38 62 65 67 86 89 86 73 60 57 56 53 51 50 51 50 64 82 83 86 90 85 93 81 50 55 66 83 85 82 76 76 77 78 76 75 77
65 71 49 35 34 36 47 44 46 37 38 37 35 41 69 85 89 86 77 81 75 69 60 54 52 53 53 51 54 52 50 41 40 46 51 45 50 50 56 76 88 82 81 81 78 79 80 78 40
67 74 40 35 38 46 50 48 48 35 42 40 40 40 56 92 90 82 75 72 69 66 73 56 56 55 55 54 52 50 49 47 45 46 47 44 45 50 51 50 55 55 81 53 61 59 47 49 46
64 53 44 42 40 42 49 46 46 44 41 38 38 41 52 83 88 82 78 67 64 70 73 64 57 59 56 54 53 50 50 50 48 50 50 48 47 48 43 42 45 48 43 49 52 44 44 47 48
56 46 44 41 45 41 50 57 46 46 41 38 35 34 57 68 78 74 73 64 60 63 68 64 60 59 59 59 54 53 51 52 50 53 52 49 50 47 46 42 40 41 42 46 46 46 42 42 42
44 47 45 47 48 50 50 52 50 42 39 35 34 35 34 50 66 73 77 77 77 62 58 57 60 56 56 58 57 54 52 51 53 53 55 55 52 52 50 49 42 42 43 45 47 47 47 47 46
51 58 54 53 52 56 47 58 56 35 41 37 33 32 34 33 31 60 61 68 70 68 61 57 57 55 55 58 59 54 54 52 54 54 54 56 56 56 54 51 49 43 45 46 47 49 50 52 50
59 54 73 52 54 68 57 65 47 37 42 38 32 31 36 33 30 25 43 59 64 64 63 58 59 58 56 54 56 53 52 52 53 53 54 56 55 56 56 55 54 51 48 50 50 51 52 52 51
63 55 59 68 51 71 59 53 44 39 42 41 34 32 35 36 30 27 23 31 58 60 64 67 64 57 57 55 53 54 57 53 51 53 53 55 56 56 56 54 53 52 54 54 55 54 54 54 52
50 47 51 55 64 62 62 55 62 53 48 40 32 31 34 38 34 29 27 22 25 52 59 65 68 62 56 56 57 57 60 57 53 53 53 55 54 56 58 56 55 53 56 56 56 59 55 58 57
32 43 56 52 68 65 60 58 52 45 45 44 35 30 33 34 31 30 28 25 24 29 44 54 61 61 60 62 64 67 66 62 67 62 59 57 56 56 59 59 59 62 64 60 58 60 63 63 59
45 46 52 55 60 59 59 60 50 41 40 36 39 32 31 32 33 31 27 25 26 24 31 39 50 60 62 62 62 62 64 62 61 66 66 67 67 67 70 71 70 68 70 70 69 69 72 70 66
45 43 52 50 62 54 56 60 54 42 37 39 32 28 27 29 31 32 28 27 31 30 34 37 41 44 46 54 56 55 53 56 61 67 72 55 56 67 78 84 88 89 90 90 87 86 89 92 82
57 41 46 57 59 51 47 34 42 46 45 39 35 32 30 35 32 31 31 31 34 38 47 42 42 42 43 40 38 41 43 43 40 42 45 46 53 56 58 61 61 63 70 79 83 84 88 92 92
53 49 46 50 44 48 53 51 28 38 42 38 34 32 30 29 34 32 32 36 42 51 53 48 46 46 47 43 41 39 40 40 42 44 50 52 58 60 60 60 62 62 66 68 70 74 81 92 94
49 50 50 51 46 72 42 46 32 35 34 32 28 30 32 29 29 31 30 37 45 56 57 55 50 51 51 51 49 48 50 48 48 53 53 55 57 60 62 62 62 65 66 70 76 81 79 83 85
48 53 86 83 89 59 50 52 33 29 29 29 28 26 27 27 28 30 35 43 49 59 59 54 49 52 53 54 54 55 58 56 57 58 56 58 55 58 60 63 63 62 64 66 70 74 82 88 92
55 44 60 63 61 46 54 56 30 27 29 29 29 27 26 26 26 32 32 42 51 56 55 50 50 55 53 54 57 56 57 53 53 57 54 52 53 54 57 59 60 60 60 63 68 73 78 89 95
61 69 42 57 52 54 41 41 31 23 24 22 23 27 29 27 28 30 36 41 49 52 52 49 51 54 54 54 53 54 54 57 57 58 55 53 53 51 53 56 60 61 62 64 68 70 75 80 88
56 42 63 78 80 58 40 37 26 28 26 23 23 24 25 30 36 38 42 50 50 50 50 50 48 52 53 53 51 53 54 55 56 56 57 57 54 56 57 58 59 60 62 64 67 71 72 73 77
62 60 61 48 56 49 40 29 25 26 26 28 28 32 34 37 44 45 49 51 52 52 53 49 49 53 53 52 54 55 56 58 57 57 59 59 59 59 59 60 60 61 62 62 64 68 69 71 73
67 54 48 65 72 62 56 38 26 25 26 31 33 36 39 44 49 49 49 54 56 55 51 51 50 50 52 53 53 56 60 61 61 62 64 62 63 62 61 61 61 61 63 62 64 69 68 71 74

GFSSGP_sfc_rhum_075.txt.gz
RH
59 34 30 34 35 24 25 22 17 20 18 15 15 16 24 24 20 47 36 31 37 42 52 65 87 87 86 83 83 82 79 77 75 72 71 73 72 72 69 66 67 68 69 69 70 72 72 71 71
44 30 32 27 32 26 24 17 23 18 17 20 21 21 26 33 37 46 41 33 35 40 52 55 90 88 87 84 83 81 78 77 76 72 72 75 73 73 70 65 68 69 70 70 72 74 74 74 73
46 30 30 27 25 24 22 19 17 22 23 22 20 29 26 45 41 36 34 34 36 44 46 68 89 89 87 84 85 82 78 75 72 72 72 74 76 74 71 68 72 73 73 74 74 75 75 76 75
37 32 29 28 27 19 16 19 24 22 20 22 20 25 41 42 38 33 37 32 37 41 43 83 91 90 89 88 87 81 77 74 71 73 72 73 78 77 72 71 74 74 73 74 74 74 76 78 78
44 31 32 32 27 17 19 26 28 22 20 25 26 35 48 52 45 40 37 34 37 36 54 65 91 90 90 87 85 81 77 74 76 74 72 73 81 78 75 73 74 73 73 73 74 73 74 77 77
60 32 39 33 26 20 22 27 25 23 20 23 32 37 60 61 54 42 36 35 35 39 54 62 90 90 88 85 83 79 75 75 79 76 75 74 82 78 77 75 74 73 72 72 72 72 72 73 76
65 42 39 29 26 34 29 30 25 25 21 35 30 39 61 69 72 44 36 35 35 48 55 58 63 76 90 88 84 82 79 82 82 84 82 87 86 83 78 77 73 73 74 74 73 72 73 71 71
51 53 40 32 30 37 33 33 36 29 27 38 42 37 63 72 82 68 44 38 36 50 51 59 59 56 56 58 85 84 86 88 90 88 91 91 87 88 85 84 79 74 75 76 76 73 73 72 71
55 86 58 42 42 36 36 31 35 32 30 34 37 51 60 73 82 82 74 59 42 57 63 60 58 50 50 49 64 79 85 90 88 86 90 85 50 57 69 86 86 80 75 76 76 76 75 74 75
86 89 44 29 26 34 32 33 35 32 32 34 34 42 68 79 87 88 84 79 66 66 67 62 56 53 54 45 54 48 41 53 48 46 51 44 43 50 58 74 86 80 80 80 77 78 79 78 43
74 82 44 34 41 28 39 40 38 32 37 35 38 41 78 85 89 89 76 61 65 64 59 61 61 55 56 47 51 44 44 37 36 38 40 36 39 47 49 52 60 61 85 59 69 69 58 43 44
70 61 60 65 37 36 40 32 37 40 39 34 33 38 70 89 88 82 69 63 60 62 62 57 58 64 59 53 48 40 41 43 42 44 42 42 41 42 38 38 40 44 42 44 47 43 40 42 42
64 47 50 68 46 34 34 37 47 44 36 32 30 34 57 78 77 79 78 70 60 63 68 56 53 53 60 60 49 42 41 45 43 46 45 43 45 43 41 38 36 37 36 40 42 44 40 39 37
33 39 52 53 60 37 38 38 44 40 32 32 31 31 41 58 64 74 75 75 71 59 59 57 58 56 55 55 56 51 41 42 44 46 49 47 46 48 46 45 41 37 39 41 44 44 45 45 44
34 40 46 62 80 57 38 48 48 29 35 33 31 28 33 35 52 56 58 67 62 59 56 58 54 52 60 55 58 45 43 42 46 48 47 49 50 52 50 48 48 41 42 43 43 45 46 48 47
47 42 68 43 48 53 48 53 41 30 33 38 33 28 29 33 32 30 45 51 54 55 52 52 48 51 47 50 58 52 44 45 47 46 47 49 48 52 53 53 52 50 47 48 50 50 52 51 50
59 52 52 43 42 54 53 44 36 35 36 37 35 30 27 30 31 27 26 39 51 53 53 57 56 52 50 50 51 48 47 47 45 46 47 49 50 51 53 51 51 49 53 53 53 53 53 55 55
50 42 41 38 47 48 54 52 48 41 44 41 34 31 28 30 31 26 26 24 32 49 52 57 61 56 51 51 51 53 54 53 48 47 48 49 49 51 55 54 53 51 54 56 56 57 58 61 62
24 29 36 31 38 55 53 53 50 44 42 43 39 33 30 27 27 27 26 24 22 36 52 56 60 62 58 59 64 62 61 59 58 55 54 53 54 55 57 58 56 58 61 60 60 63 66 68 67
33 30 41 39 45 53 46 42 39 36 38 35 33 29 29 26 26 30 28 26 22 22 36 46 52 56 58 59 63 66 62 57 55 59 61 60 60 62 65 66 69 70 76 70 69 73 80 81 77
35 29 46 48 49 50 39 42 40 38 36 32 27 28 26 26 27 27 31 28 27 26 28 35 41 53 57 60 63 66 62 67 67 69 71 62 59 67 74 81 87 92 95 96 94 95 94 94 87
49 28 33 39 56 55 40 34 28 36 40 34 30 30 27 26 25 25 31 30 28 31 39 36 38 41 44 48 55 61 61 61 52 51 52 49 50 53 54 58 59 63 70 80 81 81 90 92 88
37 34 38 47 50 34 44 47 26 29 40 38 29 28 28 26 26 30 32 33 32 42 51 43 40 40 41 40 38 41 41 44 42 41 44 45 53 55 57 56 59 59 64 64 68 71 73 79 86
41 40 44 42 39 64 41 37 26 24 27 25 24 24 26 26 26 27 32 33 38 54 57 54 45 43 44 43 41 42 45 44 48 50 50 50 54 59 60 59 60 62 63 65 70 73 78 78 79
43 48 75 73 82 60 36 34 28 24 25 24 25 23 21 22 25 26 31 33 40 57 60 55 47 48 46 47 46 46 49 48 49 52 52 52 51 56 56 61 61 60 61 62 65 71 74 76 83
48 39 53 56 53 41 41 50 29 23 20 24 24 24 23 23 22 24 28 35 39 53 56 52 49 49 47 47 50 49 51 51 50 53 51 51 52 53 54 56 58 57 58 59 62 70 73 81 88
54 69 39 48 39 43 38 31 24 19 22 21 20 22 25 24 24 23 25 30 35 46 50 47 46 48 48 49 48 49 50 53 54 54 53 53 52 50 51 54 56 58 59 61 63 67 70 79 82
48 39 55 68 73 47 36 30 25 24 24 22 23 24 24 22 23 27 27 30 35 45 47 45 44 48 48 48 46 49 50 51 53 53 54 55 52 53 55 55 56 57 58 60 63 69 71 74 77
56 54 50 45 51 52 33 27 19 26 25 27 28 29 29 29 30 32 34 38 40 43 47 46 46 48 50 49 50 50 52 53 52 53 55 56 56 56 56 56 57 57 59 59 61 65 68 69 72
60 47 39 61 58 49 55 37 20 20 23 27 30 30 29 34 36 37 39 43 46 47 48 47 48 48 48 48 48 51 54 56 56 56 58 58 58 58 59 58 58 58 60 60 62 66 67 70 73

GFSSGP_sfc_rhum_078.txt.gz
RH
65 53 54 53 68 51 44 29 27 32 28 31 25 23 34 51 45 73 44 46 62 69 72 79 87 86 86 85 82 84 83 81 78 75 72 71 70 67 67 68 68 72 74 72 70 72 71 72 74
54 49 48 60 55 47 35 23 30 25 25 26 24 30 45 58 49 47 51 46 55 62 70 74 89 88 88 85 83 84 79 77 76 76 76 74 71 67 67 67 69 74 71 70 74 75 74 73 73
52 46 55 54 50 44 32 24 25 25 26 27 29 32 63 67 45 48 43 44 52 63 62 80 90 89 88 86 85 81 78 77 76 77 79 76 73 68 68 71 72 74 73 71 76 76 77 77 76
52 53 49 46 40 32 25 24 26 26 24 24 24 46 64 57 45 45 40 43 54 56 76 92 90 90 89 88 87 80 76 72 75 77 78 79 76 70 70 75 76 77 78 76 75 76 79 79 77
63 63 54 51 40 26 21 29 35 26 24 27 34 61 76 70 52 45 41 44 53 70 82 88 91 91 90 89 86 83 77 75 75 75 75 81 78 73 72 75 75 75 76 75 74 75 77 78 78
85 59 52 50 40 26 31 31 31 27 25 35 39 74 84 66 62 48 42 45 54 72 75 83 92 92 89 88 86 84 80 79 78 80 79 82 79 76 74 75 75 74 74 74 74 74 74 76 77
88 72 62 42 37 30 37 36 34 26 25 38 37 49 91 83 78 59 42 45 60 61 72 83 87 89 90 88 85 83 83 85 84 84 83 88 85 82 78 75 76 75 74 74 74 74 73 72 72
78 82 62 50 35 40 37 38 40 37 47 45 45 53 93 82 82 74 60 50 57 64 69 75 78 75 76 83 86 89 90 88 90 89 92 91 90 88 86 84 81 78 78 78 77 74 74 72 71
70 88 81 58 51 43 38 40 41 34 42 40 49 78 82 82 87 83 73 59 61 68 66 69 69 68 62 71 81 89 90 91 93 95 92 90 80 83 85 87 86 83 81 79 78 76 74 79 78
90 94 68 45 48 43 42 39 37 39 40 43 51 73 75 90 89 92 83 74 77 77 79 71 64 60 56 55 74 73 82 85 79 79 90 78 72 79 74 90 88 85 84 83 80 81 83 82 76
80 86 59 55 56 46 37 49 42 38 48 45 45 74 85 90 93 87 86 76 75 80 81 76 68 58 60 59 69 53 63 70 66 65 66 66 68 78 82 95 91 96 92 89 88 90 91 81 69
86 74 67 65 73 60 49 41 47 46 48 40 38 67 87 91 92 91 85 77 76 77 78 76 71 66 64 63 70 55 59 58 59 60 55 60 61 66 68 76 83 83 88 83 86 81 80 64 59
88 69 61 60 67 71 58 42 45 48 40 36 33 59 85 90 88 86 86 75 77 80 80 78 72 73 73 65 70 55 62 62 63 64 60 62 66 65 61 58 60 63 61 61 67 66 61 58 54
55 50 62 60 59 65 81 46 48 44 39 36 34 44 71 80 83 91 94 89 81 74 73 80 72 70 72 68 71 62 57 60 64 67 67 61 67 67 66 66 62 60 59 61 65 67 67 66 64
34 61 77 76 64 68 81 88 58 46 41 39 38 40 44 54 73 80 77 88 78 76 72 80 77 77 68 69 66 61 65 55 65 67 64 63 66 70 68 70 69 59 61 58 64 64 67 69 66
51 55 84 78 64 66 75 68 48 41 47 43 42 39 44 42 44 57 69 78 76 75 79 74 65 70 71 70 70 65 58 62 65 66 67 63 64 69 74 75 75 72 66 69 72 74 75 76 75
76 80 60 66 65 71 83 82 44 41 45 46 45 44 38 43 42 36 49 64 68 68 73 77 68 66 63 70 68 65 60 61 60 66 66 63 62 65 72 75 74 70 76 76 75 76 78 80 67
73 61 57 51 70 62 80 72 54 42 42 41 44 43 40 40 40 36 33 41 50 71 74 77 79 69 66 66 72 69 67 66 65 62 61 60 63 63 70 76 74 72 77 80 79 80 72 71 75
45 46 45 40 43 57 59 63 57 56 56 55 48 44 41 39 37 35 33 34 32 48 75 77 80 79 75 76 73 75 74 75 80 76 69 67 65 63 70 72 68 70 71 74 81 85 88 90 88
73 47 45 42 62 66 59 56 49 52 55 53 51 46 43 38 34 38 36 34 33 33 59 74 77 82 87 83 89 88 86 87 84 81 76 74 76 82 84 90 91 92 93 91 87 92 93 90 85
82 54 49 75 59 63 60 60 49 46 44 40 42 41 39 37 35 39 39 35 34 32 41 59 65 75 79 84 84 86 87 90 90 90 90 68 69 78 83 82 87 93 96 98 97 97 97 98 94
68 44 40 52 71 77 58 68 50 39 48 43 43 38 38 35 30 30 39 39 36 36 43 42 52 57 60 67 81 86 88 90 75 77 71 66 63 68 68 70 73 75 82 91 94 89 95 96 99
57 40 51 58 64 58 67 76 46 38 47 48 48 41 40 39 36 31 40 39 39 54 55 51 52 55 55 56 61 70 60 59 57 58 61 64 70 70 71 72 73 77 81 83 87 89 93 94 95
49 59 63 61 64 89 54 56 48 44 43 44 41 35 34 38 37 38 45 45 49 68 66 59 56 56 56 56 54 54 56 60 64 67 67 70 75 76 73 71 74 75 78 80 84 87 90 92 88
56 76 93 94 94 83 46 52 46 32 32 35 34 36 33 34 37 38 46 51 59 71 71 65 58 59 59 60 58 60 62 60 64 70 72 72 75 79 75 74 76 76 73 74 76 82 89 91 89
62 58 84 73 85 73 48 71 44 34 31 32 30 34 31 33 31 40 43 50 58 72 72 64 61 61 59 60 63 64 66 71 71 70 72 71 71 73 68 70 72 72 71 73 75 83 88 87 91
68 79 52 70 50 74 60 48 36 30 33 32 33 31 40 37 34 34 38 54 62 68 67 63 62 61 60 62 63 64 65 65 70 70 69 72 69 58 65 68 71 72 72 74 76 84 88 89 91
70 48 70 88 78 64 56 48 44 33 32 30 36 39 36 32 29 36 38 45 53 66 66 61 61 61 62 60 63 62 66 68 68 69 71 68 67 66 68 69 71 72 72 74 78 86 87 87 88
68 83 64 60 77 86 66 47 34 35 35 41 43 43 46 46 42 42 45 44 53 64 66 62 60 62 62 62 59 62 64 63 65 69 70 71 70 71 71 70 70 71 73 75 79 82 83 84 79
66 66 56 91 76 76 79 62 30 34 34 39 42 38 42 45 49 49 52 56 61 68 68 67 65 64 61 59 59 67 70 69 70 71 71 70 74 73 73 71 72 73 75 78 79 81 82 86 88

GFSSGP_sfc_rhum_081.txt.gz
RH
72 61 72 61 64 66 68 37 32 38 36 34 29 27 52 65 67 68 65 78 81 87 83 82 86 86 85 82 82 84 82 81 79 75 68 68 67 68 69 72 73 73 68 67 71 70 73 74 75
74 60 62 67 70 68 50 32 34 32 32 30 31 39 66 65 54 63 88 78 76 79 82 85 88 88 86 82 81 81 80 78 81 79 74 69 66 67 67 72 71 72 69 71 73 73 74 73 73
61 61 69 73 67 63 47 26 32 29 26 29 43 51 75 76 49 61 73 73 75 79 82 86 89 88 86 83 82 80 77 77 81 82 78 71 67 69 69 72 72 69 73 74 75 76 77 76 74
65 90 83 72 62 45 37 35 28 31 25 25 43 60 80 80 81 54 64 72 76 77 90 91 90 89 88 87 84 78 77 76 79 83 80 73 68 72 73 75 77 75 78 76 77 78 78 77 76
82 95 89 81 65 38 31 30 31 32 26 29 48 82 88 84 83 59 65 65 83 93 92 89 91 90 90 88 85 81 75 75 77 81 78 75 70 72 75 77 78 78 76 75 76 78 78 78 77
91 93 81 80 62 38 35 34 28 32 26 31 64 81 92 95 91 78 60 76 83 91 90 87 92 92 90 88 86 84 80 78 79 82 82 77 73 72 74 75 76 76 75 75 75 75 77 78 76
92 95 85 59 53 43 40 42 40 37 34 50 51 87 89 91 96 84 78 79 84 88 92 95 92 91 92 90 88 86 84 84 85 86 86 84 82 79 75 76 75 74 76 76 76 74 74 72 71
90 91 83 74 50 47 44 45 49 42 56 46 53 88 79 78 88 85 81 83 85 89 92 97 96 89 90 89 89 91 90 90 89 88 92 92 90 88 84 85 83 79 78 77 76 75 74 72 70
79 90 87 74 64 52 44 46 43 38 46 61 70 85 77 83 80 90 89 91 88 86 88 90 91 87 87 91 90 92 92 93 93 96 92 92 94 90 88 89 87 86 83 80 79 76 75 77 78
85 92 78 61 66 51 46 44 41 45 51 81 88 80 90 88 79 85 95 92 90 89 88 84 82 80 79 63 95 96 90 97 96 96 94 93 89 89 83 91 88 86 86 85 81 81 82 82 83
81 89 72 72 74 62 50 51 45 48 56 54 96 92 95 97 81 81 88 93 88 87 84 83 79 70 69 67 83 97 97 95 93 94 94 88 83 90 95 98 96 97 92 94 91 93 96 91 88
88 73 73 76 81 75 56 48 54 50 52 42 77 87 94 96 94 77 93 94 91 84 90 79 70 69 63 68 71 68 83 86 85 81 79 75 88 92 97 98 97 97 96 96 96 97 93 91 81
79 78 75 70 80 72 68 71 52 53 43 42 78 80 96 96 94 93 85 85 85 91 87 82 73 74 71 67 73 59 62 65 67 68 68 66 72 72 74 84 91 94 92 91 94 91 83 76 66
70 68 72 73 68 88 76 78 60 54 44 41 77 86 91 90 92 92 93 93 85 83 89 88 82 72 73 66 77 68 59 64 72 72 69 67 72 72 72 70 67 67 66 64 71 74 73 72 73
64 72 73 74 75 81 75 79 73 51 47 43 57 83 83 84 83 91 92 93 88 87 84 90 88 83 80 75 69 68 63 60 71 74 68 67 73 74 72 75 74 63 66 62 70 72 75 76 73
69 71 90 67 83 83 86 82 70 53 51 50 48 56 56 59 71 83 83 85 88 87 86 82 74 85 85 81 73 70 66 63 68 75 74 67 69 74 76 76 82 74 68 74 76 79 80 83 83
78 98 95 91 77 88 84 81 61 69 54 54 53 51 52 52 48 64 79 86 86 81 88 90 85 86 82 85 80 71 66 65 71 72 63 65 69 72 79 82 81 78 82 80 79 82 86 86 81
82 80 74 79 84 79 88 81 64 68 61 57 57 52 52 52 46 41 42 60 80 84 85 83 85 77 76 87 91 86 73 68 67 66 65 63 62 65 70 78 80 78 83 86 87 88 83 76 77
69 64 65 58 72 76 75 69 60 58 61 57 57 54 49 48 44 41 36 37 57 82 86 82 83 85 85 86 92 93 79 72 78 88 75 71 68 70 73 76 74 80 78 77 80 85 84 89 91
81 63 58 55 70 62 62 63 60 59 63 61 58 59 53 48 52 44 38 36 34 53 84 92 83 92 89 92 89 92 89 90 90 92 82 86 87 90 92 93 91 92 92 92 91 93 93 91 88
84 69 65 62 75 80 75 81 68 56 57 58 57 60 55 47 43 46 45 37 35 35 69 77 91 89 89 91 92 91 96 97 96 96 89 70 78 81 83 84 86 90 94 96 97 97 97 98 95
91 63 56 64 80 90 70 90 63 53 60 59 61 61 58 54 45 43 45 45 37 35 48 63 71 87 92 92 94 94 96 96 90 92 73 72 69 72 72 74 76 78 83 86 92 90 94 96 99
79 66 57 63 74 73 81 72 55 49 58 58 54 55 50 46 46 43 43 40 39 41 47 52 59 63 79 76 89 94 78 72 65 69 70 70 74 73 75 75 79 82 85 87 88 91 93 96 97
67 69 78 77 75 94 69 68 61 57 46 57 58 54 48 44 45 41 46 43 51 64 59 61 58 59 58 69 67 79 59 61 64 69 73 80 82 82 78 78 80 80 81 81 86 88 91 94 94
75 80 99 98 96 81 55 61 53 43 37 42 48 52 47 44 44 45 56 55 70 69 69 63 60 62 61 60 62 62 61 60 64 69 76 80 85 86 78 79 79 79 76 76 79 84 90 93 95
78 80 86 86 92 74 53 69 45 39 38 38 36 36 37 38 37 43 57 56 66 68 71 66 65 66 65 65 68 70 69 74 74 74 75 75 77 76 72 74 76 77 75 78 80 85 90 94 96
75 86 56 74 62 81 68 57 36 41 39 41 39 36 38 40 39 41 53 58 70 78 73 67 66 64 65 67 69 69 69 70 72 72 71 74 73 63 70 72 74 76 76 78 81 87 92 92 95
65 60 72 89 76 70 76 65 51 42 40 46 48 50 48 45 41 41 47 66 77 81 80 73 69 69 70 66 66 67 69 68 69 69 69 70 70 70 74 75 76 77 77 79 82 90 90 90 94
75 85 71 66 86 87 71 56 41 41 49 52 52 49 50 52 49 50 50 50 68 80 79 76 74 72 72 69 66 67 68 68 68 69 70 71 70 75 76 76 76 77 79 81 86 87 86 88 91
82 76 68 90 77 86 86 62 37 44 47 47 48 46 49 54 55 54 56 62 78 80 78 77 78 74 71 68 64 67 66 66 68 68 70 73 76 76 76 75 77 79 82 85 86 86 86 90 90

GFSSGP_sfc_rhum_084.txt.gz
RH
71 66 74 65 65 68 71 43 34 46 54 34 32 42 64 73 61 68 88 85 85 89 84 84 86 84 83 82 81 82 81 79 77 70 69 71 72 72 73 73 69 65 69 70 71 73 74 74 75
75 59 77 70 76 72 50 40 31 36 40 36 37 53 68 69 69 93 90 87 84 84 84 85 87 86 84 81 80 82 82 79 78 70 68 69 69 71 69 67 66 65 70 72 74 74 75 77 78
61 70 82 78 78 64 44 30 28 28 32 46 47 64 74 87 76 82 87 83 83 88 86 88 88 87 84 82 82 81 82 81 81 72 68 68 68 69 67 68 66 72 74 74 75 76 76 77 78
72 94 95 76 75 50 38 32 26 35 36 33 46 69 79 83 90 85 80 81 91 96 94 91 89 88 86 85 83 80 81 80 80 75 68 70 69 70 71 70 76 77 78 76 77 77 77 78 80
88 97 87 93 80 45 35 29 35 37 33 39 46 84 83 79 74 81 82 79 94 98 96 90 89 88 86 84 83 81 80 83 81 76 70 71 72 72 77 77 78 78 77 77 78 77 78 79 76
97 92 84 91 77 48 35 27 39 31 30 52 69 70 82 92 87 85 77 86 92 94 93 88 90 89 88 84 83 81 81 81 85 81 73 70 73 75 77 79 79 77 76 76 77 77 76 75 73
95 91 90 75 65 51 38 40 33 32 31 50 63 80 95 90 92 93 88 92 92 94 97 97 95 91 92 90 88 84 83 84 87 85 81 79 79 78 76 77 77 76 76 76 75 75 74 72 69
94 84 89 74 59 54 44 47 48 41 58 50 63 89 98 80 93 91 94 94 92 91 90 98 98 94 96 96 92 91 90 90 90 89 90 89 88 86 84 85 82 78 77 78 77 74 72 71 68
89 92 86 77 58 50 49 48 44 46 54 69 79 74 67 76 82 91 98 98 96 92 95 98 97 95 95 96 93 94 93 92 93 94 93 94 96 93 91 91 88 87 82 79 77 75 74 78 78
92 88 78 64 70 58 56 48 43 56 79 95 94 89 81 76 77 83 97 95 98 96 97 92 88 88 92 81 97 97 94 98 98 96 96 97 96 96 86 92 89 88 88 86 80 79 81 81 84
84 86 68 68 84 74 65 58 48 55 61 72 92 87 94 87 83 78 84 90 96 93 93 90 86 84 80 91 99 99 99 99 98 97 97 95 90 96 98 98 97 97 92 96 93 94 96 92 91
96 74 66 77 86 77 84 74 60 54 55 62 85 83 95 89 86 85 85 93 98 98 91 88 82 79 76 81 94 98 97 98 99 98 96 97 98 98 98 99 98 98 98 96 96 97 94 93 90
83 76 72 85 83 79 70 78 66 54 48 68 88 89 94 96 95 88 85 86 89 93 90 85 78 74 72 74 76 83 94 94 92 91 89 85 95 98 98 97 98 97 97 97 97 97 95 94 91
66 85 69 88 82 79 82 79 68 57 51 88 84 94 95 93 94 96 85 88 83 83 92 94 81 71 71 72 78 64 69 77 82 82 81 73 81 84 83 83 92 96 90 95 84 94 88 80 77
71 86 89 82 79 88 79 81 69 66 52 83 88 92 91 94 94 93 91 86 84 83 86 89 91 88 77 74 72 70 60 60 70 73 74 72 73 74 77 78 78 72 73 68 76 79 81 82 79
74 83 96 90 86 93 76 85 74 74 69 58 78 91 91 88 88 93 92 90 92 88 88 88 84 92 91 83 80 71 67 67 64 68 74 71 74 75 76 79 83 75 69 73 77 81 83 86 86
90 98 86 88 74 90 81 83 65 75 72 60 60 67 62 60 62 80 87 88 89 88 85 88 86 90 93 93 84 82 69 68 65 68 75 71 71 76 79 79 81 83 84 80 81 84 88 89 85
90 91 84 82 87 81 93 89 78 75 78 69 62 61 58 56 49 66 80 89 87 92 93 88 88 84 89 92 96 92 79 71 70 76 70 66 68 72 80 83 82 83 87 90 91 89 90 83 82
77 84 83 75 76 80 86 81 77 70 66 72 69 62 57 52 50 45 53 62 88 94 95 94 86 84 87 96 98 94 89 84 89 88 74 68 70 70 80 76 76 78 80 79 81 84 86 91 89
73 63 82 68 77 75 75 80 68 73 60 69 63 62 55 56 54 47 42 45 68 86 94 96 88 89 87 90 94 93 97 97 97 96 91 92 83 85 87 91 94 92 92 90 91 91 90 91 85
83 82 69 86 84 74 76 80 70 61 59 63 61 57 58 52 53 50 47 41 41 67 87 94 94 89 91 91 94 96 96 97 98 95 92 92 91 92 91 92 95 93 94 96 97 98 97 98 96
80 68 62 72 88 96 85 94 70 64 61 62 67 71 65 61 53 50 50 46 40 38 69 87 93 93 92 94 94 94 95 96 97 98 88 89 84 80 76 78 79 75 82 88 92 91 96 98 98
78 71 65 74 87 83 98 86 57 56 62 65 65 66 64 62 59 54 48 47 44 39 43 74 84 91 95 96 93 96 97 94 84 84 84 82 82 74 74 75 80 83 86 88 90 92 93 96 97
78 81 84 87 96 98 79 78 65 56 51 59 58 62 58 55 54 49 50 46 51 50 54 69 77 81 90 89 96 94 91 84 90 89 87 86 87 81 81 80 82 84 85 85 88 89 90 95 96
84 86 99 99 99 86 69 84 70 43 44 46 52 58 60 57 53 50 53 59 59 63 64 67 68 67 70 84 83 90 82 79 76 77 86 90 88 86 82 81 82 83 80 79 82 86 90 93 97
88 80 91 90 92 74 65 81 50 42 39 42 49 54 41 44 47 52 52 63 69 67 71 69 68 68 66 65 68 72 73 72 78 76 79 85 85 80 75 78 78 80 79 81 83 89 92 94 97
84 88 62 70 68 83 64 53 40 42 41 41 40 41 43 42 46 46 65 63 72 74 68 64 69 70 71 70 75 73 72 71 73 72 72 76 75 68 71 73 77 79 79 81 84 91 92 94 95
71 63 75 87 78 74 77 73 49 53 46 48 47 51 52 51 48 48 55 67 70 82 83 79 74 73 76 75 74 73 73 69 70 70 73 71 70 69 71 72 73 74 78 83 85 91 92 92 96
75 79 74 70 87 80 75 60 42 42 51 52 55 53 52 53 55 55 55 60 75 83 86 84 80 79 81 77 74 72 70 70 70 70 69 68 71 70 70 71 74 77 79 84 87 89 88 90 93
84 84 73 87 76 89 86 60 46 46 53 52 53 52 67 60 57 61 62 67 75 83 86 86 85 83 81 78 76 75 70 71 76 72 71 72 73 75 75 77 78 82 86 87 88 89 88 91 92

GFSSGP_sfc_rhum_087.txt.gz
RH
71 71 77 80 80 72 63 43 43 56 66 55 43 56 76 77 58 67 91 84 88 89 84 83 84 83 82 79 80 80 81 78 75 75 75 79 79 77 74 70 69 70 69 70 71 72 73 74 76
71 60 82 87 85 73 53 42 32 47 62 49 40 57 75 83 90 93 93 87 86 86 86 84 86 84 82 79 78 78 76 73 72 74 75 73 74 73 69 68 68 70 71 73 75 76 78 79 79
66 68 96 93 94 58 51 42 25 37 53 52 47 62 78 86 81 88 92 84 85 91 89 87 87 84 82 79 80 77 78 72 70 72 75 74 72 70 66 66 69 73 75 76 77 77 79 80 76
78 90 95 79 89 62 41 36 29 42 46 55 54 58 85 84 88 93 81 85 95 97 96 90 88 85 85 84 83 80 80 75 70 70 71 72 69 66 67 71 76 77 78 77 78 79 80 81 76
90 96 88 88 85 61 40 32 28 40 43 54 50 60 89 83 88 83 88 91 90 96 96 90 88 85 83 82 83 84 81 78 72 70 71 70 69 68 73 78 78 78 78 77 77 78 80 79 74
93 94 97 94 68 62 44 32 33 36 38 41 60 74 90 90 93 89 88 95 85 87 96 88 89 86 86 83 82 84 85 81 75 71 72 71 75 71 74 78 78 78 77 78 76 77 77 75 71
93 96 89 81 62 62 45 38 34 35 38 52 54 76 94 96 94 85 92 96 97 98 97 96 93 91 90 87 86 85 86 86 83 77 76 79 80 80 77 79 78 77 77 77 78 76 75 71 67
97 96 87 75 68 63 40 45 47 34 47 61 66 92 94 88 97 96 95 96 98 98 98 96 99 97 97 96 90 89 89 90 88 85 86 87 88 86 83 85 83 78 78 78 76 74 71 69 68
86 96 95 79 65 57 47 48 45 50 61 73 72 82 73 88 92 98 97 97 94 91 91 99 99 98 97 96 95 93 93 93 93 93 92 93 96 94 93 92 87 86 82 79 77 74 72 78 75
91 95 88 68 63 52 54 48 48 64 88 96 96 83 76 89 87 96 94 98 97 96 97 97 97 95 96 86 98 97 94 98 93 96 96 97 96 96 91 95 91 89 88 86 79 77 80 83 87
85 86 70 68 86 75 63 66 59 68 70 86 92 96 91 90 81 92 93 94 97 95 96 96 91 94 93 96 99 100 99 99 99 97 97 97 94 97 98 98 97 97 94 97 93 94 96 92 92
89 68 73 75 87 81 83 85 65 58 58 60 82 87 85 86 82 80 80 86 95 97 97 93 93 88 87 98 99 99 99 99 100 98 97 98 99 98 98 99 98 98 98 96 96 98 95 94 93
88 61 83 84 85 81 77 84 80 61 56 92 89 81 81 84 90 88 87 78 88 90 94 93 87 92 74 92 98 99 99 98 98 99 97 97 98 98 98 98 98 98 97 97 97 97 96 95 93
84 67 81 77 84 85 84 86 76 64 65 95 87 94 90 90 88 94 91 93 82 80 83 93 85 89 82 74 86 89 97 96 96 97 96 91 94 98 98 98 98 98 98 97 97 94 96 94 84
64 75 83 84 86 86 80 83 82 80 60 93 92 91 95 97 92 90 87 89 80 78 85 83 82 91 93 81 72 72 78 76 82 83 85 82 83 90 91 88 87 94 94 85 85 85 88 90 85
82 86 97 88 89 86 79 85 82 83 68 78 86 94 96 98 92 86 86 85 79 73 78 77 78 91 93 94 93 77 64 66 71 78 79 76 73 77 80 81 80 76 73 76 79 84 87 88 89
85 98 97 92 80 87 84 90 71 75 79 66 78 80 74 81 94 96 84 81 81 78 78 81 79 89 88 92 97 94 90 71 66 76 70 74 74 73 75 79 82 85 78 78 81 85 89 91 90
97 96 94 97 95 89 89 84 85 73 77 80 67 67 65 58 56 75 92 89 90 84 82 84 86 88 87 89 91 98 99 96 71 72 68 70 71 75 79 81 81 86 91 93 92 88 88 85 86
66 88 91 89 86 84 88 88 81 77 76 78 73 66 61 60 55 50 82 87 95 96 91 88 89 84 90 95 96 95 96 96 96 92 75 72 70 76 80 86 85 87 85 87 82 84 85 88 91
77 80 85 79 80 78 88 86 79 79 78 76 72 66 62 58 54 49 48 60 88 96 95 93 84 90 90 94 93 92 91 93 96 97 96 92 87 80 79 86 90 94 94 90 90 92 91 90 92
86 85 84 83 84 80 85 88 81 82 79 74 67 65 58 57 53 53 50 44 50 77 96 95 93 92 88 90 97 98 98 99 99 98 98 95 96 97 96 96 97 97 96 94 96 97 98 98 96
92 74 74 86 89 99 86 96 79 66 71 60 61 74 66 60 58 52 50 47 44 42 72 93 94 92 91 94 95 93 96 96 96 97 97 97 90 94 92 90 90 88 90 92 93 93 96 99 99
89 77 77 77 86 92 97 98 60 62 72 58 69 68 69 65 61 59 53 48 45 42 44 80 95 96 96 96 92 93 97 96 99 96 94 91 95 91 91 90 87 88 87 89 92 92 93 97 97
82 84 84 90 96 98 90 85 62 63 57 50 56 64 64 64 61 59 60 54 52 50 46 60 82 93 96 98 97 96 96 96 98 97 95 93 93 93 92 89 86 83 83 83 86 88 90 94 96
88 84 99 99 99 89 80 80 70 59 46 44 48 56 62 66 62 56 54 54 56 56 51 58 76 82 94 93 98 97 97 95 95 94 94 93 90 90 85 80 80 80 79 81 83 85 89 92 95
92 77 88 93 95 83 81 83 65 46 47 49 52 62 54 57 55 56 54 55 59 62 64 65 73 74 73 80 86 94 91 94 92 94 92 90 91 86 81 80 80 80 78 80 82 88 91 93 97
88 91 68 72 74 84 76 53 41 47 44 45 44 42 44 49 50 54 67 63 66 72 73 70 72 70 70 70 77 78 89 82 93 90 91 87 83 74 80 78 79 78 77 79 81 88 90 94 95
76 71 75 87 80 70 76 74 51 56 51 47 50 51 52 54 51 52 56 71 73 83 85 78 74 73 77 78 80 78 75 76 78 80 80 77 69 70 73 75 74 74 76 79 85 89 91 93 95
76 72 74 71 87 80 84 65 51 44 47 51 56 58 58 59 60 59 60 65 80 83 84 83 82 80 82 82 82 83 81 77 75 72 72 70 70 71 71 73 73 75 81 84 86 88 90 91 92
86 83 71 84 79 91 83 61 51 48 52 54 55 56 66 60 62 65 67 70 76 83 86 85 85 86 86 84 83 83 81 80 79 74 73 75 76 72 73 74 76 80 84 88 88 90 90 92 93

GFSSGP_sfc_rhum_090.txt.gz
RH
70 71 86 89 94 88 78 58 46 80 68 51 49 69 77 86 64 66 88 82 90 91 84 82 84 83 80 75 77 79 78 78 81 81 79 80 79 77 74 72 70 68 68 69 69 71 71 74 76
71 66 86 97 97 94 64 46 44 62 60 63 48 61 82 93 94 93 93 89 88 87 87 85 85 84 79 78 78 78 76 75 80 80 81 81 78 72 71 68 70 69 72 72 73 74 77 79 76
75 67 92 98 95 87 58 42 29 48 60 68 68 62 84 97 83 88 89 86 89 94 90 88 86 84 81 81 79 77 74 74 77 79 79 78 75 69 68 71 72 74 75 74 76 79 80 77 77
86 94 87 98 86 71 53 44 37 50 62 66 76 66 86 92 86 86 85 89 95 98 96 90 88 85 84 82 79 75 72 71 74 75 78 76 72 68 67 74 76 78 79 77 79 80 80 77 78
95 95 90 94 85 71 51 39 34 46 60 66 76 72 83 83 92 88 87 93 85 96 96 90 87 85 85 83 83 82 74 70 71 72 72 70 68 69 75 77 78 79 80 79 79 80 80 76 76
96 90 95 96 84 61 52 39 37 42 46 65 77 78 82 92 92 94 90 92 76 90 96 88 89 87 86 82 85 85 78 72 71 71 72 67 68 72 72 77 79 78 78 78 79 79 77 74 74
97 96 82 75 79 76 58 43 38 41 46 65 62 82 90 96 97 95 89 83 76 97 96 97 95 92 88 88 88 86 85 80 78 78 77 81 73 73 74 76 78 77 78 78 78 77 75 70 68
96 91 83 71 75 78 51 42 40 38 34 47 53 92 86 93 97 98 94 96 96 99 97 98 98 97 96 95 89 89 89 86 82 83 85 86 87 77 76 85 83 79 78 78 77 74 71 70 68
85 94 87 77 72 72 53 46 48 53 66 72 65 76 72 96 92 92 98 96 98 97 93 97 99 99 98 97 94 92 92 92 90 90 91 93 96 94 92 92 87 86 82 79 77 74 72 74 76
91 86 74 61 67 66 62 53 48 70 86 94 93 85 82 96 89 93 96 98 96 98 97 96 98 99 98 91 98 97 96 96 92 96 95 97 97 97 92 94 90 88 87 86 77 76 79 83 90
86 87 62 61 60 82 68 63 59 72 90 83 83 97 91 91 86 86 89 81 93 96 96 93 96 96 97 98 100 100 99 100 95 96 97 97 96 98 98 98 98 97 95 97 94 94 96 91 92
89 70 67 61 61 88 80 76 67 71 65 61 80 86 88 80 76 76 65 85 97 97 94 90 87 84 93 99 100 100 100 99 98 98 97 99 99 98 98 99 98 97 98 96 96 98 94 93 92
83 76 68 65 63 81 85 85 72 69 61 90 83 80 85 78 72 68 65 82 97 97 94 95 91 88 91 93 99 99 99 99 99 99 98 98 98 98 98 98 98 98 98 98 97 97 96 95 93
78 71 67 72 67 76 92 86 85 76 71 95 92 83 88 86 86 88 87 93 91 81 77 86 88 92 86 86 95 99 99 98 99 100 98 96 96 98 98 98 98 98 98 97 97 96 95 96 92
69 85 74 77 76 91 87 88 90 90 74 96 93 91 85 93 92 86 88 87 82 80 66 78 87 89 91 92 87 88 95 94 97 98 98 96 93 95 96 98 98 97 97 95 95 91 91 92 87
89 86 94 78 77 86 87 98 90 86 81 79 95 98 91 97 93 93 92 86 74 80 78 76 78 80 91 95 93 94 85 87 88 88 90 90 86 88 92 93 90 84 88 87 80 83 90 90 90
92 90 92 85 79 94 88 92 88 86 83 75 75 83 94 91 95 95 90 86 81 82 80 78 77 83 87 94 96 97 92 94 93 90 83 81 80 80 84 84 81 79 76 78 78 84 89 92 91
96 95 94 92 87 84 89 84 76 82 86 80 72 77 70 88 93 95 91 86 80 80 84 82 77 83 85 92 94 97 96 97 96 93 74 71 75 75 76 82 82 87 88 87 89 87 88 85 84
91 87 97 90 83 89 90 89 76 81 87 88 71 68 68 65 62 83 95 86 84 83 85 83 80 86 87 94 96 97 95 94 98 96 81 70 72 76 78 82 84 89 90 92 93 90 92 89 94
81 93 96 89 87 86 87 86 78 81 82 80 70 66 66 60 54 62 94 96 96 91 86 87 82 84 89 88 84 86 91 93 90 93 97 95 91 89 89 86 92 93 95 92 88 90 94 95 96
85 80 89 84 86 84 87 92 86 85 88 80 80 66 65 59 58 52 57 80 91 98 95 89 82 83 81 83 87 99 98 99 99 98 96 95 94 94 94 96 97 98 98 98 96 96 96 97 97
88 77 73 86 87 94 82 93 87 76 83 83 77 74 68 63 58 54 51 49 52 68 96 94 92 85 84 88 92 84 82 87 91 94 98 99 98 97 98 98 98 97 97 97 97 95 96 98 99
91 82 83 80 91 92 96 96 75 78 88 72 73 67 66 66 60 55 52 49 49 47 49 81 96 97 97 98 91 92 92 98 99 99 99 98 98 96 97 97 96 96 97 96 96 94 94 96 97
83 86 88 96 93 98 91 82 68 71 66 62 54 61 63 60 65 62 59 56 54 56 49 51 72 91 97 99 98 98 98 98 98 99 99 99 98 95 93 92 92 90 84 83 85 87 88 94 96
79 97 99 99 99 94 88 84 71 57 51 47 53 51 59 68 65 61 60 56 55 56 56 54 62 71 93 98 99 98 97 96 95 97 98 98 97 95 86 81 79 80 82 83 83 85 89 90 93
91 79 95 95 97 94 86 90 62 45 47 50 53 55 60 69 66 60 59 58 56 55 59 60 64 74 87 95 94 98 96 98 98 98 98 96 95 93 83 79 79 79 79 80 81 84 89 92 95
83 87 65 72 69 88 86 62 44 46 47 47 45 48 52 54 57 59 70 64 64 70 73 70 67 76 76 77 82 88 94 94 95 97 97 94 91 83 81 77 81 80 80 79 81 85 86 92 95
84 67 76 85 85 72 75 77 55 52 52 51 51 52 57 58 59 61 63 74 77 84 86 79 75 72 74 76 81 83 86 88 94 93 95 91 83 78 74 75 77 77 77 79 81 86 90 92 95
80 76 76 75 86 78 76 58 52 49 52 59 61 60 60 63 68 70 71 76 82 86 87 85 82 80 82 82 83 83 83 82 84 85 82 78 77 75 73 75 78 77 78 82 84 87 90 91 92
88 85 75 83 78 90 84 61 59 60 55 58 58 57 62 69 69 72 74 75 78 86 88 89 87 85 86 86 87 87 85 83 82 80 77 75 75 74 73 73 75 78 82 84 84 86 88 92 93

GFSSGP_sfc_rhum_093.txt.gz
RH
67 62 72 73 78 82 75 62 45 56 60 58 44 60 59 70 49 48 77 75 74 76 70 69 81 84 80 78 80 80 82 82 81 80 80 79 78 76 74 70 69 66 67 67 69 71 70 74 75
68 63 77 89 84 82 67 48 44 54 50 59 56 48 67 69 82 84 89 84 74 73 70 67 85 84 79 78 80 78 79 81 81 81 82 81 77 75 72 68 68 70 70 70 71 72 75 76 76
63 65 84 91 83 67 58 41 37 40 56 72 81 63 62 75 78 77 83 82 76 74 72 72 86 83 81 78 79 78 77 81 83 84 84 82 78 72 69 69 73 69 70 77 77 79 77 77 76
76 86 85 80 77 60 49 36 30 44 62 61 68 80 64 83 85 76 80 77 79 78 72 83 87 84 85 84 81 76 75 77 81 83 82 77 74 70 68 73 78 81 82 79 79 79 79 82 78
85 88 86 82 76 66 51 40 34 42 59 66 66 77 78 82 83 80 81 78 78 79 75 76 86 86 84 83 81 76 74 75 76 78 77 74 68 69 74 75 80 80 79 79 80 78 77 77 77
88 88 90 82 67 57 53 40 37 36 54 63 63 69 75 89 91 83 79 76 74 80 79 73 87 87 85 83 84 79 72 73 75 77 73 68 73 74 71 76 76 76 76 79 77 78 75 75 75
88 87 80 65 60 54 58 46 44 34 52 68 56 70 84 96 93 88 84 75 77 81 81 81 76 81 89 88 86 83 78 78 77 74 69 74 82 70 72 74 75 76 78 80 80 78 73 70 71
86 80 71 70 64 64 50 51 40 33 35 49 55 77 86 91 97 98 88 81 90 88 83 89 78 75 73 72 90 89 84 84 82 72 87 81 80 73 72 82 81 78 81 81 79 75 71 70 69
77 89 82 69 69 58 49 55 47 38 39 53 55 60 77 96 93 88 97 94 94 91 85 83 79 75 75 73 79 91 90 88 88 86 90 86 67 67 69 86 87 87 83 79 76 74 72 74 78
86 87 67 50 53 55 52 53 50 50 47 63 69 89 92 86 93 94 98 98 95 94 94 88 83 79 76 72 77 80 85 72 68 72 74 72 75 73 73 84 90 88 86 84 77 76 77 75 56
71 85 56 50 48 60 61 57 50 57 66 55 62 95 93 85 93 98 98 95 90 93 96 92 89 86 81 80 83 83 83 85 76 74 75 74 77 78 76 78 76 76 86 71 73 71 65 64 60
81 63 61 60 54 61 61 79 67 68 54 59 62 79 81 89 88 92 92 91 93 98 95 88 85 83 84 86 87 86 88 88 88 79 75 77 77 79 79 74 76 75 72 70 69 65 65 65 64
71 58 57 60 62 66 72 76 80 72 46 63 77 76 75 81 84 86 83 72 90 98 95 86 82 84 79 85 90 86 85 85 88 82 76 76 78 78 79 77 79 80 78 76 73 72 68 67 66
75 64 70 65 59 64 76 71 77 72 69 72 72 87 82 80 79 78 76 74 85 95 96 91 82 78 78 79 84 89 84 80 86 88 79 79 76 76 81 82 82 78 76 75 73 69 65 64 65
61 89 81 71 65 68 73 75 71 75 78 82 63 88 85 76 75 74 65 70 84 93 91 86 79 76 78 82 81 82 85 84 82 84 85 82 77 79 78 78 79 76 72 70 72 71 66 65 63
92 93 91 74 74 85 69 75 78 76 78 76 78 72 84 80 73 64 63 72 83 86 78 68 68 82 82 88 85 80 74 79 82 80 88 84 79 78 78 78 76 72 73 74 69 62 61 65 63
90 93 86 92 72 86 85 86 80 78 76 75 78 83 76 90 84 82 75 84 82 75 68 72 76 84 87 86 86 84 80 84 85 84 79 80 81 76 75 74 74 69 64 64 61 58 60 63 64
89 80 76 81 85 78 96 98 87 78 77 82 77 78 86 82 88 90 89 82 80 79 78 79 81 78 83 86 88 90 91 88 87 86 74 73 70 71 73 70 69 65 64 61 62 60 66 68 66
80 81 83 88 84 82 86 97 90 73 78 81 83 80 82 90 95 97 91 89 82 87 78 78 78 78 89 92 93 92 92 96 93 90 77 70 67 66 69 69 69 68 69 66 63 67 69 73 74
83 84 90 91 81 80 90 95 85 75 82 82 81 71 69 74 86 92 97 96 93 86 82 81 74 79 87 88 84 88 91 94 90 89 92 87 83 78 74 70 72 69 73 73 75 82 77 75 75
86 83 90 91 85 79 83 99 89 78 78 82 77 71 60 57 65 75 94 96 94 93 89 84 79 79 77 85 87 93 94 98 94 91 94 93 94 96 94 95 95 90 92 93 93 90 84 82 84
87 81 70 85 81 87 78 91 85 82 78 76 75 71 61 57 52 54 64 84 92 93 90 87 84 79 79 90 89 87 94 92 90 97 98 99 99 99 99 98 99 99 96 93 95 93 92 90 88
82 80 79 82 89 83 88 91 85 77 77 72 72 71 60 56 56 52 50 53 58 72 91 95 92 90 84 87 87 96 96 94 98 98 98 99 99 99 99 99 99 99 98 97 96 95 90 87 80
81 83 87 86 88 91 88 83 59 68 63 64 74 58 71 60 61 56 54 56 53 56 58 61 85 91 92 93 94 87 88 87 96 97 99 98 99 99 99 99 99 98 96 93 94 91 87 85 85
81 97 99 97 96 90 79 74 59 52 45 47 58 48 64 61 55 55 54 54 54 56 56 52 50 56 80 90 93 95 95 93 95 96 96 97 97 97 97 95 95 88 82 82 81 79 79 81 80
96 88 89 91 92 96 78 86 58 45 46 50 48 51 58 57 54 55 56 56 56 58 60 56 54 59 77 86 89 93 97 96 94 94 96 93 94 94 93 93 85 73 74 73 75 75 77 78 82
87 86 66 72 69 83 76 55 36 43 45 44 47 48 54 52 54 57 66 66 63 64 68 67 60 67 73 81 83 86 86 88 93 95 94 94 92 91 84 74 75 74 70 70 72 73 76 79 85
75 63 74 86 84 76 63 62 54 47 50 49 50 56 58 60 58 60 63 70 72 75 75 70 66 65 68 69 68 70 77 80 86 90 94 91 84 78 74 72 72 72 72 72 72 73 75 75 79
77 73 71 71 79 67 64 52 46 51 48 56 58 61 62 62 63 64 63 66 70 72 76 74 72 70 71 70 69 69 71 76 81 83 83 78 73 71 70 70 69 71 74 72 71 74 75 74 75
88 81 66 78 75 81 72 57 52 59 48 56 58 61 63 64 65 63 62 64 66 71 75 76 74 72 75 74 72 71 72 73 74 75 73 68 68 65 65 66 66 67 70 70 71 74 75 75 78

GFSSGP_sfc_rhum_096.txt.gz
RH
54 46 42 44 44 43 40 34 28 27 35 28 42 47 47 41 36 44 58 60 48 50 60 61 79 81 80 79 82 84 82 82 82 79 80 79 78 76 72 69 67 68 67 68 72 73 68 73 73
49 48 46 54 52 40 35 26 34 27 25 30 43 48 53 49 54 55 67 68 55 50 59 56 84 82 81 80 81 82 81 83 81 81 81 80 78 74 71 68 68 71 72 71 68 69 76 76 75
56 49 53 50 54 43 31 27 30 24 23 39 45 58 70 54 51 54 61 63 55 52 53 58 85 83 82 80 80 80 81 83 82 81 83 80 78 72 69 72 74 70 79 75 78 78 76 76 72
48 58 57 64 44 34 31 23 24 24 27 33 38 54 65 57 54 59 65 58 53 51 51 78 86 84 83 84 82 80 80 82 81 83 83 81 77 70 70 75 77 78 82 81 78 79 78 77 73
53 56 52 50 42 29 24 25 22 24 25 39 38 43 52 79 49 57 67 55 55 54 54 64 85 85 86 84 82 81 81 80 81 82 79 77 77 70 74 80 82 82 83 80 78 79 79 78 75
63 50 50 46 32 26 25 29 26 27 24 25 41 40 50 62 64 76 68 59 52 55 59 61 85 87 87 83 81 81 80 81 82 82 79 76 79 76 77 79 82 82 80 79 76 77 76 77 76
70 58 50 36 27 25 27 26 31 31 27 27 34 42 48 59 57 76 86 64 54 56 56 64 65 73 88 85 82 81 81 81 82 79 77 84 82 73 81 82 82 80 80 80 80 76 74 74 75
56 65 58 42 35 29 19 26 27 32 30 20 30 39 47 55 68 75 83 83 66 64 56 70 60 52 54 67 87 84 84 84 81 81 85 83 80 81 83 84 85 83 83 83 81 75 71 70 70
49 75 62 44 37 32 21 24 26 30 30 24 28 38 40 56 77 87 89 95 84 74 66 65 53 46 45 54 72 84 88 86 82 84 87 81 52 56 65 76 85 87 85 81 78 74 72 74 76
60 60 47 30 28 30 28 27 27 32 36 36 31 41 67 73 80 89 97 96 97 86 86 68 50 46 51 57 67 59 53 51 47 54 52 46 48 47 50 76 91 89 87 85 76 74 74 71 37
49 64 34 34 31 30 36 34 29 39 41 34 30 32 81 70 81 89 90 92 96 96 94 72 50 46 48 56 68 67 51 43 42 47 48 46 48 58 54 56 59 56 80 49 59 57 41 41 40
57 40 38 37 34 40 43 38 38 37 34 29 28 41 75 79 74 69 82 92 95 96 96 82 59 50 45 53 56 66 69 50 48 44 44 48 49 51 47 46 48 48 44 43 43 38 39 42 46
49 42 34 36 35 38 45 48 47 47 41 37 32 36 61 72 73 60 62 81 94 95 99 89 74 62 57 52 50 58 65 62 57 57 51 45 47 47 47 46 47 47 48 47 45 47 47 47 47
36 38 39 37 37 42 47 47 54 45 54 58 50 42 46 59 65 65 70 69 86 90 98 96 81 71 62 58 57 51 57 63 70 68 61 55 52 50 53 53 56 53 52 49 47 48 50 47 45
49 54 54 50 45 53 45 62 56 43 47 62 58 43 52 64 64 70 67 64 70 86 94 96 84 76 61 60 59 61 56 57 69 69 64 60 59 59 62 64 63 56 53 49 50 48 46 47 48
78 82 85 50 48 51 61 62 35 52 65 66 64 48 52 66 68 62 60 64 67 83 95 92 80 81 64 63 61 62 64 63 60 59 66 65 63 64 68 67 58 53 53 51 49 46 45 45 47
63 97 99 71 49 62 66 57 41 56 56 68 64 52 60 81 73 64 66 67 74 75 86 88 80 71 62 68 68 66 68 64 61 57 58 65 68 66 68 65 58 57 54 52 52 46 43 46 49
85 70 55 61 65 63 76 85 58 55 60 75 63 61 66 73 74 62 60 71 76 77 73 71 76 65 68 72 72 66 64 64 63 68 59 60 62 69 71 65 57 54 53 49 49 44 45 49 51
86 72 67 82 65 67 64 71 66 54 60 80 65 71 76 88 84 81 78 82 75 85 77 66 72 71 72 81 74 71 72 75 72 68 62 59 61 59 66 67 59 56 55 50 48 49 54 57 54
83 66 71 87 80 69 77 81 61 57 58 79 63 78 83 95 95 96 97 93 90 89 86 84 67 68 76 78 66 59 67 74 73 75 72 68 61 66 69 70 66 60 57 56 56 60 64 53 56
67 49 72 81 73 64 70 92 90 74 79 73 64 62 75 88 94 94 95 98 98 97 88 80 74 72 73 81 81 70 74 83 82 80 74 74 79 79 82 80 88 82 72 79 86 87 81 76 71
60 50 57 81 73 70 56 93 98 89 87 64 64 60 61 76 80 84 86 96 95 91 86 80 80 70 73 89 83 76 76 75 82 83 88 95 89 94 98 96 98 99 99 96 91 89 84 75 76
64 59 61 65 67 56 69 89 95 80 67 62 63 64 54 52 55 71 85 87 90 88 87 83 77 76 80 81 93 90 94 95 91 95 97 98 99 99 99 98 99 99 100 99 97 96 91 81 71
74 64 64 68 65 74 86 97 92 69 52 64 62 61 62 52 54 54 52 60 67 73 81 88 80 78 75 73 74 92 93 92 93 95 96 98 98 98 99 99 98 99 99 98 98 93 91 88 84
76 66 89 83 91 82 91 90 64 44 40 46 57 53 56 52 47 50 50 49 50 52 52 48 55 76 80 79 73 79 84 86 83 86 88 94 98 98 97 98 98 98 98 95 88 85 83 78 80
88 75 73 67 66 76 70 80 61 40 38 40 61 50 48 52 55 52 51 47 48 51 51 47 42 43 47 65 77 89 87 85 81 83 88 94 93 90 91 96 95 95 89 79 72 69 67 71 75
79 71 49 59 52 57 57 43 43 44 46 50 51 48 48 48 52 61 55 51 49 51 54 52 47 46 48 58 68 74 73 82 86 86 84 89 86 85 87 86 88 79 71 66 60 58 60 61 67
65 50 61 67 71 70 48 48 56 46 42 45 43 45 48 48 48 48 48 55 56 56 55 52 49 51 54 56 58 62 64 68 74 79 85 87 84 85 84 79 69 64 60 60 61 60 60 62 64
60 53 52 48 53 46 48 47 36 40 42 43 44 44 46 47 47 44 44 46 49 50 53 52 53 54 53 51 50 51 53 62 68 71 76 80 78 76 71 63 60 60 60 59 60 62 65 64 66
63 57 45 54 55 56 42 46 39 38 42 42 50 48 46 43 41 39 38 37 40 45 47 50 52 55 57 55 52 52 55 58 62 66 69 67 69 65 61 59 58 58 59 58 59 63 63 64 67

GFSSGP_sfc_rhum_099.txt.gz
RH
54 40 34 40 49 39 38 30 18 19 17 17 21 30 30 30 30 46 49 47 44 58 60 64 82 81 79 79 83 84 83 86 84 82 80 78 78 76 72 72 76 71 68 72 65 68 69 70 72
48 36 39 41 48 43 30 20 22 18 18 17 30 34 37 36 38 44 52 50 51 59 59 58 82 82 81 81 84 84 83 83 83 83 82 80 78 74 71 70 72 73 74 74 72 73 74 74 69
44 37 44 42 46 46 30 18 18 16 16 18 27 30 36 38 41 45 49 50 53 64 57 59 84 83 82 82 83 82 83 84 81 83 82 81 77 71 69 72 75 77 73 70 76 77 76 72 67
36 38 41 46 37 29 27 19 14 16 17 16 26 34 42 38 39 44 47 46 54 64 55 80 86 85 84 84 83 81 83 82 82 82 84 83 78 72 73 71 78 74 81 80 77 77 76 71 70
36 39 45 37 36 27 18 17 17 17 19 17 19 33 36 39 33 41 51 50 49 60 65 64 86 85 85 84 83 84 84 83 82 83 82 80 76 71 76 74 77 80 82 79 78 78 78 75 72
46 36 43 36 27 20 18 15 16 18 17 16 18 28 30 29 47 55 56 56 53 58 66 60 82 86 87 84 84 85 84 82 82 84 83 80 77 74 68 70 78 81 80 78 78 78 78 76 73
51 43 39 29 25 20 16 14 16 19 18 18 16 24 26 31 46 72 80 74 73 57 61 62 64 73 89 86 86 88 87 86 86 85 86 81 81 80 80 80 80 81 81 78 78 77 76 76 76
41 43 44 35 32 26 16 13 13 18 19 15 15 24 32 31 44 71 86 90 88 92 66 65 60 61 62 66 88 88 88 89 88 87 86 86 83 86 84 83 83 80 82 84 79 75 73 73 74
37 51 48 38 34 28 18 17 13 13 17 17 18 19 26 55 52 62 89 88 92 93 92 75 67 56 47 48 68 86 90 90 89 84 87 76 58 66 73 78 85 86 87 84 79 74 73 77 76
49 50 44 26 23 24 20 18 17 16 18 21 23 20 24 56 58 72 89 94 94 93 93 90 73 46 42 45 57 50 56 59 52 54 53 47 49 51 52 76 90 88 88 85 78 74 73 72 40
42 52 31 26 23 22 23 22 18 21 23 20 22 24 43 56 63 79 88 90 91 94 95 93 86 51 44 51 50 42 45 43 43 48 47 40 41 52 56 67 68 70 86 62 66 64 48 38 36
43 37 33 32 27 26 28 24 28 28 25 20 17 21 38 73 70 74 84 92 91 95 93 91 94 49 64 53 50 41 36 38 42 46 40 41 44 50 48 51 53 52 54 43 44 41 38 39 39
42 35 32 31 29 29 26 31 36 28 26 27 23 33 53 49 68 67 67 81 91 95 94 91 96 51 54 70 72 47 38 37 38 43 42 43 45 44 44 43 45 46 41 41 41 39 38 37 38
45 42 36 33 32 30 32 29 30 33 29 32 38 40 43 44 59 71 62 81 78 80 91 94 95 57 47 66 70 72 48 40 44 43 43 40 42 44 46 44 46 46 47 44 42 41 43 42 42
51 54 43 40 35 35 30 37 36 28 30 37 38 40 44 38 74 79 56 65 73 75 91 94 95 75 54 50 54 65 70 56 53 54 48 46 48 47 50 51 55 53 50 46 52 42 43 42 42
56 53 67 38 36 41 38 58 32 26 33 35 40 43 45 36 58 88 56 55 57 81 90 94 88 90 70 58 57 50 52 59 62 56 56 53 53 54 58 62 61 56 54 55 52 45 45 43 43
48 68 73 72 44 41 46 61 37 26 42 43 43 45 47 45 47 82 79 61 62 75 86 91 90 79 82 68 58 56 56 57 58 60 64 65 59 59 63 62 60 55 57 55 50 45 42 43 47
56 65 56 88 50 44 52 62 47 48 44 45 51 48 45 45 56 83 85 67 62 73 76 80 87 83 86 72 72 59 61 60 56 57 58 61 62 64 62 60 59 56 61 60 50 48 43 45 50
49 60 68 82 83 49 54 58 44 36 42 48 53 63 50 56 59 80 86 74 73 80 78 73 77 80 81 78 84 72 66 68 71 69 60 55 58 62 64 66 61 64 60 56 48 48 49 56 53
59 62 64 66 65 55 52 50 40 42 42 45 58 60 60 67 91 92 93 79 82 81 75 73 75 86 78 80 81 80 80 79 75 73 68 65 60 63 67 68 68 66 67 61 56 54 65 69 67
63 63 57 81 85 63 66 75 64 58 58 49 57 53 64 71 88 92 94 96 91 87 81 79 83 81 76 75 74 76 76 81 84 79 72 71 69 74 76 75 77 80 79 87 79 77 79 83 81
85 41 56 85 97 90 57 88 92 90 68 60 61 68 79 86 88 93 96 98 99 98 97 95 94 86 88 84 81 75 83 85 77 77 82 87 82 83 83 82 81 84 93 97 95 94 89 81 82
66 43 68 67 64 86 68 70 98 92 84 75 78 77 92 89 91 93 91 94 95 98 98 97 95 90 92 87 82 86 85 86 86 86 84 85 89 85 87 87 93 96 98 98 98 99 99 95 84
70 60 56 60 70 95 94 98 99 97 93 86 66 68 78 88 88 82 90 94 94 96 97 95 86 80 78 79 82 91 90 94 96 96 95 95 96 94 97 96 98 97 97 98 98 98 97 96 88
80 62 95 95 92 94 96 96 99 74 76 72 73 66 60 60 63 69 74 84 87 93 89 88 92 82 74 80 77 80 92 94 94 94 95 91 97 98 98 99 98 98 98 98 96 98 93 85 82
80 84 94 64 79 88 80 95 98 58 56 64 66 60 73 73 66 57 53 50 56 61 60 57 49 52 56 73 79 80 83 91 89 88 88 89 94 96 93 98 97 96 96 95 92 90 85 79 80
62 73 44 52 41 54 79 96 76 68 62 71 63 68 58 59 67 71 58 52 55 57 56 52 47 44 45 50 60 70 79 84 84 86 81 83 89 89 94 96 98 98 96 91 84 76 70 67 74
78 47 70 68 66 63 71 84 91 88 74 74 77 63 52 50 49 51 56 59 55 54 55 54 51 51 52 54 58 64 65 68 72 78 81 89 89 91 94 96 93 87 82 78 70 66 66 66 69
58 50 42 41 48 42 54 85 38 45 57 48 49 48 48 45 42 43 45 45 45 47 49 51 53 52 51 50 49 49 50 55 63 66 73 79 84 87 88 84 82 78 68 63 66 68 68 68 70
56 46 39 51 46 43 44 59 32 37 38 42 45 42 40 38 37 36 35 35 36 40 43 47 47 50 53 51 49 51 52 54 57 61 66 71 77 78 77 72 69 70 66 62 64 69 69 68 70

GFSSGP_sfc_rhum_102.txt.gz
RH
59 47 50 53 76 66 60 50 32 30 24 15 18 30 40 35 56 80 59 52 58 69 73 78 84 82 81 80 84 84 84 87 84 82 79 78 79 75 75 78 74 72 72 69 68 68 70 73 73
53 41 51 61 72 70 50 34 33 26 20 16 22 34 43 47 49 72 66 55 60 64 74 72 85 83 80 83 84 87 83 87 84 82 82 81 77 73 76 77 76 76 74 71 70 71 72 70 74
46 39 67 66 65 70 50 30 24 18 18 17 29 40 40 44 48 61 59 53 63 69 65 71 85 83 82 84 84 85 85 86 84 83 83 82 79 72 74 76 77 80 80 79 76 75 73 68 67
44 52 55 63 53 43 42 31 26 22 17 16 22 47 50 46 51 54 55 53 63 70 64 84 86 84 85 86 86 85 85 83 84 84 83 82 78 74 76 78 81 77 81 80 77 75 70 70 69
48 56 63 58 50 38 28 25 25 23 20 19 21 37 51 47 43 54 58 56 62 68 79 78 86 86 86 86 86 86 85 85 83 84 82 80 78 77 77 77 70 82 84 79 77 75 73 72 70
63 54 63 59 45 30 24 23 22 20 18 18 22 24 35 46 49 62 60 65 61 71 77 74 86 87 86 87 86 86 86 84 84 84 84 81 77 77 65 64 64 80 80 78 78 78 76 75 73
66 63 59 43 35 29 23 17 20 20 18 18 17 23 24 58 58 72 74 71 92 91 79 83 84 86 89 88 88 87 87 85 84 84 84 80 75 66 65 66 74 76 79 81 81 79 78 77 75
53 60 60 51 45 38 23 19 17 18 18 14 16 23 26 57 65 86 91 88 89 93 92 93 90 80 84 92 89 93 90 88 86 86 88 88 80 79 75 74 80 77 84 84 83 78 77 77 78
44 68 66 51 41 34 24 25 20 16 17 15 16 19 35 67 76 82 90 92 95 93 93 91 92 91 76 77 86 92 94 92 91 91 89 82 66 71 74 80 82 81 86 86 81 76 76 80 79
58 67 58 36 30 30 25 24 23 21 20 18 18 18 24 66 79 83 83 92 91 96 93 96 93 90 88 61 88 92 86 87 82 79 66 64 65 68 64 87 88 85 87 87 82 78 79 77 73
50 68 47 41 34 30 29 26 22 24 27 21 21 21 23 52 79 81 86 88 91 90 95 92 89 89 87 85 74 72 96 90 89 74 64 63 67 75 83 88 86 90 92 91 87 86 78 70 64
48 39 38 39 34 36 35 28 29 25 25 26 25 28 41 52 76 73 86 90 94 94 92 93 94 91 88 91 58 57 67 90 79 70 59 54 66 72 79 83 89 91 91 86 86 79 68 62 54
53 47 38 35 35 35 32 34 32 30 29 31 26 30 43 60 67 76 81 84 92 95 94 96 94 94 91 91 54 51 52 48 56 58 58 55 64 71 67 72 73 72 73 72 70 62 56 53 52
52 50 50 47 46 35 36 35 34 30 24 29 31 34 54 57 59 70 84 86 90 90 92 94 96 95 91 93 78 56 44 52 59 55 56 59 64 68 67 66 67 66 64 61 60 58 61 56 58
60 63 60 55 46 46 39 47 42 29 24 27 31 32 54 56 67 66 79 86 85 88 93 93 97 97 98 92 85 86 61 46 58 61 55 55 62 64 66 66 70 70 68 63 62 61 61 61 59
67 71 88 51 45 44 48 64 40 29 27 28 33 36 62 51 56 63 78 89 86 92 90 91 85 93 91 92 89 82 83 63 60 59 62 59 59 64 72 80 80 75 72 72 70 68 65 63 61
68 90 83 69 46 51 52 60 47 32 30 30 30 61 69 59 55 74 76 86 82 86 86 89 86 84 84 80 93 92 85 86 65 73 64 68 67 68 78 82 80 73 75 74 69 66 62 62 64
80 82 64 64 61 81 66 61 51 39 37 42 58 60 61 53 59 74 86 87 90 85 84 89 83 78 80 82 83 79 86 91 88 82 77 72 68 74 80 80 78 74 76 75 70 67 61 59 65
68 76 77 55 51 89 68 58 51 56 77 52 68 76 74 62 60 79 84 88 89 87 91 87 90 85 86 88 91 86 88 83 85 80 76 76 74 70 78 80 76 76 76 74 66 66 63 67 71
90 83 71 55 66 85 66 58 52 57 79 61 55 66 73 76 95 91 92 92 96 92 91 89 91 93 91 90 90 95 88 87 86 84 80 77 77 84 80 82 82 76 80 77 71 66 76 80 83
75 74 63 82 89 68 75 79 65 54 64 61 60 62 62 81 96 95 92 92 96 94 94 82 87 91 90 84 84 90 88 96 92 91 86 81 76 81 84 86 89 88 87 89 90 88 88 92 94
78 58 59 95 97 99 73 98 86 85 83 73 61 64 79 96 95 94 94 96 91 98 96 90 80 92 93 93 90 90 91 89 92 94 96 96 93 91 90 91 91 94 97 96 97 94 96 94 97
72 65 76 81 91 100 96 92 98 94 85 70 76 80 94 96 95 96 98 95 98 98 99 99 96 95 96 92 93 95 88 91 96 94 96 96 96 95 96 95 95 96 98 98 98 99 98 97 96
69 78 70 70 85 99 99 99 100 99 97 86 89 96 96 97 97 96 98 96 99 99 99 99 98 96 95 96 96 96 93 93 95 97 98 98 98 98 98 97 98 98 99 98 98 96 95 96 95
83 94 98 99 99 98 99 97 100 97 86 86 93 98 97 96 95 95 96 96 98 97 97 98 98 97 96 94 97 95 94 94 95 98 98 99 99 99 99 99 99 99 98 97 96 99 99 99 98
93 96 99 97 97 99 78 98 100 91 85 79 89 95 89 91 84 75 86 96 93 97 98 94 89 89 92 98 97 94 93 96 96 94 93 94 95 97 97 98 99 98 98 98 98 98 98 96 95
85 93 58 98 77 97 99 100 94 87 86 75 78 88 95 91 77 71 63 63 64 65 63 60 57 55 54 58 76 95 94 93 94 94 91 90 89 92 94 96 97 98 97 98 98 97 94 90 91
88 66 80 89 96 96 90 90 99 98 91 80 75 80 78 74 72 75 76 68 64 66 66 63 63 66 67 68 73 76 82 84 90 93 95 96 94 97 98 98 98 99 98 98 97 93 87 84 89
77 66 60 54 64 76 89 97 79 86 73 74 78 65 54 52 56 56 57 57 60 62 63 64 66 67 66 64 62 66 68 72 78 84 90 92 94 96 98 98 98 96 93 90 87 82 80 82 83
67 56 49 84 67 72 90 91 55 53 54 54 57 49 54 44 44 47 46 48 49 51 57 60 63 66 66 65 65 66 67 69 74 78 84 90 89 91 90 88 89 88 81 77 78 79 80 80 82

GFSSGP_sfc_rhum_105.txt.gz
RH
66 62 75 71 87 94 94 78 53 49 39 28 23 25 42 57 51 70 72 74 77 83 81 80 84 84 82 80 81 84 89 87 84 83 78 78 80 75 76 73 76 73 70 67 68 69 73 70 70
69 57 64 78 94 97 83 60 50 41 32 27 24 40 49 59 74 75 74 69 77 80 81 82 86 85 81 81 82 83 85 88 86 83 82 80 77 76 79 75 76 74 71 70 71 73 75 76 77
58 48 78 88 94 90 82 47 40 32 28 25 26 45 48 68 70 74 72 69 74 82 80 82 86 85 82 84 85 84 84 88 86 83 84 82 78 78 78 79 80 79 78 76 73 72 70 71 67
58 63 70 90 87 69 60 53 40 35 27 26 31 55 54 51 64 69 66 69 77 81 80 88 87 86 86 88 86 86 83 86 86 84 84 82 80 78 78 81 84 85 83 79 76 69 69 69 66
60 71 92 91 74 57 49 41 38 35 31 26 25 50 54 63 62 63 67 70 79 83 86 85 86 86 87 88 88 88 86 85 86 85 83 81 79 79 81 84 83 85 84 78 72 70 71 71 68
74 70 92 94 74 52 42 33 31 30 27 23 22 32 50 56 71 74 69 77 75 87 86 82 88 89 87 88 88 88 87 86 85 84 84 81 80 80 80 76 80 84 80 77 75 74 74 72 70
79 84 88 76 59 45 38 29 30 26 26 23 23 26 29 62 80 88 90 91 94 92 91 92 90 87 90 91 90 88 87 87 85 85 85 82 81 80 72 70 79 83 81 82 79 77 76 75 73
62 74 80 80 68 58 37 31 28 29 27 19 20 28 28 62 92 93 95 97 96 93 89 91 90 84 90 94 91 91 87 90 87 88 87 87 82 77 68 72 76 82 86 86 85 80 79 79 79
56 82 87 69 57 49 34 32 24 24 27 23 24 22 46 87 86 89 94 97 98 97 95 92 90 86 86 80 90 96 94 92 92 91 91 84 66 66 69 73 81 83 87 86 82 80 80 84 82
70 87 66 50 47 45 37 35 32 29 27 27 24 22 65 85 87 86 88 93 95 98 99 97 94 90 87 70 85 96 93 94 88 85 78 68 70 68 60 81 84 83 88 88 82 80 82 80 82
65 77 55 52 47 44 44 39 32 34 34 29 32 33 36 51 90 88 86 85 84 94 98 97 96 95 94 90 88 90 99 96 91 78 69 71 70 74 78 86 86 89 88 96 92 91 87 85 77
63 50 46 48 43 43 41 36 38 35 33 28 31 39 39 62 72 90 90 90 91 92 96 97 95 94 95 96 86 79 93 96 94 80 70 73 82 81 81 78 87 87 96 97 96 97 86 77 69
69 59 50 50 49 45 38 40 39 36 29 28 26 29 44 62 66 65 83 92 96 94 95 96 96 94 93 91 83 81 88 97 88 89 73 66 75 82 88 90 83 97 97 96 97 91 80 72 61
69 65 62 55 54 53 56 53 41 36 32 30 29 30 37 56 60 68 78 90 95 95 97 97 97 92 89 89 90 79 74 92 91 89 87 67 69 78 84 83 86 88 86 85 82 77 69 62 58
62 85 73 64 59 62 53 61 54 37 33 34 31 28 33 58 65 67 72 82 93 95 95 95 94 92 93 91 95 90 59 64 71 66 65 63 66 73 76 77 80 78 74 72 70 65 68 70 65
80 82 97 62 61 62 62 71 46 40 38 37 34 30 30 60 58 63 74 88 95 96 97 92 86 95 94 96 95 95 76 54 60 58 56 60 62 65 69 70 74 76 75 75 74 74 73 73 70
84 96 92 78 59 57 63 73 55 42 40 39 36 35 34 66 64 65 76 88 97 96 94 92 94 93 91 90 96 93 86 77 59 63 61 61 64 65 76 79 84 79 78 79 75 75 71 70 68
91 93 77 80 64 61 69 82 67 50 48 54 82 63 69 65 63 60 86 92 92 94 91 92 94 90 89 89 90 96 88 93 89 74 68 68 70 73 84 85 83 80 82 80 80 74 71 67 66
86 90 88 76 64 73 76 80 77 58 66 78 85 77 70 73 69 67 81 80 93 94 92 90 92 88 88 93 97 98 95 91 96 93 77 73 74 76 84 87 85 81 79 80 74 73 70 69 75
75 90 91 75 64 89 89 83 64 58 64 79 81 72 63 80 83 86 87 93 94 94 92 87 85 87 83 87 90 92 94 94 91 94 89 87 76 82 85 86 86 86 85 82 78 72 78 78 88
89 89 85 81 72 84 88 91 78 63 63 68 76 68 69 70 92 97 91 93 98 97 97 93 90 93 88 90 93 92 87 91 92 89 93 90 88 88 85 88 91 90 89 91 89 87 86 93 96
94 64 64 87 98 98 93 97 92 93 89 78 82 79 73 77 98 97 92 96 97 97 97 98 98 92 95 92 94 92 94 92 96 96 95 94 88 90 91 91 92 93 96 95 96 96 95 94 96
80 77 87 86 95 100 89 99 97 96 87 87 86 82 78 93 93 97 96 94 96 96 96 96 98 97 98 97 97 96 94 97 98 98 99 98 99 98 97 97 97 97 98 98 97 99 98 98 97
74 85 86 83 90 99 99 99 99 100 96 87 90 88 91 96 98 97 98 94 98 97 98 98 98 99 98 97 97 96 93 95 96 98 99 99 99 98 96 96 98 98 99 99 98 98 98 98 97
89 95 97 99 99 99 99 97 100 98 87 82 94 97 97 96 95 96 97 97 98 98 99 97 97 99 98 98 97 98 96 95 95 95 98 99 99 99 98 97 99 99 98 98 98 98 98 98 98
86 98 99 97 98 99 98 98 98 94 95 95 93 96 94 95 95 97 97 97 98 98 98 97 96 94 95 97 97 98 98 98 98 96 95 98 99 98 97 98 99 99 98 99 98 99 99 99 99
87 99 93 100 99 97 99 100 97 85 94 94 96 94 95 93 93 93 94 87 95 95 92 88 87 85 81 79 92 96 98 98 96 96 96 93 96 95 97 97 98 98 98 98 98 98 98 98 98
92 80 97 98 97 96 96 97 99 100 95 91 94 93 91 87 84 83 79 71 75 78 74 70 70 71 70 71 75 81 91 93 94 95 97 95 96 95 97 97 97 96 98 97 98 98 97 98 97
90 79 69 65 76 85 94 98 98 96 84 87 77 66 79 88 67 72 58 58 63 64 67 69 69 69 69 68 68 69 70 74 80 85 94 97 97 98 98 98 98 98 98 98 98 98 96 96 97
71 72 55 86 69 87 93 99 83 83 81 71 79 51 49 50 52 52 53 53 55 56 56 59 64 67 71 72 72 73 73 73 77 85 91 92 94 95 96 98 99 99 98 98 98 96 93 95 94

GFSSGP_sfc_rhum_108.txt.gz
RH
68 66 79 72 89 95 96 89 75 62 46 37 29 30 29 39 54 67 76 77 84 86 86 84 84 83 82 82 84 90 89 87 85 81 78 79 76 75 75 78 77 75 69 70 69 69 65 74 76
68 58 68 82 94 96 85 81 67 54 43 30 28 29 50 60 83 80 88 85 80 84 84 84 87 85 82 81 80 86 89 87 85 84 83 80 78 76 75 77 74 71 69 70 72 69 68 78 78
52 53 76 90 95 94 88 60 52 41 35 33 32 34 51 78 78 78 78 84 83 87 83 85 88 86 82 83 81 81 87 88 87 84 84 83 79 78 75 78 79 78 77 74 74 75 77 75 70
61 65 75 95 96 81 75 62 51 43 38 31 28 34 52 54 73 71 77 81 89 90 89 90 89 87 86 88 87 81 85 88 86 85 84 83 81 80 79 83 81 81 80 76 72 72 70 66 68
66 78 91 96 92 77 64 51 48 42 37 34 27 30 36 64 70 73 81 83 93 91 92 89 89 87 90 88 88 86 84 87 86 84 82 82 80 82 81 86 87 85 83 75 70 70 69 68 69
77 76 95 95 81 66 56 45 43 39 33 29 26 28 33 61 85 87 84 87 84 91 91 88 89 88 89 89 89 90 89 87 87 86 84 83 82 84 86 87 87 84 78 72 71 71 70 69 69
82 88 90 86 76 63 50 40 39 37 36 32 25 28 26 69 86 95 97 94 94 94 95 97 92 89 92 91 92 91 89 88 88 87 86 84 84 85 85 84 86 81 78 76 75 74 73 72 71
72 77 87 85 77 64 48 39 34 34 33 26 25 32 27 26 97 98 98 98 98 96 96 95 92 88 89 98 92 92 90 89 90 89 86 90 89 88 83 85 85 84 85 84 83 78 77 76 75
59 82 94 74 63 60 39 42 35 29 31 29 26 27 44 76 93 98 98 98 98 96 96 93 92 91 82 79 85 95 94 94 92 91 93 91 74 81 75 79 88 87 89 88 84 82 84 86 83
72 90 75 57 54 57 48 48 42 38 37 34 30 29 35 40 60 91 97 98 96 98 98 93 93 93 91 77 84 83 88 99 96 94 90 78 66 64 61 77 86 86 88 89 84 83 85 85 90
71 84 58 54 53 50 53 50 41 41 41 34 36 35 41 53 70 89 92 94 97 96 95 98 94 94 91 93 93 89 91 95 99 95 80 74 74 70 70 82 75 90 94 97 94 94 94 89 81
72 56 56 55 49 52 49 40 40 40 38 33 30 33 43 49 63 69 79 90 94 98 98 98 98 97 95 94 92 84 90 94 97 91 78 82 87 78 81 83 85 88 98 97 97 98 94 86 77
76 68 59 57 60 58 53 57 50 42 33 32 31 32 40 48 62 60 68 89 90 93 96 98 97 96 95 93 92 76 87 94 95 92 78 76 81 85 73 75 82 85 98 98 98 97 94 86 78
73 71 69 65 61 57 60 58 60 49 39 36 34 36 39 42 49 61 70 84 94 93 95 97 98 97 96 96 96 77 75 89 96 96 85 75 77 79 79 76 82 87 98 98 97 97 92 82 75
64 84 74 74 72 70 63 73 68 46 43 39 35 32 36 42 53 66 66 72 90 95 94 96 96 94 96 94 92 85 71 84 92 96 88 75 78 78 77 76 81 94 96 95 93 91 80 75 66
89 86 97 63 67 66 67 77 53 45 48 46 41 36 36 41 47 57 64 75 87 96 97 95 88 96 94 93 92 89 81 80 90 96 95 83 76 74 79 80 81 87 88 85 85 82 78 79 78
88 94 95 84 62 65 68 76 58 51 49 48 46 44 43 46 50 61 65 72 93 96 97 96 93 96 93 95 93 91 88 85 78 93 96 94 83 74 78 78 81 81 79 78 75 81 77 80 77
86 92 84 83 66 66 77 78 62 56 64 56 50 59 70 66 59 55 60 79 93 96 97 96 97 93 96 94 96 95 94 93 89 80 75 68 65 68 71 74 76 74 77 78 83 77 79 75 72
90 95 97 78 64 77 83 83 73 68 74 70 74 81 79 71 64 69 70 91 95 98 98 97 98 94 97 97 96 98 96 96 92 88 69 66 65 70 73 73 77 78 78 80 80 79 76 77 75
89 91 77 71 68 87 84 82 71 63 69 66 66 80 78 75 70 72 82 95 97 95 96 95 95 92 94 94 93 94 93 96 92 88 86 82 75 77 82 78 84 84 85 85 80 81 84 81 88
80 83 84 90 74 83 90 93 87 73 69 67 72 81 77 73 69 78 91 95 95 97 96 93 95 93 88 90 94 98 99 98 98 91 85 75 80 81 85 89 90 92 90 89 90 88 86 92 96
90 60 77 80 92 94 86 96 91 92 90 84 85 84 80 76 76 94 93 97 95 95 96 92 92 92 90 93 92 94 94 94 96 95 94 93 93 88 88 89 93 93 95 96 93 94 92 95 96
80 75 86 90 93 100 90 99 87 88 83 87 87 84 81 78 93 91 94 94 92 96 98 98 97 94 92 96 96 93 94 96 96 97 97 97 99 97 96 94 95 96 98 97 98 99 98 98 98
77 90 89 91 95 99 94 99 97 100 97 84 84 86 79 95 91 90 96 95 95 96 98 98 97 98 96 98 99 98 94 95 97 98 97 98 99 99 99 99 99 98 99 99 98 98 99 99 98
84 95 98 97 99 96 99 99 100 96 87 83 82 96 95 95 97 98 98 98 98 98 98 97 97 98 98 99 99 99 99 98 98 98 98 99 99 99 98 98 98 98 98 98 98 99 99 98 98
89 95 98 97 97 98 91 98 97 94 92 87 94 96 97 97 96 97 97 97 97 98 98 97 97 98 97 98 99 99 98 99 99 98 98 99 98 99 98 98 98 97 96 97 98 99 98 98 99
88 99 96 100 100 99 98 100 99 92 92 94 97 95 97 96 97 97 96 96 96 96 96 95 93 92 92 91 94 98 99 98 98 98 98 98 98 98 98 97 97 98 98 98 98 99 98 98 98
93 88 99 99 97 96 89 98 98 100 96 93 95 97 97 94 94 91 92 94 95 93 90 83 77 76 77 82 83 93 97 98 98 99 99 99 98 98 97 97 97 98 98 98 98 98 97 99 99
94 98 92 78 89 96 96 98 99 98 91 85 95 92 91 93 83 73 63 67 71 71 71 70 69 71 72 70 71 71 73 75 80 88 96 98 98 98 98 96 97 97 96 97 97 97 98 98 96
69 73 65 84 87 87 97 99 92 92 84 65 65 84 70 78 74 60 58 59 60 61 61 62 62 66 73 74 73 74 75 75 80 85 89 94 95 95 96 96 99 99 99 99 99 99 99 98 98

GFSSGP_sfc_rhum_111.txt.gz
RH
70 68 83 70 81 94 94 87 82 68 56 43 36 36 34 33 33 62 78 86 89 87 84 84 84 84 86 87 88 89 89 87 84 78 75 76 71 74 78 80 80 72 74 71 70 66 67 70 74
59 60 68 83 89 88 63 84 72 67 50 38 33 32 39 51 84 82 89 82 84 86 85 83 86 84 83 84 87 90 88 86 84 82 80 79 74 77 79 79 77 74 72 68 67 71 74 78 73
58 57 72 90 95 89 68 67 64 46 42 38 34 33 46 68 79 84 80 87 82 89 86 86 88 86 84 82 85 88 89 87 86 84 83 82 78 77 79 77 78 75 77 68 71 75 79 77 67
61 68 75 92 95 83 74 64 58 53 42 34 30 32 34 66 80 78 91 86 93 94 93 91 89 87 86 86 84 86 87 86 87 85 84 84 81 78 79 82 82 81 81 76 75 78 76 69 72
70 77 88 96 92 85 76 57 50 52 46 38 32 32 31 51 78 84 92 90 94 96 96 92 89 88 89 90 87 84 87 87 86 85 82 81 80 80 82 84 84 83 79 74 74 71 67 69 72
83 81 89 86 84 74 67 54 47 45 40 31 30 30 29 58 77 93 92 96 94 96 95 90 90 89 91 89 91 87 88 89 87 86 85 83 82 83 85 84 85 81 76 71 70 67 67 71 71
84 87 86 88 83 72 60 48 45 42 44 36 29 32 28 38 84 98 98 97 96 97 96 97 95 92 93 92 93 91 88 90 88 87 87 85 86 86 85 85 84 79 75 72 72 70 70 71 71
79 80 91 86 77 65 51 40 38 39 39 28 29 36 38 38 86 92 92 98 97 98 98 98 97 96 98 97 94 94 93 92 91 89 91 92 91 89 88 90 86 83 80 81 80 74 74 75 75
61 81 91 80 77 66 48 49 40 37 38 38 30 32 44 40 70 87 93 91 98 98 96 97 96 93 90 92 89 96 95 94 93 95 93 96 89 89 90 91 90 87 86 86 82 79 81 85 82
70 87 71 64 60 61 53 56 50 45 43 44 34 30 32 38 47 81 91 95 91 97 97 97 94 91 87 78 83 86 95 98 98 96 96 94 88 82 77 90 92 92 91 90 86 86 89 88 93
77 82 67 57 54 55 58 53 50 47 47 42 37 37 36 40 49 64 78 92 93 92 96 96 96 91 88 89 93 93 90 98 99 97 96 92 74 73 72 86 82 88 94 98 95 95 97 92 88
76 62 62 62 54 58 58 50 54 47 42 36 34 34 38 42 42 55 65 72 93 97 95 96 98 96 92 95 92 87 90 89 96 96 96 93 81 68 72 80 79 82 92 96 98 98 95 91 85
81 71 64 64 67 67 61 65 62 58 47 40 37 37 45 50 48 56 56 67 92 98 96 97 97 98 98 97 97 80 89 91 89 94 91 90 77 76 72 85 82 85 92 93 97 98 97 94 84
79 76 73 69 69 66 68 63 65 55 51 46 42 42 45 47 46 52 54 66 88 93 95 96 96 96 96 97 96 88 78 86 94 94 90 84 75 77 76 81 88 86 90 97 93 98 97 94 85
76 85 79 74 73 78 70 80 74 52 49 51 47 42 41 51 48 51 59 62 72 92 92 96 94 95 96 95 96 97 76 81 97 95 89 83 81 78 74 79 82 83 90 93 94 97 95 93 82
89 86 96 63 74 69 66 80 56 52 56 55 50 46 44 45 49 51 57 62 68 86 95 92 87 94 94 95 96 96 93 75 92 97 93 92 93 86 84 78 79 87 92 97 94 97 95 88 84
88 95 93 83 67 67 73 81 63 55 54 55 51 50 48 48 51 53 54 58 61 88 94 96 95 95 93 95 96 96 93 92 81 96 94 91 94 93 87 90 82 86 90 95 93 94 88 87 84
87 92 87 91 68 70 74 75 62 56 63 62 59 58 54 55 53 53 59 63 70 87 96 96 96 95 97 95 94 96 95 95 92 92 96 89 94 96 98 93 82 82 84 87 90 86 85 82 79
86 91 84 79 68 73 81 80 71 62 73 82 82 80 66 62 59 65 59 69 80 89 98 98 98 96 96 97 94 93 97 96 96 94 89 89 90 95 98 93 90 83 80 80 78 80 80 83 81
78 85 76 73 69 76 79 85 71 65 72 75 77 77 77 74 73 66 72 80 89 90 95 97 96 95 92 95 97 96 97 95 94 94 93 91 91 90 88 89 81 78 79 79 79 81 88 85 89
79 85 71 76 75 72 85 92 88 76 80 77 73 73 75 79 79 73 68 81 89 94 97 96 94 96 95 96 97 99 98 98 98 98 94 92 87 92 89 91 88 85 83 86 89 88 88 92 93
88 63 64 67 93 92 79 94 82 93 86 83 85 87 84 79 76 78 79 90 96 95 94 94 96 96 95 96 98 96 96 96 96 96 94 92 88 91 90 90 88 89 91 95 92 93 92 92 93
84 78 89 92 97 99 82 97 86 93 90 89 88 85 87 82 80 81 89 94 95 96 97 95 95 96 95 96 94 96 97 96 98 99 98 97 98 96 90 89 88 91 93 95 96 98 97 96 96
79 89 89 94 96 98 93 98 94 96 96 91 87 84 85 82 89 89 94 97 94 96 99 98 97 98 95 95 96 96 94 96 97 99 99 99 99 99 99 99 98 98 98 98 99 99 99 98 97
88 96 97 93 100 94 99 99 97 96 89 90 91 84 99 96 96 93 94 96 91 95 98 98 98 99 98 98 98 98 92 94 98 98 99 99 99 98 99 98 99 99 99 99 99 99 99 98 98
88 90 99 97 100 96 96 98 99 94 88 93 93 94 94 98 96 97 96 97 98 98 97 98 96 98 98 99 99 99 98 98 99 99 99 99 98 98 98 99 99 99 98 98 98 99 99 99 99
88 99 95 100 99 98 98 99 97 90 89 92 95 95 97 97 97 97 97 98 97 97 98 98 97 97 95 98 99 99 99 99 99 100 99 99 98 98 98 98 98 98 98 98 98 99 99 99 99
90 91 99 100 97 96 97 98 98 99 98 92 96 97 96 94 93 94 94 94 93 94 94 92 92 93 90 90 93 95 97 98 99 99 99 99 98 99 99 99 99 99 98 98 98 98 98 99 98
97 99 98 97 93 96 95 99 100 100 98 96 95 95 92 89 88 88 87 83 82 85 83 80 75 78 80 79 80 80 81 86 91 95 97 97 98 99 99 98 98 98 97 97 98 98 97 98 98
76 86 76 98 90 90 98 99 95 95 94 84 84 82 68 66 67 67 65 64 65 67 66 66 66 71 77 75 73 76 74 74 75 78 83 86 95 95 96 96 96 98 99 99 99 99 99 98 98

GFSSGP_sfc_rhum_114.txt.gz
RH
64 69 82 67 79 89 89 80 86 73 64 50 43 39 39 38 34 50 78 94 94 94 92 85 85 87 86 86 86 89 87 85 80 77 73 75 74 76 76 71 70 72 76 67 66 65 61 73 71
59 61 69 79 84 74 49 83 77 74 59 44 41 37 41 45 68 82 88 91 91 90 90 88 87 88 86 87 87 88 87 86 82 74 79 75 72 76 79 76 74 74 75 72 68 69 72 75 73
62 59 71 83 92 67 48 69 77 54 48 40 36 35 44 64 78 86 81 88 91 95 91 88 87 87 87 88 88 87 87 86 84 82 82 80 75 77 80 80 78 78 74 71 74 76 78 70 71
62 66 75 88 93 82 64 70 65 53 44 36 34 36 32 69 86 87 86 89 96 97 95 92 88 87 87 89 90 89 86 83 84 84 84 82 80 79 81 81 82 80 76 75 77 79 75 71 73
71 68 86 91 89 86 80 68 57 57 48 40 32 32 33 50 69 87 93 92 96 96 97 94 89 88 87 87 89 90 89 87 86 84 81 80 80 82 82 84 85 84 78 75 78 78 70 74 74
79 74 69 75 80 74 72 64 52 51 43 35 34 32 32 49 68 85 90 98 95 92 97 95 91 90 90 88 86 89 90 89 88 87 84 82 82 82 84 83 84 80 77 77 76 71 69 73 74
79 73 72 80 81 72 62 55 64 45 47 40 36 38 31 36 47 92 90 92 98 95 94 98 96 95 94 92 92 88 90 92 90 89 87 85 84 84 85 84 82 77 75 73 72 68 72 73 73
81 72 91 85 72 56 56 44 41 42 44 32 34 37 36 39 48 79 91 91 90 94 98 99 98 98 97 97 94 94 91 94 92 91 92 91 90 89 87 88 84 82 79 78 78 74 73 76 77
64 81 83 74 80 63 54 53 44 43 45 42 35 35 43 38 47 67 88 91 92 92 94 99 99 99 98 97 95 94 95 94 94 94 96 96 95 93 95 92 90 85 82 83 80 78 80 84 82
68 72 64 67 68 64 58 59 56 52 50 50 38 32 31 36 43 55 69 90 94 91 94 96 97 98 95 83 94 97 96 97 97 97 97 98 96 96 90 94 93 88 88 88 84 83 88 89 95
81 71 70 60 56 58 58 55 54 55 54 48 44 36 38 39 40 53 56 70 92 92 95 93 94 95 95 92 93 98 99 98 99 98 98 98 96 95 88 93 93 97 97 98 95 96 98 95 93
75 67 66 64 63 68 69 58 64 53 51 41 38 38 43 44 47 49 54 59 68 91 95 93 93 96 93 94 92 88 97 97 98 97 97 98 98 94 82 93 96 98 98 98 99 99 97 94 89
82 74 68 67 69 69 65 70 68 63 49 46 46 45 51 52 51 52 49 58 64 91 95 96 94 97 95 96 93 83 92 95 94 95 94 94 90 82 73 92 95 95 98 98 98 98 95 94 91
85 79 76 72 72 70 72 70 69 61 60 53 51 51 52 54 51 54 56 55 58 84 95 96 95 96 97 98 97 95 89 91 94 95 96 89 88 77 74 79 84 97 98 97 96 96 97 96 92
79 86 80 75 75 74 74 75 79 56 58 55 51 49 50 55 54 52 51 50 54 69 91 96 96 94 97 96 96 98 92 86 97 97 94 90 89 86 78 81 90 92 92 93 96 95 97 97 90
88 84 83 62 78 69 65 80 53 52 59 59 55 48 49 53 56 52 50 51 57 71 87 93 87 94 95 95 96 97 96 88 97 97 98 92 85 84 84 85 88 90 92 88 92 95 98 97 96
84 95 93 81 67 71 76 82 66 61 61 57 52 52 51 52 58 57 54 54 54 65 71 92 95 95 94 94 97 97 95 97 88 98 97 93 90 88 88 88 89 94 93 90 89 94 91 96 94
90 93 83 90 73 74 82 80 64 57 61 64 61 60 61 62 58 56 54 54 58 66 78 88 97 95 96 97 98 99 98 98 98 93 97 92 93 92 94 92 94 95 97 95 90 90 91 90 88
75 70 70 65 66 75 83 81 71 62 69 77 75 75 75 73 62 64 59 58 69 77 85 93 97 97 97 94 94 98 93 90 93 97 93 90 90 96 96 96 98 98 99 97 88 86 87 93 88
83 84 86 70 69 80 80 80 67 64 69 75 77 82 84 76 71 67 75 70 74 72 86 91 94 95 93 95 95 93 94 92 92 93 91 91 90 94 95 94 94 98 99 96 94 87 88 86 91
94 96 88 76 62 74 81 91 81 73 82 81 81 82 79 77 72 75 76 79 83 87 90 94 91 90 86 94 92 97 98 99 99 97 96 90 92 94 95 94 93 93 97 95 94 93 88 92 95
97 74 71 64 79 96 75 94 78 89 89 81 87 90 88 85 81 77 78 81 83 86 89 92 95 88 87 96 94 92 97 97 98 95 93 95 93 93 93 86 84 89 92 90 90 90 90 91 93
85 80 91 93 95 100 88 99 84 86 89 88 84 86 87 85 86 80 78 80 84 92 96 95 96 95 96 92 94 97 97 97 98 98 98 97 97 95 93 88 88 90 93 92 89 94 93 92 94
75 92 89 95 97 99 91 97 92 98 98 92 82 83 81 96 90 84 90 93 96 96 97 97 97 93 97 98 97 97 97 97 99 100 99 99 99 98 97 97 97 96 97 95 93 96 96 94 95
92 96 96 92 99 94 98 100 100 97 92 95 95 94 95 92 91 95 96 95 95 97 96 96 97 96 96 98 98 96 96 96 97 96 96 98 99 99 99 99 99 99 99 99 99 99 99 99 99
88 96 98 98 98 95 93 98 98 92 83 87 90 92 88 91 92 96 96 95 95 97 98 97 97 97 96 97 98 98 95 94 94 96 99 97 97 99 99 99 99 99 99 99 99 99 99 99 99
90 100 93 100 95 98 98 99 90 85 93 87 91 92 96 96 96 95 94 97 97 97 98 98 98 99 99 98 98 98 98 97 99 99 99 99 99 99 98 99 98 98 98 98 98 99 99 99 99
90 89 100 100 98 96 97 98 98 98 98 93 94 95 95 94 93 93 94 96 95 95 96 95 94 96 96 94 94 97 98 99 99 99 99 98 99 99 99 99 99 99 98 98 99 99 98 99 98
97 99 99 98 97 96 94 98 100 100 100 98 93 89 90 89 90 91 91 92 92 89 91 93 94 90 90 88 87 87 86 87 87 90 92 96 96 96 97 98 99 99 98 98 99 99 98 98 97
88 94 90 96 97 89 97 99 93 95 92 83 81 78 74 71 72 72 76 83 86 86 85 86 84 86 81 77 75 75 75 74 76 76 78 80 88 89 88 88 87 89 92 94 97 98 98 99 99

GFSSGP_sfc_rhum_117.txt.gz
RH
53 60 60 51 55 58 60 50 67 57 53 36 34 31 29 26 26 41 64 74 79 75 75 71 88 86 86 85 87 87 86 85 82 82 78 76 73 74 74 70 69 71 68 64 66 68 63 70 71
50 51 57 54 58 44 29 59 63 55 44 37 32 27 30 32 56 68 72 72 81 76 74 68 90 87 86 86 85 86 86 84 81 80 78 74 74 76 73 72 73 76 73 71 71 65 66 69 74
50 50 57 57 62 38 27 49 56 42 36 31 27 25 33 57 50 74 73 74 78 79 76 73 90 88 86 86 87 86 85 84 81 76 80 79 77 77 76 77 79 81 76 75 71 67 75 72 71
54 52 58 64 58 58 41 51 50 40 35 29 27 27 41 36 55 67 78 79 79 81 76 82 89 88 88 88 90 88 85 85 84 82 83 81 79 78 82 82 82 82 80 78 77 78 72 76 75
58 50 64 64 61 66 62 53 44 43 36 30 26 27 27 31 33 59 83 87 84 84 79 74 90 88 87 90 90 90 88 86 86 85 82 82 80 80 85 85 83 81 80 80 78 76 72 75 75
66 52 48 45 53 56 55 51 44 37 32 27 25 26 27 31 38 61 82 88 88 80 80 75 85 89 89 88 90 91 90 88 88 86 85 84 82 81 85 85 83 80 78 77 77 74 73 74 73
64 47 40 48 49 51 45 41 43 38 32 29 26 27 25 29 41 59 78 82 87 90 82 84 74 78 94 91 89 90 90 90 90 88 87 86 86 85 86 86 84 80 78 77 79 73 74 75 74
69 58 68 64 56 40 46 38 35 32 33 28 24 27 27 31 38 54 58 78 80 86 93 92 82 80 81 81 95 91 90 93 91 92 92 92 91 90 88 89 85 82 82 81 79 76 77 77 79
55 59 58 52 63 44 46 45 38 38 36 32 29 26 28 31 39 48 54 60 77 81 87 92 96 89 86 84 83 95 92 93 95 92 95 92 71 72 80 82 89 85 82 81 79 78 81 84 84
60 50 48 52 57 50 50 49 46 42 40 38 34 29 27 30 36 50 55 61 56 65 78 88 90 95 90 89 87 80 82 78 79 79 79 77 75 73 73 84 92 89 86 86 83 81 85 82 59
66 55 57 52 50 55 53 50 44 46 46 40 34 31 31 36 37 45 48 50 52 56 76 82 88 89 89 86 90 91 93 92 86 81 86 81 83 82 80 76 75 74 86 68 72 72 65 68 63
52 60 61 58 59 64 61 55 56 49 38 32 34 35 38 40 41 44 47 52 55 58 59 78 85 88 86 85 81 81 93 90 88 84 83 86 86 88 86 76 80 76 73 73 74 72 72 72 66
63 68 65 63 66 64 61 62 57 56 44 40 42 44 46 48 47 47 43 44 50 60 61 76 86 87 85 84 78 70 81 89 84 83 82 87 83 82 80 79 83 77 77 73 77 80 74 70 67
72 74 72 67 66 64 65 61 62 50 49 49 49 48 47 50 46 48 49 47 46 48 60 72 86 85 86 87 82 69 68 78 83 85 86 82 84 83 81 80 85 74 80 81 74 78 76 70 63
72 72 70 64 65 68 68 72 76 50 51 50 46 44 47 50 50 49 50 46 42 45 53 69 83 87 88 85 86 81 70 67 76 77 76 86 90 83 69 71 75 83 80 87 88 75 72 74 69
77 68 60 50 64 63 58 61 48 45 51 50 48 46 45 42 45 49 47 47 46 50 52 62 73 87 88 87 86 85 80 70 72 80 76 71 84 87 85 74 74 81 92 86 94 89 76 83 79
72 74 84 74 60 67 69 72 58 51 48 51 49 50 49 50 49 53 49 46 46 47 51 60 70 81 87 86 88 86 83 81 70 77 82 76 74 78 85 84 77 80 90 85 89 93 80 85 82
82 87 76 80 65 65 74 76 62 56 55 54 53 54 54 57 54 52 53 50 49 50 55 57 65 70 82 86 88 89 88 86 84 74 78 78 80 78 88 84 86 83 88 93 92 93 94 87 81
76 73 78 68 60 73 77 76 63 56 59 61 65 69 66 66 59 60 58 55 56 59 57 57 61 71 84 90 90 89 87 85 85 90 80 75 78 78 84 88 92 90 93 92 92 96 95 96 78
83 90 85 70 65 75 71 69 58 61 64 68 68 70 72 71 68 64 63 63 64 61 59 60 66 72 83 87 85 85 85 84 81 87 88 81 78 82 83 88 93 92 94 95 96 95 97 95 92
89 90 84 77 67 63 72 79 69 57 71 70 66 69 71 73 70 66 63 67 73 74 70 62 64 76 83 82 83 89 87 91 93 89 88 87 81 85 86 87 91 91 94 94 91 93 93 95 94
90 74 73 77 86 93 68 93 73 78 75 71 74 73 76 75 71 71 71 70 73 76 76 70 70 77 83 81 90 82 87 91 89 86 86 89 83 90 89 93 88 87 89 91 90 93 92 94 94
77 75 86 90 96 100 82 98 77 77 79 89 83 73 78 79 83 80 77 72 72 77 81 79 78 83 81 83 85 84 86 89 86 89 90 89 90 87 94 93 93 88 85 85 82 88 88 93 91
70 86 86 90 82 98 80 92 86 98 99 93 82 87 90 86 82 80 83 76 82 86 87 89 87 86 83 86 86 86 87 88 94 95 94 94 91 95 95 90 86 86 88 95 93 95 93 90 89
90 93 97 90 98 91 85 99 98 96 93 94 96 88 88 85 86 87 88 86 88 87 88 88 92 86 86 92 91 89 90 91 90 93 92 92 97 98 97 96 94 94 93 90 97 98 96 94 93
85 88 97 98 93 90 88 96 96 80 85 84 82 86 85 89 89 90 92 92 93 90 93 92 92 90 91 92 92 90 90 93 91 89 93 91 93 96 94 97 99 99 99 99 98 98 99 99 99
94 99 85 100 92 96 91 98 92 78 92 91 91 86 89 91 91 93 94 96 94 95 97 95 94 91 91 90 92 97 95 93 94 94 94 98 98 99 98 98 99 99 99 99 99 99 98 99 97
90 85 100 99 98 93 86 97 98 98 99 96 95 94 88 89 90 92 94 94 94 96 96 94 94 96 95 95 96 95 96 96 97 97 98 98 99 99 99 99 99 98 98 99 99 99 99 99 99
97 99 98 98 98 94 91 94 99 100 98 96 90 84 83 85 87 91 93 92 92 91 92 94 93 93 92 94 91 91 92 89 86 91 93 94 93 93 93 95 96 97 98 98 99 99 99 99 99
88 94 92 95 96 91 92 98 86 87 90 84 83 75 70 69 72 77 84 88 90 92 92 93 94 92 90 87 87 89 89 88 88 86 88 85 88 87 86 84 81 85 90 92 93 94 93 91 94

GFSSGP_sfc_rhum_120.txt.gz
RH
42 39 35 34 30 28 20 20 31 35 32 30 25 25 24 21 22 34 56 56 56 54 57 56 86 86 86 87 87 86 85 84 83 82 81 77 73 72 71 70 68 66 64 62 71 70 70 72 72
38 37 36 33 26 18 14 27 32 32 31 27 24 22 24 26 44 47 57 55 58 55 60 48 87 86 87 87 86 87 86 84 84 84 80 76 73 73 72 71 69 71 71 70 71 69 64 74 74
38 34 34 31 20 16 14 27 31 33 24 24 24 20 27 34 29 42 44 59 58 55 59 54 87 86 86 86 86 85 85 85 82 81 82 78 75 76 72 73 77 78 75 75 71 64 73 74 72
36 36 33 28 21 24 24 29 34 30 24 20 20 22 30 22 28 39 58 71 64 59 53 74 88 87 86 87 86 85 84 84 83 81 82 81 79 78 76 81 84 81 79 76 71 75 73 72 72
32 34 31 26 24 29 31 33 30 29 25 22 20 23 26 23 25 39 72 76 73 62 56 57 89 86 85 88 88 86 85 84 84 82 81 79 78 78 81 84 85 82 81 78 77 73 72 72 73
40 30 23 19 21 29 30 33 32 28 24 20 18 20 23 24 25 33 59 78 78 69 62 53 82 86 87 87 88 88 87 87 86 85 83 82 80 81 84 84 84 82 81 79 78 73 73 73 71
30 24 17 19 19 23 23 28 25 21 22 20 19 19 20 22 28 34 34 62 77 83 72 61 58 69 94 90 89 88 88 89 88 88 86 85 84 84 85 84 83 80 79 80 79 73 74 74 72
33 25 27 22 19 23 33 29 26 24 18 21 19 15 17 24 26 32 31 35 60 73 81 79 61 61 58 54 91 91 91 91 89 89 91 92 92 90 86 88 86 82 82 79 80 76 75 76 76
41 22 22 22 27 29 32 29 29 28 27 23 20 20 17 19 24 30 35 34 34 47 68 78 82 71 59 55 58 90 90 93 96 90 96 89 58 60 70 75 90 88 85 85 82 79 81 84 85
29 25 22 32 35 32 35 35 31 26 23 21 21 18 18 18 21 30 37 37 35 33 38 61 75 83 77 61 60 57 57 57 51 52 55 57 50 48 56 76 92 89 87 86 82 80 85 83 44
39 28 33 38 39 43 38 35 30 28 27 19 17 14 15 21 22 27 30 34 37 34 34 37 60 74 83 78 65 56 80 66 51 46 50 52 52 57 62 71 66 62 83 54 64 61 50 48 44
38 45 42 42 45 45 38 34 33 30 23 16 18 21 23 26 26 27 29 30 34 39 35 34 46 66 73 68 61 54 61 59 54 54 51 53 56 63 65 66 67 60 62 55 44 40 41 46 47
33 42 46 43 45 43 38 39 34 32 25 22 23 28 30 32 30 28 28 28 30 40 39 37 39 61 66 70 58 56 62 74 64 57 52 60 58 59 60 73 76 65 59 58 49 43 44 51 49
45 48 45 44 44 45 46 34 45 24 27 29 30 32 29 31 29 30 32 33 29 28 35 38 38 46 65 70 64 53 51 61 72 63 62 58 62 67 68 65 65 60 63 60 55 51 47 54 48
50 45 42 45 49 46 52 43 47 28 28 33 28 26 29 30 31 33 33 32 30 27 31 34 37 43 59 66 69 59 51 53 64 68 65 64 63 66 61 65 64 61 59 61 65 53 57 50 49
46 43 37 40 45 50 48 30 27 27 32 31 27 28 31 30 28 28 30 31 29 32 32 33 29 39 53 65 72 66 57 49 51 57 56 57 60 66 71 76 64 66 68 67 66 69 62 72 62
40 41 54 43 46 49 53 41 33 30 29 32 29 28 30 33 33 34 34 31 29 30 32 34 35 35 49 60 75 74 70 61 51 53 60 61 52 56 64 68 68 58 71 71 71 74 80 70 72
38 42 41 44 39 45 47 48 37 35 34 34 31 31 33 37 38 38 38 36 33 32 32 33 32 31 34 50 68 84 80 69 59 53 52 56 61 53 57 58 62 66 80 81 81 73 74 74 61
49 50 48 40 39 50 47 48 41 35 36 36 36 38 38 43 44 46 45 44 43 42 40 35 34 32 34 42 59 79 83 73 67 65 60 54 54 58 61 62 66 71 83 83 82 84 77 93 73
60 55 43 43 46 52 46 48 40 38 39 44 47 44 46 48 48 47 46 46 48 45 40 40 36 36 35 40 51 60 63 61 59 64 66 64 59 60 64 68 70 70 87 86 87 87 88 92 87
54 52 50 58 52 46 52 53 43 39 45 45 42 46 48 51 54 53 48 46 45 47 45 40 38 39 37 41 48 68 72 71 70 66 67 66 64 67 68 69 70 74 89 94 92 91 91 93 90
59 50 56 64 71 80 53 86 52 52 49 56 56 55 56 63 62 62 61 52 50 51 50 51 46 41 41 45 56 69 76 74 66 64 65 76 69 66 67 72 75 87 91 92 93 89 87 87 86
53 55 58 62 72 96 66 97 56 59 76 89 77 70 80 67 66 72 73 64 57 55 58 58 51 46 46 52 59 67 80 78 64 69 71 69 70 70 70 78 87 90 91 92 90 91 92 90 85
49 59 61 68 82 95 63 82 84 95 95 94 84 83 82 81 73 62 66 68 66 58 64 63 54 50 50 54 59 67 77 81 77 83 83 80 81 80 76 76 78 85 91 92 93 89 88 86 83
68 79 89 87 95 76 66 93 94 78 82 93 92 87 84 86 79 74 78 81 73 68 68 67 66 60 58 61 66 69 81 80 78 78 84 82 88 88 83 87 86 94 92 86 80 79 91 90 83
63 70 91 89 75 74 66 94 100 66 80 91 86 86 82 82 82 87 90 94 92 81 75 72 77 68 66 73 81 78 80 84 81 82 78 79 83 83 77 82 87 86 87 90 91 95 92 96 96
90 96 80 100 86 88 75 100 76 71 91 93 89 86 87 87 90 92 93 95 95 93 89 90 85 79 71 74 76 77 79 79 81 79 74 76 74 74 80 85 96 96 96 96 97 97 94 96 98
90 83 100 99 93 83 70 90 100 100 98 94 89 86 79 86 89 92 93 93 93 92 91 90 90 92 88 90 89 89 91 92 92 90 90 93 97 97 97 99 99 99 98 98 97 98 99 99 99
95 98 95 95 95 76 67 86 98 100 95 91 68 64 65 76 81 85 90 90 88 91 90 92 88 91 89 92 90 91 94 94 93 94 95 95 94 93 92 93 94 93 93 96 98 99 99 99 99
69 78 67 80 86 76 70 83 75 70 77 76 71 59 57 61 63 64 73 82 89 92 91 92 94 94 94 95 93 94 94 92 91 92 92 90 90 90 87 83 82 88 90 86 89 89 90 90 93